[[{"header":{"parameterUnit":"m.s-1","parameterCategory":1,"la1":30.6,"la2":28.766,"lo1":-90.7593,"lo2":-88.6598,"dy":0.0162,"dx":0.0183,"nx":116,"ny":114,"refTime":"2024-05-09T00:00:00:Z","depth":0,"parameterNumber":2,"parameterNumberName":"U-component_of_WINDS"},"data":[0.0,0.0,0.0,0.0,0.0,0.0,0.0,0.0,0.0,0.0,0.0,0.0,0.0,0.0,0.0,0.0,0.0,0.0,0.0,0.0,0.0,0.0,0.0,0.0,0.0,0.0,0.0,0.0,0.0,0.0,0.0,0.0,0.0,0.0,0.0,0.0,0.0,0.0,0.0,0.0,0.0,0.0,0.0,0.0,0.0,0.0,0.0,0.0,0.0,0.0,0.0,0.0,0.0,0.0,0.0,0.0,0.0,0.0,0.0,0.0,0.0,0.0,0.0,0.0,0.0,0.0,0.0,0.0,0.0,0.0,0.0,0.0,0.0,0.0,0.0,0.0,0.0,0.0,0.0,0.0,0.0,0.0,0.0,0.0,0.0,0.0,0.0,0.0,0.0,0.0,0.0,0.0,0.0,0.0,0.0,0.0,0.0,0.0,0.0,0.0,0.0,0.0,0.0,0.0,0.0,0.0,0.0,0.0,0.0,0.0,0.0,0.0,0.0,0.0,0.0,0.0,0.0,0.0,0.0,0.0,0.0,0.0,0.0,0.0,0.0,0.0,0.0,0.0,0.0,0.0,0.0,0.0,0.0,0.0,0.0,0.0,0.0,0.0,0.0,0.0,0.0,0.0,0.0,0.0,0.0,0.0,0.0,0.0,0.0,0.0,0.0,0.0,0.0,0.0,0.0,0.0,0.0,0.0,0.0,0.0,0.0,0.0,0.0,0.0,0.0,0.0,0.0,0.0,0.0,0.0,0.0,0.0,0.0,0.0,0.0,0.0,0.0,0.0,0.0,0.0,0.0,0.0,0.0,0.0,0.0,0.0,0.0,0.0,0.0,0.0,0.0,0.0,0.0,0.0,0.0,0.0,0.0,0.0,0.0,0.0,0.0,0.0,0.0,0.0,0.0,0.0,0.0,0.0,0.0,0.0,0.0,0.0,0.0,0.0,0.0,0.0,0.0,0.0,0.0,0.0,0.0,0.0,0.0,0.0,0.0,0.0,0.0,0.0,0.0,0.0,0.0,0.0,0.0,0.0,0.0,0.0,0.0,0.0,0.0,0.0,0.0,0.0,0.0,0.0,0.0,0.0,0.0,0.0,0.0,0.0,0.0,0.0,0.0,0.0,0.0,0.0,0.0,0.0,0.0,0.0,0.0,0.0,0.0,0.0,0.0,0.0,0.0,0.0,0.0,0.0,0.0,0.0,0.0,0.0,0.0,0.0,0.0,0.0,0.0,0.0,0.0,0.0,0.0,0.0,0.0,0.0,0.0,0.0,0.0,0.0,0.0,0.0,0.0,0.0,0.0,0.0,0.0,0.0,0.0,0.0,0.0,0.0,0.0,0.0,0.0,0.0,0.0,0.0,0.0,0.0,0.0,0.0,0.0,0.0,0.0,0.0,0.0,0.0,0.0,0.0,0.0,0.0,0.0,0.0,0.0,0.0,0.0,0.0,0.0,0.0,0.0,0.0,0.0,0.0,0.0,0.0,0.0,0.0,0.0,0.0,0.0,0.0,0.0,0.0,0.0,0.0,0.0,0.0,0.0,0.0,0.0,0.0,0.0,0.0,0.0,0.0,0.0,0.0,0.0,0.0,0.0,0.0,0.0,0.0,0.0,0.0,0.0,0.0,0.0,0.0,0.0,0.0,0.0,0.0,0.0,0.0,0.0,0.0,0.0,0.0,0.0,0.0,0.0,0.0,0.0,0.0,0.0,0.0,0.0,0.0,0.0,0.0,0.0,0.0,0.0,0.0,0.0,0.0,0.0,0.0,0.0,0.0,0.0,0.0,0.0,0.0,0.0,0.0,0.0,0.0,0.0,0.0,0.0,0.0,0.0,0.0,0.0,0.0,0.0,0.0,0.0,0.0,0.0,0.0,0.0,0.0,0.0,0.0,0.0,0.0,0.0,0.0,0.0,0.0,0.0,0.0,0.0,0.0,0.0,0.0,0.0,0.0,0.0,0.0,0.0,0.0,0.0,0.0,0.0,0.0,0.0,0.0,0.0,0.0,0.0,0.0,0.0,0.0,0.0,0.0,0.0,0.0,0.0,0.0,0.0,0.0,0.0,0.0,0.0,0.0,0.0,0.0,0.0,0.0,0.0,0.0,0.0,0.0,0.0,0.0,0.0,0.0,0.0,0.0,0.0,0.0,0.0,0.0,0.0,0.0,0.0,0.0,0.0,0.0,0.0,0.0,0.0,0.0,0.0,0.0,0.0,0.0,0.0,0.0,0.0,0.0,0.0,0.0,0.0,0.0,0.0,0.0,0.0,0.0,0.0,0.0,0.0,0.0,0.0,0.0,0.0,0.0,0.0,0.0,0.0,0.0,0.0,0.0,0.0,0.0,0.0,0.0,0.0,0.0,0.0,0.0,0.0,0.0,0.0,0.0,0.0,0.0,0.0,0.0,0.0,0.0,0.0,0.0,0.0,0.0,0.0,0.0,0.0,0.0,0.0,0.0,0.0,0.0,0.0,0.0,0.0,0.0,0.0,0.0,0.0,0.0,0.0,0.0,0.0,0.0,0.0,0.0,0.0,0.0,0.0,0.0,0.0,0.0,0.0,0.0,0.0,0.0,0.0,0.0,0.0,0.0,0.0,0.0,0.0,0.0,0.0,0.0,0.0,0.0,0.0,0.0,0.0,0.0,0.0,0.0,0.0,0.0,0.0,0.0,0.0,0.0,0.0,0.0,0.0,0.0,0.0,0.0,0.0,0.0,0.0,0.0,0.0,0.0,0.0,0.0,0.0,0.0,0.0,0.0,0.0,0.0,0.0,0.0,0.0,0.0,0.0,0.0,0.0,0.0,0.0,0.0,0.0,0.0,0.0,0.0,0.0,0.0,0.0,0.0,0.0,0.0,0.0,0.0,0.0,0.0,0.0,0.0,0.0,0.0,0.0,0.0,0.0,0.0,0.0,0.0,0.0,0.0,0.0,0.0,0.0,0.0,0.0,0.0,0.0,0.0,0.0,0.0,0.0,0.0,0.0,0.0,0.0,0.0,0.0,0.0,0.0,0.0,0.0,0.0,0.0,0.0,0.0,0.0,0.0,0.0,0.0,0.0,0.0,0.0,0.0,0.0,0.0,0.0,0.0,0.0,0.0,0.0,0.0,0.0,0.0,0.0,0.0,0.0,0.0,0.0,0.0,0.0,0.0,0.0,0.0,0.0,0.0,0.0,0.0,0.0,0.0,0.0,0.0,0.0,0.0,0.0,0.0,0.0,0.0,0.0,0.0,0.0,0.0,0.0,0.0,0.0,0.0,0.0,0.0,0.0,0.0,0.0,0.0,0.0,0.0,0.0,0.0,0.0,0.0,0.0,0.0,0.0,0.0,0.0,0.0,0.0,0.0,0.0,0.0,0.0,0.0,0.0,0.0,0.0,0.0,0.0,0.0,0.0,0.0,0.0,0.0,0.0,0.0,0.0,0.0,0.0,0.0,0.0,0.0,0.0,0.0,0.0,0.0,0.0,0.0,0.0,0.0,0.0,0.0,0.0,0.0,0.0,0.0,0.0,0.0,0.0,0.0,0.0,0.0,0.0,0.0,0.0,0.0,0.0,0.0,0.0,0.0,0.0,0.0,0.0,0.0,0.0,0.0,0.0,0.0,0.0,0.0,0.0,0.0,0.0,0.0,0.0,0.0,0.0,0.0,0.0,0.0,0.0,0.0,0.0,0.0,0.0,0.0,0.0,0.0,0.0,0.0,0.0,0.0,0.0,0.0,0.0,0.0,0.0,0.0,0.0,0.0,0.0,0.0,0.0,0.0,0.0,0.0,0.0,0.0,0.0,0.0,0.0,0.0,0.0,0.0,0.0,0.0,0.0,0.0,0.0,0.0,0.0,0.0,0.0,0.0,0.0,0.0,0.0,0.0,0.0,0.0,0.0,0.0,0.0,0.0,0.0,0.0,0.0,0.0,0.0,0.0,0.0,0.0,0.0,0.0,0.0,0.0,0.0,0.0,0.0,0.0,0.0,0.0,0.0,0.0,0.0,0.0,0.0,0.0,0.0,0.0,0.0,0.0,0.0,0.0,0.0,0.0,0.0,0.0,0.0,0.0,0.0,0.0,0.0,0.0,0.0,0.0,0.0,0.0,0.0,0.0,0.0,0.0,0.0,0.0,0.0,0.0,0.0,0.0,0.0,0.0,0.0,0.0,0.0,0.0,0.0,0.0,0.0,0.0,0.0,0.0,0.0,0.0,0.0,0.0,0.0,0.0,0.0,0.0,0.0,0.0,0.0,0.0,0.0,0.0,0.0,0.0,0.0,0.0,0.0,0.0,0.0,0.0,0.0,0.0,0.0,0.0,0.0,0.0,0.0,0.0,0.0,0.0,0.0,0.0,0.0,0.0,0.0,0.0,0.0,0.0,0.0,0.0,0.0,0.0,0.0,0.0,0.0,0.0,0.0,0.0,0.0,0.0,0.0,0.0,0.0,0.0,0.0,0.0,0.0,0.0,0.0,0.0,0.0,0.0,0.0,0.0,0.0,0.0,0.0,0.0,0.0,0.0,0.0,0.0,0.0,0.0,0.0,0.0,0.0,0.0,0.0,0.0,0.0,0.0,0.0,0.0,0.0,0.0,0.0,0.0,0.0,0.0,0.0,0.0,0.0,0.0,0.0,0.0,0.0,0.0,0.0,0.0,0.0,0.0,0.0,0.0,0.0,0.0,0.0,0.0,0.0,0.0,0.0,0.0,0.0,0.0,0.0,0.0,0.0,0.0,0.0,0.0,0.0,0.0,0.0,0.0,0.0,0.0,0.0,0.0,0.0,0.0,0.0,0.0,0.0,0.0,0.0,0.0,0.0,0.0,0.0,0.0,0.0,0.0,0.0,0.0,0.0,0.0,0.0,0.0,0.0,0.0,0.0,0.0,0.0,0.0,0.0,0.0,0.0,0.0,0.0,0.0,0.0,0.0,0.0,0.0,0.0,0.0,0.0,0.0,0.0,0.0,0.0,0.0,0.0,0.0,0.0,0.0,0.0,0.0,0.0,0.0,0.0,0.0,0.0,0.0,0.0,0.0,0.0,0.0,0.0,0.0,0.0,0.0,0.0,0.0,0.0,0.0,0.0,0.0,0.0,0.0,0.0,0.0,0.0,0.0,0.0,0.0,0.0,0.0,0.0,0.0,0.0,0.0,0.0,0.0,0.0,0.0,0.0,0.0,0.0,0.0,0.0,0.0,0.0,0.0,0.0,0.0,0.0,0.0,0.0,0.0,0.0,0.0,0.0,0.0,0.0,0.0,0.0,0.0,0.0,0.0,0.0,0.0,0.0,0.0,0.0,0.0,0.0,0.0,0.0,0.0,0.0,0.0,0.0,0.0,0.0,0.0,0.0,0.0,0.0,0.0,0.0,0.0,0.0,0.0,0.0,0.0,0.0,0.0,0.0,0.0,0.0,0.0,0.0,0.0,0.0,0.0,0.0,0.0,0.0,0.0,0.0,0.0,0.0,0.0,0.0,0.0,0.0,0.0,0.0,0.0,0.0,0.0,0.0,0.0,0.0,0.0,0.0,0.0,0.0,0.0,0.0,0.0,0.0,0.0,0.0,0.0,0.0,0.0,0.0,0.0,0.0,0.0,0.0,0.0,0.0,0.0,0.0,0.0,0.0,0.0,0.0,0.0,0.0,0.0,0.0,0.0,0.0,0.0,0.0,0.0,0.0,0.0,0.0,0.0,0.0,0.0,0.0,0.0,0.0,0.0,0.0,0.0,0.0,0.0,0.0,0.0,0.0,0.0,0.0,0.0,0.0,0.0,0.0,0.0,0.0,0.0,0.0,0.0,0.0,0.0,0.0,0.0,0.0,0.0,0.0,0.0,0.0,0.0,0.0,0.0,0.0,0.0,0.0,0.0,0.0,0.0,0.0,0.0,0.0,0.0,0.0,0.0,0.0,0.0,0.0,0.0,0.0,0.0,0.0,0.0,0.0,0.0,0.0,0.0,0.0,0.0,0.0,0.0,0.0,0.0,0.0,0.0,0.0,0.0,0.0,0.0,0.0,0.0,0.0,0.0,0.0,0.0,0.0,0.0,0.0,0.0,0.0,0.0,0.0,0.0,0.0,0.0,0.0,0.0,0.0,0.0,0.0,0.0,0.0,0.0,0.0,-2.2924,-2.2227,0.0,0.0,0.0,0.0,0.0,0.0,0.0,0.0,0.0,0.0,0.0,0.0,0.0,0.0,0.0,0.0,0.0,0.0,0.0,0.0,0.0,0.0,0.0,-2.0513,-2.084,-2.0462,-2.0431,-2.0562,-2.0793,-2.0136,0.0,0.0,0.0,0.0,-1.97,-2.0425,-2.081,-2.081,-2.081,-2.081,-2.0762,-1.9846,-1.9431,-1.9494,0.0,0.0,0.0,0.0,0.0,0.0,0.0,0.0,0.0,0.0,0.0,0.0,0.0,0.0,0.0,0.0,0.0,0.0,0.0,0.0,0.0,0.0,0.0,0.0,0.0,0.0,0.0,0.0,0.0,0.0,0.0,0.0,0.0,0.0,0.0,0.0,0.0,0.0,0.0,0.0,0.0,0.0,0.0,0.0,0.0,0.0,0.0,0.0,0.0,0.0,0.0,0.0,0.0,0.0,0.0,0.0,0.0,0.0,0.0,0.0,0.0,0.0,0.0,0.0,0.0,0.0,0.0,0.0,0.0,0.0,-2.4735,-2.4068,0.0,0.0,0.0,0.0,0.0,0.0,0.0,0.0,0.0,0.0,0.0,0.0,0.0,0.0,0.0,0.0,0.0,0.0,0.0,0.0,0.0,-2.2023,-2.0967,-2.206,-2.2528,-2.1631,-2.1535,-2.1552,-2.1638,-2.1445,-2.1301,-2.1301,-2.1301,-2.1301,-2.1301,-2.1542,-2.1638,-2.1638,-2.1638,-2.1638,-2.1686,-2.3051,-2.2985,-2.1638,-2.1397,0.0,0.0,0.0,0.0,0.0,0.0,0.0,0.0,0.0,0.0,0.0,0.0,0.0,0.0,0.0,0.0,0.0,0.0,0.0,0.0,0.0,0.0,0.0,0.0,0.0,0.0,0.0,0.0,0.0,0.0,0.0,0.0,0.0,0.0,0.0,0.0,0.0,0.0,0.0,0.0,0.0,0.0,0.0,0.0,0.0,0.0,0.0,0.0,0.0,0.0,0.0,0.0,0.0,0.0,0.0,0.0,0.0,0.0,0.0,0.0,0.0,0.0,0.0,-2.7012,-2.7012,-2.7012,-2.7012,-2.7012,-2.6973,-2.622,-2.5908,-2.5888,-2.5566,0.0,0.0,0.0,0.0,0.0,0.0,0.0,0.0,0.0,0.0,0.0,0.0,0.0,0.0,0.0,0.0,0.0,0.0,0.0,-2.3994,-2.3855,-2.4052,-2.4272,-2.4497,-2.4535,-2.4708,-2.5043,-2.3932,-2.3323,-2.3323,-2.3323,-2.3323,-2.3323,-2.444,-2.5063,-2.5063,-2.5063,-2.5063,-2.5063,-2.5266,-2.5266,-2.5014,-2.3834,-2.3323,-2.3224,0.0,0.0,0.0,0.0,0.0,0.0,0.0,0.0,0.0,0.0,0.0,0.0,0.0,0.0,0.0,0.0,0.0,0.0,0.0,0.0,0.0,0.0,0.0,0.0,0.0,0.0,0.0,0.0,0.0,0.0,0.0,0.0,0.0,0.0,0.0,0.0,0.0,0.0,0.0,0.0,0.0,-2.467,-2.5005,0.0,0.0,0.0,0.0,0.0,0.0,0.0,0.0,0.0,0.0,0.0,0.0,0.0,-2.7012,-2.7012,-2.7012,-2.7012,-2.7012,-2.7012,-2.7012,-2.7012,-2.7012,-2.7012,-2.7012,-2.6894,0.0,-2.6836,-2.6777,0.0,0.0,0.0,0.0,0.0,0.0,0.0,0.0,0.0,0.0,0.0,0.0,0.0,0.0,0.0,0.0,0.0,0.0,0.0,0.0,0.0,-2.5,-2.5234,-2.543,-2.5449,-2.5527,-2.5674,-2.5167,-2.4805,-2.4805,-2.51,-2.5213,-2.5213,-2.5797,-2.5977,-2.5693,-2.5977,-2.6094,-2.6113,-2.6348,-2.6415,-2.6395,-2.5824,-2.5308,-2.4805,-2.4196,0.0,0.0,0.0,0.0,0.0,0.0,0.0,0.0,0.0,0.0,0.0,0.0,0.0,0.0,0.0,0.0,0.0,0.0,0.0,0.0,0.0,0.0,0.0,0.0,0.0,0.0,0.0,0.0,0.0,0.0,0.0,0.0,0.0,0.0,0.0,0.0,0.0,0.0,0.0,-2.5536,-2.623,-2.6426,-2.6621,-2.6738,0.0,0.0,0.0,0.0,0.0,0.0,0.0,0.0,0.0,-2.7715,-2.7734,-2.7734,-2.7734,-2.7734,-2.7734,-2.7734,-2.7734,-2.7734,-2.7734,-2.7734,-2.7734,-2.7787,-2.8528,-2.8425,-2.7695,-2.7207,-2.7012,-2.6992,0.0,0.0,0.0,0.0,-2.6415,-2.6415,0.0,0.0,0.0,0.0,0.0,0.0,0.0,0.0,0.0,0.0,0.0,0.0,-2.5234,-2.5527,-2.5693,-2.5693,-2.5693,-2.5732,-2.5849,-2.5898,-2.5908,-2.6005,-2.6367,-2.6543,-2.6543,-2.6543,-2.6387,-2.6005,-2.6387,-2.6543,-2.6562,-2.6875,-2.7012,-2.7012,-2.7012,-2.666,-2.6005,-2.6005,-2.6005,-2.6005,0.0,0.0,0.0,0.0,0.0,0.0,0.0,0.0,0.0,0.0,0.0,0.0,0.0,0.0,0.0,0.0,0.0,0.0,0.0,0.0,0.0,0.0,0.0,0.0,0.0,0.0,0.0,0.0,0.0,0.0,0.0,0.0,0.0,0.0,0.0,0.0,0.0,-2.6816,-2.7012,-2.7012,-2.7109,-2.7187,0.0,0.0,0.0,0.0,0.0,0.0,-2.7812,-2.7832,-2.7969,-2.8281,-2.8398,-2.8457,-2.8457,-2.8555,-2.8613,-2.8613,-2.8613,-2.8829,-2.9186,-2.8775,-2.9025,-2.9786,-3.0297,-3.015,-2.9477,-2.8685,-2.8177,-2.7819,-2.7719,-2.766,-2.766,-2.7153,-2.7012,-2.7012,0.0,0.0,0.0,0.0,0.0,0.0,0.0,0.0,0.0,0.0,0.0,-2.5654,-2.5654,-2.5674,-2.5693,-2.5693,-2.5693,-2.5869,-2.6328,-2.6348,-2.6543,-2.6934,-2.6973,-2.6973,-2.6973,-2.6973,-2.6973,-2.6953,-2.6973,-2.6973,-2.6992,-2.7012,-2.7012,-2.7012,-2.7012,-2.6992,-2.6953,-2.6953,-2.6953,-2.6953,-2.6953,0.0,0.0,0.0,0.0,0.0,0.0,0.0,0.0,0.0,0.0,0.0,0.0,0.0,0.0,0.0,0.0,0.0,0.0,0.0,0.0,0.0,0.0,0.0,0.0,0.0,0.0,0.0,0.0,0.0,0.0,0.0,0.0,0.0,0.0,0.0,0.0,0.0,0.0,-2.7012,-2.7383,0.0,0.0,0.0,0.0,-2.8223,-2.8223,-2.8242,-2.8262,-2.8262,-2.8262,-2.8301,-2.8672,-2.8887,-2.8887,-2.9297,-2.9512,-2.9512,-2.9512,-3.0249,-3.1575,-3.0138,-3.1031,-3.3623,-3.1731,-3.1718,-3.2922,-3.2285,-3.1251,-3.0099,-2.9731,-2.9564,-2.937,-2.766,-2.7012,-2.7012,0.0,0.0,0.0,0.0,0.0,-2.5265,-2.5469,-2.5508,-2.5566,-2.5674,-2.5693,-2.5693,-2.5693,-2.5693,-2.5693,-2.5693,-2.5693,-2.5918,-2.6367,-2.6387,-2.6582,-2.6992,-2.7285,-2.7441,-2.7441,-2.7441,-2.7305,-2.7012,-2.7305,-2.7441,-2.7441,-2.7715,-2.7832,-2.7832,-2.7832,-2.7832,-2.7793,-2.7246,-2.7012,-2.7012,-2.7012,-2.7012,0.0,0.0,0.0,0.0,0.0,0.0,0.0,0.0,0.0,0.0,0.0,0.0,0.0,0.0,0.0,0.0,0.0,0.0,0.0,0.0,0.0,0.0,0.0,0.0,0.0,0.0,0.0,0.0,0.0,0.0,0.0,0.0,0.0,0.0,0.0,0.0,0.0,-2.7832,-2.7969,0.0,-2.8066,-2.8203,-2.8301,-2.8301,-2.8301,-2.8418,-2.8672,-2.8691,-2.8828,-2.9101,-2.9258,-2.9473,-2.9746,-2.9902,-3.0117,-3.043,-3.043,-3.0539,-3.073,-3.0243,-3.0959,-3.2588,-3.2734,-3.3121,-3.3831,-3.5381,-3.4233,-3.1549,-3.1447,-3.1381,-3.1308,-3.0629,-3.0413,-3.0282,0.0,0.0,0.0,-2.5693,-2.5693,-2.5693,-2.5693,-2.6062,-2.6207,-2.5791,-2.6062,-2.6207,-2.5742,-2.5693,-2.5752,-2.5937,-2.5957,-2.6211,-2.6777,-2.7251,-2.75,-2.7422,-2.7715,-2.7871,-2.7871,-2.7871,-2.7734,-2.7441,-2.7734,-2.7871,-2.7943,-2.8164,-2.8301,-2.8301,-2.8301,-2.8301,-2.8262,-2.7695,-2.7441,-2.7441,-2.7441,-2.7441,-2.7441,0.0,0.0,0.0,0.0,0.0,0.0,0.0,0.0,0.0,0.0,0.0,0.0,0.0,0.0,0.0,0.0,0.0,0.0,0.0,0.0,0.0,0.0,0.0,0.0,0.0,0.0,0.0,0.0,0.0,0.0,0.0,0.0,0.0,0.0,-2.8125,-2.8441,-2.89,-2.8601,-2.8554,-2.9173,-2.9226,-2.9287,-2.9501,-2.9501,-2.9647,-3.0068,-3.0143,-3.0087,-3.0057,-3.1228,-3.1451,-3.0644,-3.1341,-3.156,-3.1328,-3.1878,-3.2203,-3.2395,-3.2452,-3.3394,-3.5012,-3.5047,-3.5363,-3.602,-3.7417,-3.6528,-3.414,-3.3503,-3.3192,-3.2955,-3.2482,-3.228,-3.218,0.0,-2.5693,-2.5693,-2.5693,-2.5693,-2.5693,-2.5693,-2.6764,-2.7078,-2.5868,-2.6744,-2.7078,-2.582,-2.5693,-2.5869,-2.6348,-2.6406,-2.6808,-2.7702,-2.8962,-2.925,-2.8335,-2.8301,-2.8301,-2.8301,-2.8301,-2.8301,-2.8301,-2.8301,-2.8301,-2.8301,-2.8301,-2.8301,-2.8301,-2.8301,-2.8301,-2.8301,-2.8301,-2.8301,-2.8301,-2.8301,-2.8301,-2.8301,0.0,0.0,0.0,0.0,0.0,0.0,0.0,0.0,0.0,0.0,0.0,0.0,0.0,0.0,0.0,0.0,0.0,0.0,0.0,0.0,0.0,0.0,0.0,0.0,0.0,0.0,0.0,0.0,0.0,0.0,0.0,0.0,0.0,-2.8601,-2.8441,-2.89,-3.0224,-2.9217,-2.9153,-3.0946,-3.1148,-3.1391,-3.1855,-3.1897,-3.2108,-3.2496,-3.2649,-3.2209,-3.1132,-3.451,-3.4883,-3.1741,-3.3646,-3.3873,-3.2409,-3.3932,-3.5343,-3.671,-3.6859,-3.8521,-4.1118,-3.8621,-3.8396,-3.9647,-3.8542,-3.8065,-3.7891,-3.601,-3.496,-3.4335,-3.2978,-3.2404,-3.2381,-2.5693,-2.5693,-2.5693,-2.5693,-2.5693,-2.5693,-2.5693,-2.6014,-2.611,-2.5742,-2.6014,-2.611,-2.5742,-2.6016,-2.625,-2.6387,-2.666,-2.7509,-2.9075,-2.8603,-2.8252,-2.8281,-2.8301,-2.8301,-2.8301,-2.8301,-2.8301,-2.8301,-2.8301,-2.8301,-2.8301,-2.8301,-2.8301,-2.8301,-2.8301,-2.8301,-2.8301,-2.8301,-2.8301,-2.8301,-2.8301,-2.8301,-2.8301,0.0,0.0,0.0,0.0,0.0,0.0,0.0,0.0,0.0,0.0,0.0,0.0,0.0,0.0,0.0,0.0,0.0,0.0,0.0,0.0,0.0,0.0,0.0,0.0,0.0,0.0,0.0,0.0,0.0,0.0,0.0,-3.1133,-3.1622,-3.1265,-3.1235,-3.1519,-3.2332,-3.2066,-3.2189,-3.3069,-3.3551,-3.387,-3.4003,-3.4336,-3.4736,-3.5168,-3.5268,-3.5266,-3.5236,-3.664,-3.7121,-3.6535,-3.7434,-3.7676,-3.7154,-3.7577,-3.7621,-3.734,-3.7398,-3.825,-3.9654,-3.8957,-3.9515,-4.0827,-4.0124,-3.9597,-3.9069,-3.7742,-3.7122,-3.6949,-3.6137,-3.499,-3.3822,-2.5693,-2.5693,-2.5693,-2.5693,-2.5693,-2.5693,-2.5693,-2.6159,-2.6284,-2.5791,-2.6159,-2.6363,-2.6045,-2.623,-2.6543,-2.6894,-2.7148,-2.7823,-2.9053,-2.8383,-2.8292,-2.9092,-2.8601,-2.8301,-2.8301,-2.8301,-2.8301,-2.8301,-2.8301,-2.8301,-2.8301,-2.8301,-2.8301,-2.8301,-2.8301,-2.8301,-2.8301,-2.8301,-2.8301,-2.8301,-2.8301,-2.8301,-2.8301,-2.8301,-2.8301,-2.8301,-2.8301,-2.8301,-2.8301,-2.8301,0.0,0.0,0.0,0.0,0.0,0.0,0.0,0.0,0.0,0.0,0.0,0.0,0.0,0.0,0.0,0.0,0.0,0.0,0.0,0.0,0.0,0.0,0.0,0.0,-3.2864,-3.3704,-3.4252,-3.3403,-3.3169,-3.4567,-3.422,-3.4388,-3.5679,-3.611,-3.6441,-3.6595,-3.7136,-3.7646,-3.8099,-3.8387,-3.839,-3.8168,-3.9803,-4.0141,-3.9047,-4.0028,-4.0106,-3.9376,-4.0068,-4.0071,-3.9554,-3.9989,-4.0535,-4.1038,-4.0574,-4.0868,-4.163,-4.1078,-4.0676,-4.0249,0.0,0.0,0.0,0.0,-3.6725,-3.5551,-2.5693,-2.5693,-2.5693,-2.5693,-2.5693,-2.5693,-2.5693,-2.6668,-2.7003,-2.5947,-2.6729,-2.7201,-2.6556,-2.6504,-2.6836,-2.765,-2.7767,-2.7891,-2.8262,-2.8441,-2.9006,-3.0016,-2.8953,-2.8301,-2.8301,-2.8301,-2.8301,-2.8301,-2.8301,-2.8301,-2.8301,-2.8301,-2.8301,-2.8301,-2.8301,-2.8301,-2.8301,-2.8301,-2.8301,-2.8301,-2.8301,-2.8301,-2.8301,-2.8301,-2.8301,-2.8301,-2.8301,-2.8301,-2.8301,-2.8301,0.0,0.0,0.0,0.0,0.0,0.0,0.0,0.0,0.0,0.0,0.0,0.0,0.0,0.0,0.0,0.0,0.0,0.0,0.0,0.0,0.0,0.0,0.0,0.0,-3.5083,-3.5963,-3.7291,-3.5458,-3.4716,-3.6876,-3.6104,-3.6256,-3.8401,-3.8833,-3.9176,-3.9522,-4.0178,-4.065,-4.1047,-4.1643,0.0,0.0,0.0,-4.3354,-4.0571,-4.2003,-4.2003,-4.0571,-4.1956,-4.2616,-4.2604,-4.3457,-4.389,-4.384,-4.2841,-4.2389,-4.2338,-4.1681,-4.1351,-4.1125,-3.9647,-3.8668,-3.809,-3.809,-3.7764,-3.7287,-2.5693,-2.5693,-2.5693,-2.5693,-2.5693,-2.5693,-2.5693,-2.5917,-2.6084,-2.626,-2.6498,-2.6705,-2.6855,-2.7207,-2.7532,-2.7708,-2.7969,-2.8203,-2.8281,-2.9303,-2.9565,-2.8688,-2.8441,-2.8301,-2.8301,-2.8301,-2.8301,-2.8301,-2.8301,-2.8301,-2.8301,-2.8301,-2.8301,-2.8301,-2.8301,-2.8301,-2.8301,-2.8301,-2.8301,-2.8301,-2.8301,-2.8301,-2.8301,-2.8301,-2.8301,-2.8301,-2.8301,-2.8301,-2.8301,-2.8301,-2.8301,-2.8301,-2.8301,-2.8301,0.0,0.0,0.0,0.0,0.0,0.0,0.0,0.0,0.0,0.0,0.0,0.0,0.0,0.0,0.0,0.0,0.0,0.0,0.0,-3.503,-3.6381,-3.7842,-3.9019,-3.8786,-3.863,-3.9059,-3.93,-3.9766,-4.0649,-4.1574,-4.2177,-4.2221,-4.3166,-4.3763,-4.3805,-4.3987,-4.3912,-4.3693,-4.4752,-4.5001,-4.4442,-4.5126,-4.5126,-4.4442,-4.4764,0.0,-4.4128,-4.4344,-4.4468,-4.4418,-4.3765,-4.3489,-4.3413,-4.2409,-4.1731,-4.12,-4.0501,-3.9597,-3.8718,-3.8718,-3.8341,-3.7839,-2.5577,-2.5693,-2.5693,-2.5693,-2.5693,-2.5693,-2.5693,-2.5918,-2.6133,-2.6367,-2.6562,-2.6875,-2.7285,-2.7539,-2.7806,-2.7969,-2.8164,-2.8301,-2.8301,-2.8953,-2.9006,-2.8354,-2.8301,-2.8301,-2.8301,-2.8301,-2.8301,-2.8301,-2.8301,-2.8301,-2.8301,-2.8301,-2.8301,-2.8301,-2.8301,-2.8301,-2.8301,-2.8301,-2.8301,-2.8301,-2.8301,-2.8301,-2.8301,-2.8301,-2.8301,-2.8301,-2.8301,-2.8301,-2.8301,-2.8301,-2.8301,-2.8301,-2.8301,-2.8741,-2.9303,0.0,0.0,0.0,0.0,0.0,0.0,0.0,0.0,0.0,0.0,0.0,0.0,0.0,0.0,-3.4521,-3.385,0.0,-3.6603,-3.6603,-3.7866,-3.9044,-3.9622,-4.04,-4.0927,-4.0927,-4.1178,-4.1656,-4.2484,-4.3062,-4.3514,-4.379,-4.4568,-4.5045,-4.5045,-4.5321,-4.5472,-4.5472,-4.5748,-4.5899,-4.5899,-4.6175,-4.6175,-4.5899,-4.5899,-4.5748,-4.5447,-4.5171,-4.5045,-4.502,-4.4468,-4.4066,-4.374,-4.2911,-4.2233,-4.1731,-4.1455,-4.0651,-3.9672,-3.9371,-3.8919,-3.8442,-2.543,-2.5693,-2.5693,-2.5693,-2.5693,-2.5693,-2.5693,-2.6113,-2.6426,-2.6504,-2.6875,-2.7305,-2.7787,-2.7845,-2.793,-2.8262,-2.8301,-2.8301,-2.8301,-2.8301,-2.8301,-2.8301,-2.8301,-2.8301,-2.8301,-2.8301,-2.8301,-2.8301,-2.8301,-2.8301,-2.8301,-2.8301,-2.8301,-2.8301,-2.8301,-2.8301,-2.8301,-2.8301,-2.8301,-2.8301,-2.8301,-2.8301,-2.8301,-2.8301,-2.8301,-2.8354,-2.8601,-2.8708,-2.8741,-2.9006,-2.9059,-2.9059,-2.9059,-2.9807,-3.0669,-3.0669,-3.1622,0.0,0.0,0.0,0.0,0.0,0.0,0.0,0.0,0.0,-3.5911,-3.3691,-3.5427,-3.7045,-3.5938,-3.7072,-3.8216,-3.8316,-3.9195,-3.9923,-4.0149,-4.1358,-4.2288,-4.2514,-4.2539,-4.2866,-4.3714,-4.3991,-4.4317,-4.4744,-4.5321,-4.5648,-4.5648,-4.6175,-4.6476,-4.6476,-4.6577,-4.6627,-4.6627,-4.6627,-4.6577,-4.6476,-4.6476,-4.6426,-4.6301,-4.5849,-4.5648,-4.5623,-4.5045,-4.4418,-4.3765,-4.3313,-4.2811,-4.2363,-4.2263,-4.1605,-4.0752,-4.0099,-3.9496,-3.907,-2.543,-2.5693,-2.5693,-2.5693,-2.5693,-2.5693,-2.5693,-2.6113,-2.6523,-2.6894,-2.7324,-2.7754,-2.8184,-2.8223,-2.8242,-2.8281,-2.8301,-2.8301,-2.8301,-2.8301,-2.8301,-2.8301,-2.8301,-2.8301,-2.8301,-2.8301,-2.8301,-2.8301,-2.8301,-2.8301,-2.8301,-2.8301,-2.8301,-2.8301,-2.8301,-2.8301,-2.8301,-2.8301,-2.8301,-2.8301,-2.8301,-2.8301,-2.8301,-2.8301,-2.8301,-2.8441,-2.967,-3.0068,-3.0276,-3.1469,-3.1825,-3.1825,-3.1825,-3.1977,-3.2079,-3.2079,-3.3055,-3.419,-3.419,-3.5017,-3.5953,-3.5953,-3.6048,-3.6168,0.0,0.0,-3.7038,-3.6722,-3.7317,-3.7865,-3.7717,-3.8291,-3.8944,-3.9421,-4.0023,-4.0752,-4.181,-4.2087,-4.2564,-4.3489,-4.3614,-4.3664,-4.379,-4.4719,-4.5321,-4.5372,-4.5899,-4.6225,-4.6225,-4.6753,-4.6993,-4.6993,-4.7481,-4.7732,-4.7732,-4.7732,-4.7506,-4.6993,-4.6993,-4.6778,-4.6301,-4.625,-4.6225,-4.6175,-4.5623,-4.4794,-4.379,-4.374,-4.3388,-4.2836,-4.2414,-4.2137,-4.1911,-4.0802,-4.0074,-3.9597,-2.4245,-2.5167,-2.5693,-2.5693,-2.5693,-2.5771,-2.6074,-2.6484,-2.6914,-2.7344,-2.7773,-2.8105,-2.8281,-2.8301,-2.8301,-2.8301,-2.8301,-2.8301,-2.8301,-2.8301,-2.8301,-2.8301,-2.8301,-2.8301,-2.8301,-2.8301,-2.8301,-2.8301,-2.8301,-2.8301,-2.8301,-2.8301,-2.8301,-2.8301,-2.8301,-2.8301,-2.8301,-2.8301,-2.8301,-2.8301,-2.8301,-2.8301,-2.8388,-2.9144,-2.946,-2.9565,-3.012,-3.0824,0.0,-3.2129,-3.228,-3.228,-3.228,-3.2855,-3.3502,-3.3502,-3.4508,0.0,-3.5571,-3.5953,-3.6405,0.0,-3.6656,-3.6883,-3.6883,-3.7262,-3.7663,-3.7663,-3.8115,-3.8517,-3.8517,-3.9245,-3.9898,0.0,-4.0902,-4.1685,-4.2137,-4.2766,-4.3288,-4.374,-4.4392,-4.4769,-4.4769,-4.5221,-4.5623,-4.5949,-4.6175,-4.6451,-4.6778,-4.7004,-4.728,-4.7581,-4.7782,-4.7908,-4.7908,-4.7908,-4.7807,-4.7581,-4.728,-4.7004,-4.6778,-4.6451,-4.6301,-4.6276,-4.5723,-4.502,-4.4242,-4.394,-4.3463,-4.2961,-4.2766,-4.2489,-4.2112,-4.1279,-4.0651,-4.0174,-2.3949,-2.502,-2.5693,-2.5693,-2.5791,-2.6016,-2.6348,-2.6855,-2.7305,-2.7669,-2.8027,-2.8301,-2.8301,-2.8301,-2.8301,-2.8301,-2.8301,-2.8301,-2.8301,-2.8301,-2.8301,-2.8301,-2.8301,-2.8301,-2.8301,-2.8301,-2.8301,-2.8301,-2.8301,-2.8301,-2.8301,-2.8301,-2.8301,-2.8301,-2.8301,-2.8301,-2.8301,-2.8301,-2.8301,-2.8301,-2.8301,-2.8301,-2.8388,-2.9355,-3.0224,-3.0927,-3.1286,-3.2028,-3.2955,-3.3281,-3.3429,-3.3429,-3.3429,-3.4142,-3.4921,-3.4921,-3.5619,-3.6405,-3.6405,0.0,0.0,-3.6631,-3.701,-3.7412,-3.7412,-3.7839,-3.8241,-3.8241,-3.8693,-3.9145,-3.9295,-3.9973,-4.0626,-4.0927,-4.163,-4.2263,-4.2414,-4.3212,-4.3865,-4.4016,-4.4895,-4.5547,-4.5698,-4.5723,-4.5874,-4.6276,-4.6451,-4.6702,-4.7043,-4.7431,-4.7757,-4.8134,-4.8284,-4.8385,-4.8385,-4.8385,-4.8284,-4.8134,-4.7757,-4.7431,-4.7043,-4.6552,-4.6301,-4.6276,-4.5899,-4.5397,-4.4819,-4.4267,-4.3689,-4.3187,-4.3037,-4.2791,-4.2389,-4.1932,-4.1354,-4.0727,-2.5118,-2.5693,-2.5693,-2.5693,-2.6094,-2.6367,-2.6387,-2.7161,-2.7708,-2.7728,-2.8027,-2.8301,-2.8301,-2.8301,-2.8301,-2.8301,-2.8301,-2.8301,-2.8301,-2.8301,-2.8301,-2.8301,-2.8301,-2.8301,-2.8301,-2.8301,-2.8301,-2.8301,-2.8301,-2.8301,-2.8301,-2.8301,-2.8301,-2.8301,-2.8301,-2.8301,-2.8301,-2.8301,-2.8301,-2.8301,-2.8301,-2.8301,-2.8301,-2.8354,-2.9964,-3.2431,-3.3773,-3.4288,-3.4532,-3.581,-3.6263,-3.6263,-3.6263,-3.631,0.0,-3.6358,-3.6358,-3.6405,-3.6405,-3.6807,-3.7161,-3.7161,-3.7563,-3.799,-3.799,-3.8442,-3.8894,-3.8894,-3.927,-3.9823,-4.0375,-4.0501,-4.0852,-4.1986,-4.2187,-4.2389,-4.2886,-4.3438,-4.3991,-4.4543,-4.5121,-4.5698,0.0,-4.6276,-4.6301,-4.6301,-4.6803,-4.7043,-4.7068,-4.8134,-4.8736,-4.8736,-4.9264,-4.954,-4.954,-4.954,-4.9264,-4.8736,-4.8736,-4.8159,-4.7043,-4.6552,-4.6301,-4.6301,-4.6301,-4.5974,-4.5422,-4.4844,-4.4267,-4.3714,-4.3187,-4.2961,-4.2961,-4.2936,-4.2233,-4.1175,-2.3998,-2.5069,-2.5771,-2.6113,-2.6523,-2.6894,-2.7187,-2.7532,-2.7826,-2.8047,-2.8203,0.0,0.0,0.0,0.0,0.0,-2.8301,-2.8301,-2.8301,-2.8301,-2.8301,-2.8301,-2.8301,-2.8301,-2.8301,-2.8301,-2.8301,-2.8301,-2.8301,-2.8301,-2.8301,-2.8301,-2.8301,-2.8301,-2.8301,-2.8301,-2.8301,-2.8301,-2.8301,-2.8301,-2.8301,-2.8301,-2.8495,-3.0276,-3.152,-3.2582,0.0,-3.5715,-3.581,-3.6263,-3.6405,-3.6405,-3.6405,-3.6405,0.0,-3.6405,-3.6405,-3.648,-3.6857,-3.7036,-3.7287,-3.7638,-3.8165,-3.8567,-3.8567,-3.9019,-3.9421,-3.9421,-3.9848,-4.03,-4.0475,-4.1103,-4.1785,-4.2162,-4.2514,-4.2886,-4.3438,-4.3991,-4.4568,-4.5121,-4.5698,0.0,0.0,0.0,0.0,-4.6301,-4.6828,-4.728,-4.7631,-4.836,-4.8937,-4.9314,-4.949,-4.959,-4.959,-4.959,-4.9515,-4.9314,-4.856,-4.7832,-4.7043,-4.6552,-4.6301,-4.6301,-4.6301,-4.5999,-4.5447,-4.4869,-4.4292,-4.374,-4.3187,-4.2986,-4.2986,-4.2986,-4.2735,-4.2333,0.0,-2.4412,-2.5252,-2.6209,-2.6738,0.0,0.0,0.0,0.0,0.0,0.0,0.0,0.0,0.0,0.0,0.0,0.0,-2.8301,-2.8301,-2.8301,-2.8301,-2.8301,-2.8301,-2.8301,-2.8301,-2.8301,-2.8301,-2.8301,-2.8301,-2.8301,-2.8301,-2.8301,-2.8301,-2.8301,-2.8301,-2.8301,-2.8301,-2.8301,-2.8301,-2.8335,-2.8794,-2.9006,-2.925,-3.1469,-3.2582,0.0,-3.5066,-3.6026,-3.6405,-3.6405,-3.6405,-3.6405,-3.6405,-3.6531,0.0,-3.6707,-3.6832,-3.7036,-3.7387,-3.7638,-3.7864,-3.8241,-3.8743,-3.917,-3.917,-3.9446,-3.9697,-3.9697,-4.0124,-4.0576,-4.0777,-4.1555,-4.2263,-4.2464,-4.2816,-4.3162,-4.3714,-4.4267,-4.4844,-4.5422,-4.5974,-4.6301,0.0,0.0,0.0,-4.6602,-4.7104,-4.7657,-4.8184,-4.8761,-4.9213,-4.959,-4.959,-4.959,-4.959,-4.959,-4.959,-4.959,-4.8435,-4.7732,-4.738,-4.6652,-4.6301,-4.6301,-4.6301,-4.61,-4.5723,-4.4945,-4.4418,-4.4016,-4.3263,-4.2986,-4.2986,-4.2986,-4.2986,-4.2886,0.0,0.0,-2.4275,0.0,0.0,0.0,0.0,0.0,0.0,0.0,0.0,0.0,0.0,0.0,0.0,0.0,0.0,0.0,-2.8301,-2.8301,-2.8301,-2.8301,-2.8301,-2.8301,-2.8301,-2.8388,-2.8388,-2.8388,-2.8388,-2.8441,-2.8495,-2.8335,-2.8388,-2.8495,-2.8441,-2.8441,-2.8495,-2.8495,-2.8495,-2.8601,-2.9911,-3.0411,-3.0566,-3.1876,-3.3254,-3.4434,-3.4483,-3.5331,-3.6405,-3.6405,-3.6405,-3.6405,-3.6405,0.0,0.0,0.0,-3.7563,-3.8015,-3.804,-3.8442,-3.8919,-3.8944,-3.9295,-3.9697,-3.9697,-3.9697,-3.9697,-3.9722,-4.0174,-4.0727,0.0,0.0,-4.2414,-4.2886,-4.2986,-4.3187,-4.3765,-4.4292,-4.4844,0.0,0.0,0.0,0.0,0.0,0.0,-4.7143,-4.7682,-4.8184,-4.8736,-4.9289,-4.959,-4.959,-4.959,-4.959,-4.959,-4.959,-4.959,-4.959,-4.8435,-4.7908,-4.7883,-4.6803,-4.6301,-4.6301,-4.6301,-4.6301,-4.6225,-4.5121,-4.4644,-4.4518,-4.3438,-4.3011,-4.2986,-4.2986,-4.2986,-4.2911,0.0,0.0,0.0,0.0,0.0,0.0,0.0,0.0,0.0,0.0,0.0,0.0,0.0,0.0,0.0,0.0,0.0,0.0,-2.8301,-2.8301,-2.8301,-2.8301,-2.8301,-2.8301,-2.8301,-2.9303,-2.9807,-2.9807,-2.9807,-3.0307,-3.1214,-2.927,-2.9355,-3.1214,-3.0224,-3.0307,-3.1265,-3.1265,-3.1265,-3.1316,-3.1622,-3.1774,-3.1927,-3.3304,-3.4068,-3.4532,-3.5523,-3.6121,-3.6405,-3.6405,0.0,0.0,0.0,-3.6782,-3.7186,0.0,0.0,-3.809,-3.8542,-3.8768,-3.902,-3.9371,-3.9597,-3.9697,-3.9697,-3.9697,-3.9798,-4.0224,-4.0752,-4.1304,0.0,0.0,0.0,-4.2961,-4.2986,0.0,-4.4267,-4.4543,0.0,-4.5974,0.0,-4.6476,-4.6878,-4.6993,0.0,0.0,-4.8485,-4.8611,-4.8761,-4.9289,-4.959,-4.959,-4.959,-4.959,-4.959,-4.959,-4.959,-4.959,-4.8435,-4.7908,-4.7883,-4.6803,-4.6301,-4.6301,-4.6301,-4.6301,-4.625,-4.5547,-4.502,-4.4543,-4.3865,-4.3338,-4.2986,-4.2986,-4.2986,-4.2961,0.0,0.0,0.0,0.0,0.0,0.0,0.0,0.0,0.0,0.0,0.0,0.0,0.0,0.0,0.0,0.0,0.0,0.0,0.0,-2.8301,-2.8301,-2.8301,-2.8301,-2.8301,-2.8301,-2.9059,-2.9408,-2.9408,-3.0016,-3.0669,-3.1367,-3.0463,-3.0876,-3.228,-3.152,-3.1571,-3.228,-3.228,-3.228,0.0,0.0,-3.3204,-3.3353,-3.4775,-3.5283,-3.5379,-3.6121,-3.6405,-3.6455,0.0,0.0,-3.6782,-3.6782,-3.7335,-3.7914,-3.7914,0.0,-3.8818,-3.9145,-3.922,-3.9295,-3.9622,-3.9697,-3.9747,-3.9998,-4.0049,-4.0199,-4.0752,-4.1304,0.0,-4.2162,-4.2665,0.0,0.0,0.0,0.0,-4.4468,-4.4618,-4.5045,0.0,-4.6527,0.0,-4.7043,-4.7581,-4.8109,0.0,-4.8761,-4.8887,-4.9113,-4.9439,-4.959,-4.959,-4.959,-4.959,-4.959,-4.959,-4.959,-4.959,-4.8711,-4.8159,-4.7883,-4.7054,-4.6552,-4.6301,-4.6301,-4.6301,-4.6276,-4.5723,-4.5146,-4.4568,-4.4016,-4.3463,-4.2986,-4.2986,-4.2986,-4.2986,0.0,0.0,0.0,0.0,0.0,0.0,0.0,0.0,0.0,0.0,-2.8301,-2.8301,0.0,0.0,0.0,0.0,0.0,0.0,0.0,0.0,-2.8301,-2.8301,-2.8301,-2.8301,-2.8301,-2.8441,-2.8548,-2.8548,-2.9702,-3.0359,-3.0566,-3.1571,-3.223,-3.2582,-3.2582,-3.2682,-3.2833,-3.2833,-3.2833,-3.2932,-3.4166,-3.4678,-3.4775,0.0,-3.6405,-3.6405,-3.6405,-3.6455,-3.6581,0.0,-3.7186,-3.7186,-3.7262,-3.8015,-3.8919,-3.8919,-3.927,-3.9697,-3.9697,-3.9697,-3.9697,-3.9697,-3.9697,-3.9848,-4.04,-4.0526,-4.0701,-4.1304,0.0,-4.2238,-4.2313,-4.2715,-4.2986,-4.2986,0.0,-4.3363,-4.4468,-4.4618,-4.507,-4.6276,-4.6853,-4.7143,-4.733,-4.8209,-4.8812,-4.8887,-4.8887,-4.9088,-4.9565,-4.959,-4.959,-4.959,-4.959,-4.959,-4.959,-4.959,-4.959,-4.959,-4.9038,-4.846,-4.7883,-4.738,-4.6828,-4.6301,-4.6301,-4.6301,-4.6276,-4.5799,-4.5221,-4.4568,-4.4091,-4.3539,-4.2986,-4.2986,-4.2986,-4.2986,0.0,0.0,0.0,0.0,0.0,0.0,0.0,0.0,0.0,0.0,-2.8301,-2.8301,0.0,0.0,0.0,0.0,0.0,0.0,0.0,0.0,0.0,-2.8301,-2.8301,-2.8301,-2.8301,-2.9408,-2.9964,-2.9964,-3.0172,-3.0876,-3.1927,-3.1081,-3.1847,-3.4019,-3.4019,-3.4654,-3.569,-3.569,-3.569,-3.5715,-3.5953,-3.6048,-3.6073,-3.631,0.0,0.0,-3.6405,-3.6707,-3.7109,-3.7161,-3.7186,-3.7262,-3.7713,-3.8341,-3.8919,-3.8919,-3.927,-3.9697,-3.9697,-3.9697,-3.9697,-3.9697,-3.9697,-3.9848,-4.04,-4.0526,0.0,0.0,-4.2137,-4.2363,-4.2816,-4.2911,-4.2986,-4.2986,-4.2986,-4.3363,0.0,0.0,-4.5221,0.0,0.0,0.0,0.0,-4.8661,0.0,0.0,-4.9464,-4.949,-4.959,-4.959,-4.959,-4.959,-4.959,-4.959,-4.959,-4.959,-4.959,-4.959,-4.9038,-4.846,-4.7883,-4.738,-4.6828,-4.6301,-4.6301,-4.6301,-4.6301,-4.62,-4.5547,-4.4618,-4.4518,-4.3865,-4.2986,-4.2986,-4.2986,-4.2986,0.0,0.0,0.0,0.0,0.0,0.0,0.0,-2.8301,-2.8301,-2.8301,-2.8301,-2.8301,-2.8301,-2.8301,-2.8301,0.0,0.0,0.0,0.0,0.0,0.0,-2.8301,-2.8301,-2.8301,-2.8301,-2.8953,-2.925,-2.925,0.0,-3.0618,-3.1286,-3.1338,-3.2028,-3.3304,-3.3304,-3.4068,-3.5379,-3.5379,-3.5763,-3.6405,-3.6405,-3.6405,-3.6405,0.0,0.0,0.0,0.0,0.0,-3.7236,-3.7513,-3.7814,-3.8115,-3.8366,-3.8843,-3.9295,-3.9295,-3.9496,-3.9697,-3.9697,-3.9697,-3.9697,-3.9697,-3.9898,-4.0275,-4.0774,0.0,0.0,0.0,-4.264,-4.266,-4.2936,-4.2986,0.0,-4.3363,-4.3162,0.0,0.0,0.0,0.0,0.0,0.0,0.0,0.0,-4.9038,-4.9314,-4.9565,-4.959,-4.959,-4.959,-4.959,-4.959,-4.959,-4.959,-4.959,-4.959,-4.959,-4.959,-4.959,-4.9314,-4.8736,-4.7908,-4.7657,-4.7079,-4.6301,-4.6301,-4.6301,-4.6301,-4.6301,-4.5824,-4.5045,-4.4744,-4.4116,-4.3363,-4.3087,-4.2986,-4.2986,0.0,0.0,0.0,0.0,0.0,0.0,-2.8301,-2.8301,-2.8301,-2.8301,-2.8301,-2.8301,-2.8301,-2.8301,-2.8301,0.0,0.0,0.0,0.0,0.0,0.0,0.0,0.0,0.0,0.0,0.0,0.0,0.0,-2.9355,0.0,0.0,0.0,0.0,0.0,-3.218,-3.2905,-3.397,-3.4288,-3.5017,0.0,0.0,-3.6405,0.0,0.0,0.0,0.0,0.0,0.0,-3.7437,-3.8015,-3.8567,-3.9095,-3.9095,-3.9346,-3.9697,-3.9697,-3.9697,-3.9697,-3.9697,-3.9697,-3.9722,-3.9848,-4.0199,-4.0701,-4.1354,-4.1856,0.0,-4.2861,-4.2986,-4.2986,-4.2986,-4.2986,-4.3162,0.0,-4.3438,-4.3714,0.0,0.0,0.0,0.0,0.0,0.0,0.0,-4.9339,0.0,-4.959,-4.959,-4.959,-4.959,-4.959,-4.959,-4.959,-4.959,-4.959,-4.959,-4.959,-4.959,-4.959,-4.959,-4.9012,-4.7908,-4.7908,-4.733,-4.6301,-4.6301,-4.6301,-4.6301,-4.6301,-4.5974,-4.5422,-4.4844,-4.4292,-4.374,-4.3187,-4.2986,-4.2986,0.0,0.0,0.0,0.0,0.0,0.0,-2.8301,-2.8301,-2.8301,-2.8301,-2.8301,-2.8301,-2.8301,-2.8301,-2.8301,0.0,0.0,0.0,0.0,0.0,0.0,0.0,0.0,0.0,0.0,0.0,0.0,0.0,0.0,0.0,0.0,0.0,0.0,0.0,0.0,0.0,-3.2582,-3.3871,0.0,0.0,0.0,0.0,0.0,0.0,0.0,0.0,0.0,0.0,0.0,0.0,0.0,-3.9622,-3.9622,-3.9647,-3.9697,-3.9697,0.0,0.0,-3.9697,-3.9697,-3.9823,-4.0325,-4.0475,-4.0802,-4.1886,0.0,0.0,-4.2861,-4.2986,-4.2986,-4.2986,-4.2986,-4.3162,-4.3714,-4.3765,-4.4141,0.0,0.0,0.0,0.0,0.0,0.0,0.0,-4.9565,-4.959,-4.959,-4.959,-4.959,-4.959,-4.959,-4.959,-4.959,-4.959,-4.959,-4.959,-4.959,-4.959,-4.959,-4.959,-4.9012,-4.7908,-4.7908,-4.733,-4.6301,-4.6301,-4.6301,-4.6301,-4.6301,-4.5974,-4.5422,-4.4844,-4.4292,-4.374,-4.3187,-4.2986,-4.2986,0.0,0.0,0.0,0.0,0.0,0.0,-2.8301,-2.8301,-2.8301,-2.8301,-2.8301,-2.8301,-2.8301,-2.8301,-2.8301,-2.8301,-2.8301,0.0,0.0,0.0,0.0,0.0,0.0,0.0,0.0,0.0,-2.8301,-2.8301,-2.8301,0.0,0.0,0.0,0.0,0.0,0.0,0.0,0.0,0.0,0.0,0.0,0.0,0.0,0.0,0.0,0.0,0.0,0.0,0.0,0.0,0.0,0.0,0.0,-3.9697,-3.9697,0.0,0.0,-3.9697,-3.9697,-3.9697,-3.9697,-3.9823,-4.0375,-4.0752,-4.1204,-4.2037,0.0,-4.271,-4.2992,-4.2986,-4.2986,-4.2986,-4.3237,-4.3664,-4.4192,-4.4292,-4.4694,-4.5824,0.0,0.0,0.0,0.0,0.0,0.0,0.0,-4.959,-4.959,-4.959,-4.959,-4.959,-4.959,-4.959,-4.959,-4.959,-4.959,-4.959,-4.959,-4.959,-4.959,-4.959,-4.9012,-4.7908,-4.7908,-4.733,-4.6301,-4.6301,-4.6301,-4.6301,-4.6301,-4.6175,-4.5899,-4.497,-4.4493,-4.4192,-4.3313,-4.2986,-4.2849,0.0,0.0,0.0,0.0,0.0,-2.8301,-2.8301,-2.8301,-2.8301,-2.8301,-2.8301,-2.8301,-2.8301,-2.8301,-2.8301,-2.8301,-2.8301,0.0,0.0,0.0,0.0,0.0,0.0,0.0,0.0,0.0,-2.8301,-2.8301,-2.8301,-2.8301,0.0,0.0,0.0,0.0,0.0,0.0,0.0,0.0,0.0,0.0,0.0,0.0,0.0,0.0,0.0,0.0,0.0,0.0,0.0,0.0,0.0,0.0,0.0,-3.9697,-3.9697,0.0,-3.9697,-3.9697,-3.9697,-3.9823,-4.0074,-4.0626,-4.1178,-4.1731,0.0,-4.2766,-4.2986,-4.2986,-4.2986,-4.2986,-4.2986,-4.3438,-4.3991,-4.4543,-4.4769,-4.5221,-4.6175,0.0,0.0,0.0,0.0,-4.8134,-4.8711,-4.9264,-4.959,-4.959,-4.959,-4.959,-4.959,-4.959,-4.959,-4.959,-4.959,-4.959,-4.959,-4.959,-4.959,-4.959,-4.959,-4.9012,-4.7908,-4.7908,-4.733,-4.6301,-4.6301,-4.6301,-4.624,-4.5732,-4.5853,-4.614,-4.4516,-4.4186,-4.4493,-4.3388,-4.2681,-4.215,0.0,0.0,0.0,0.0,0.0,-2.8301,-2.8301,-2.8301,-2.8301,-2.8301,-2.8301,-2.8301,-2.8301,-2.8301,-2.8301,-2.8301,-2.8301,0.0,0.0,0.0,0.0,0.0,0.0,0.0,-2.8301,-2.8301,-2.8301,-2.8301,-2.8301,-2.8301,-2.8301,-2.8301,-2.8301,0.0,0.0,0.0,0.0,0.0,0.0,0.0,0.0,0.0,0.0,0.0,0.0,0.0,0.0,0.0,0.0,0.0,0.0,0.0,0.0,-3.9697,-3.9697,-3.9697,-3.9697,-3.9697,-3.9697,-4.0099,-4.0651,-4.115,-4.1731,-4.2338,0.0,-4.2986,-4.2986,-4.2986,-4.2986,-4.2986,-4.2986,-4.3438,-4.3991,-4.4543,-4.5095,-4.5673,-4.6225,-4.6301,0.0,0.0,0.0,-4.8134,-4.8711,-4.9264,-4.959,-4.959,-4.959,-4.959,-4.959,-4.959,-4.959,-4.959,-4.959,-4.959,-4.959,-4.959,-4.959,-4.959,-4.959,-4.9012,-4.7908,-4.7908,-4.733,-4.6301,-4.6301,-4.6301,-4.618,-4.4436,-4.4767,-4.602,-4.3216,-4.3138,-4.4493,-4.3388,-4.2012,-4.0592,0.0,0.0,0.0,0.0,0.0,0.0,-2.8301,-2.8301,-2.8301,-2.8301,-2.8301,-2.8301,-2.8301,-2.8301,-2.8301,-2.8301,-2.8301,0.0,0.0,0.0,0.0,0.0,0.0,0.0,-2.8301,-2.8301,-2.8301,-2.8301,-2.8301,-2.8301,-2.8301,-2.8301,-2.8301,-2.8301,-2.8301,0.0,0.0,0.0,0.0,0.0,0.0,0.0,0.0,0.0,0.0,0.0,0.0,0.0,0.0,0.0,0.0,0.0,0.0,0.0,0.0,-3.9697,-3.9697,-3.9772,-4.0149,-4.0375,-4.0752,-4.1656,-4.2087,-4.2363,-4.2861,-4.2986,-4.2986,-4.2986,-4.2986,-4.2986,-4.2986,-4.374,-4.4418,-4.4593,-4.5422,-4.6125,0.0,0.0,0.0,-4.6552,-4.7355,-4.8284,0.0,0.0,-4.959,-4.959,-4.959,-4.959,-4.959,-4.959,-4.959,-4.959,-4.959,-4.959,-4.959,-4.959,-4.959,-4.959,-4.959,-4.9012,-4.7908,-4.7908,-4.733,-4.6301,-4.6301,-4.5611,-4.4497,-4.3917,-4.4041,-4.4253,-4.1506,-4.2161,-4.4377,-4.2176,-4.1019,-4.0419,0.0,0.0,0.0,0.0,0.0,0.0,-2.8301,-2.8301,-2.8301,-2.8301,-2.8301,-2.8301,-2.8301,-2.8301,-2.8301,-2.8301,-2.8301,0.0,0.0,0.0,0.0,0.0,0.0,0.0,-2.8301,-2.8301,-2.8301,-2.8301,-2.8301,-2.8301,-2.8301,-2.8301,-2.8301,-2.8301,-2.8301,-2.8301,0.0,0.0,0.0,0.0,0.0,0.0,-3.643,0.0,0.0,0.0,0.0,0.0,0.0,0.0,0.0,0.0,0.0,0.0,0.0,0.0,-3.9998,-4.0074,-4.0425,-4.0827,-4.1304,-4.2037,-4.2363,-4.2615,-4.2886,-4.2986,-4.2986,-4.2986,-4.2986,-4.2986,-4.2986,-4.389,-4.4618,-4.4618,-4.5573,-4.6301,0.0,0.0,0.0,-4.6878,0.0,0.0,0.0,-4.959,-4.959,-4.959,-4.959,-4.959,-4.959,-4.959,-4.959,-4.959,-4.959,-4.959,-4.959,-4.959,-4.959,-4.959,-4.959,-4.9012,-4.7908,-4.7908,-4.733,-4.624,-4.5586,-4.4706,0.0,-4.302,-4.2769,-4.2527,-4.0519,-4.1294,-4.3311,-4.0681,-3.9698,-3.9464,0.0,0.0,0.0,0.0,0.0,0.0,0.0,-2.8301,-2.8301,-2.8301,-2.8301,-2.8301,-2.8301,-2.8301,-2.8301,-2.8301,-2.8301,0.0,0.0,0.0,0.0,0.0,0.0,-2.8301,-2.8301,-2.8301,-2.8301,-2.8301,-2.8301,-2.8301,-2.8301,-2.8301,-2.8301,-2.8301,-2.8301,-2.8301,-2.8495,0.0,0.0,0.0,-3.5307,-3.643,0.0,0.0,0.0,0.0,0.0,0.0,0.0,0.0,0.0,0.0,0.0,0.0,0.0,0.0,0.0,0.0,0.0,-4.1379,-4.2213,-4.2263,-4.2665,-4.2986,-4.2986,-4.2986,0.0,-4.2986,-4.2986,-4.2986,-4.2986,-4.389,-4.4618,-4.4618,-4.5573,-4.6301,0.0,-4.6301,0.0,0.0,-4.7908,0.0,-4.949,-4.959,-4.959,-4.959,-4.959,-4.959,-4.959,-4.959,-4.959,-4.959,-4.959,-4.959,-4.959,-4.959,-4.959,-4.959,-4.9565,-4.8962,-4.7908,-4.7883,-4.728,0.0,-4.4436,-4.3669,-4.3396,-4.182,-4.1094,-4.0832,-3.9895,-4.0479,-4.1552,-3.9001,-3.8045,-3.7805,0.0,0.0,0.0,0.0,0.0,0.0,0.0,0.0,0.0,0.0,-2.8301,-2.8301,-2.8301,-2.8301,-2.8301,0.0,0.0,0.0,0.0,0.0,0.0,0.0,-2.8301,-2.8301,-2.8301,-2.8301,-2.8301,-2.8301,-2.8301,-2.8301,-2.8301,-2.8301,-2.8301,-2.8301,-2.8301,-2.8301,-2.8495,-3.1184,0.0,0.0,-3.5307,-3.6656,0.0,0.0,0.0,0.0,-3.8869,-3.922,0.0,0.0,0.0,0.0,0.0,0.0,0.0,0.0,-4.0802,-4.1175,-4.1656,0.0,-4.2313,-4.274,-4.2942,-4.2986,0.0,-4.2986,-4.2986,-4.2986,-4.2986,-4.2986,-4.2986,-4.389,-4.4618,-4.4618,-4.5573,-4.6301,-4.6301,-4.6301,0.0,-4.7782,-4.7908,-4.836,-4.949,-4.959,-4.959,-4.959,-4.959,-4.959,-4.959,-4.959,-4.959,-4.959,-4.959,-4.959,-4.959,-4.959,-4.959,-4.959,-4.9163,-4.8586,-4.7883,-4.7506,-4.6954,-4.618,-4.4436,-4.2958,-4.1756,-4.1373,-4.0188,-3.8637,-3.8039,-3.8653,-3.9477,-3.7219,-3.6335,-3.6295,0.0,0.0,0.0,0.0,0.0,0.0,0.0,0.0,0.0,0.0,-2.8301,-2.8301,-2.8301,-2.8301,-2.8301,0.0,0.0,0.0,0.0,0.0,0.0,-2.8301,-2.8301,-2.8301,-2.8301,-2.8301,-2.8301,-2.8301,-2.8301,-2.8301,-2.8301,-2.8301,-2.8301,-2.8301,-2.8301,-2.8301,-2.8495,-3.1184,-3.228,-3.2555,-3.5575,0.0,0.0,0.0,0.0,0.0,-3.917,-3.9446,0.0,-3.9697,-3.9697,-3.9697,0.0,0.0,0.0,0.0,-4.1279,-4.1831,-4.2384,-4.259,-4.2665,-4.2911,-4.2986,-4.2986,-4.2986,-4.2986,-4.2986,-4.2986,-4.2986,-4.3062,-4.3313,-4.4041,-4.4719,-4.497,-4.5748,-4.6301,0.0,0.0,-4.6702,-4.7782,-4.7908,-4.836,-4.949,-4.959,-4.959,-4.959,-4.959,-4.959,-4.959,-4.959,-4.959,-4.959,-4.959,-4.959,-4.959,-4.959,-4.959,-4.959,-4.9038,-4.846,-4.7883,-4.738,-4.6828,-4.618,-4.3669,-4.2011,-4.1117,-4.0343,-3.8717,-3.6795,-3.7124,-3.7527,-3.7635,-3.55,-3.515,-3.5683,0.0,0.0,0.0,0.0,0.0,0.0,0.0,0.0,0.0,0.0,0.0,0.0,0.0,0.0,0.0,0.0,0.0,0.0,0.0,0.0,-2.8301,-2.8301,-2.8301,-2.8301,-2.8301,-2.8301,-2.8301,-2.8301,-2.8301,-2.8301,-2.8301,-2.8301,-2.8301,-2.8281,-2.8495,-2.8601,-2.8814,-3.1556,-3.2745,-3.2992,-3.6113,0.0,0.0,0.0,0.0,0.0,0.0,0.0,0.0,-3.9697,-3.9697,-3.9697,-3.9798,0.0,0.0,0.0,0.0,0.0,-4.2836,-4.2986,-4.2986,-4.2986,-4.2986,-4.2986,-4.2986,-4.2986,-4.2986,-4.2986,-4.2986,-4.3137,-4.3689,-4.4242,-4.4819,-4.5397,-4.5949,0.0,-4.6301,-4.6301,-4.6702,-4.7782,-4.7908,-4.836,-4.949,-4.959,-4.959,-4.959,-4.959,-4.959,-4.959,-4.959,-4.959,-4.959,-4.9307,-4.9177,-4.9177,-4.9461,-4.9565,-4.9464,-4.8912,-4.8335,-4.7782,-4.7255,-4.6753,-4.612,-4.2643,-4.1181,-4.1052,-3.9322,-3.7269,-3.5434,-3.6802,-3.675,-3.5831,-3.4041,-3.4258,-3.5273,0.0,0.0,0.0,0.0,0.0,0.0,0.0,0.0,0.0,0.0,0.0,0.0,0.0,0.0,0.0,0.0,0.0,0.0,0.0,-2.8301,-2.8301,-2.8301,-2.8301,-2.8301,-2.8301,-2.8301,-2.8301,-2.8301,-2.8301,-2.8301,-2.8301,-2.8301,-2.8301,-2.8354,-2.9513,-3.0016,-3.0193,-3.3389,-3.4731,-3.4928,-3.7023,0.0,0.0,0.0,0.0,0.0,0.0,0.0,0.0,-3.9697,-3.9697,-3.9772,-4.0249,0.0,0.0,0.0,0.0,0.0,-4.2836,-4.2986,-4.2986,-4.2986,-4.2986,-4.2986,-4.2986,-4.2986,-4.2986,-4.2986,-4.2986,-4.3137,-4.3689,-4.4242,-4.4819,-4.5397,-4.5949,-4.6301,-4.6301,0.0,-4.6702,-4.7782,-4.7908,-4.836,-4.949,-4.959,-4.959,-4.959,-4.959,-4.959,-4.959,-4.959,-4.959,-4.959,-4.806,-4.7221,-4.7221,-4.8828,-4.9364,-4.8887,-4.8309,-4.7757,-4.7168,-4.6677,-4.6401,-4.612,-4.2643,-4.1181,-4.1052,-3.9322,-3.7065,-3.4982,-3.6658,-3.5867,-3.3812,-3.3501,-3.3544,-3.3713,0.0,0.0,0.0,0.0,0.0,0.0,0.0,0.0,0.0,0.0,0.0,0.0,0.0,0.0,0.0,0.0,0.0,0.0,-2.8301,-2.8301,-2.8301,-2.8301,-2.8301,-2.8301,-2.8301,-2.8301,-2.8301,-2.8301,-2.8301,-2.8301,-2.8301,-2.8301,-2.8708,-2.9408,-3.0016,-3.087,-3.1987,-3.4253,-3.5389,-3.58,0.0,0.0,0.0,0.0,0.0,0.0,0.0,0.0,0.0,0.0,-3.9898,-4.0174,-4.0425,0.0,0.0,0.0,0.0,0.0,-4.2911,-4.2986,-4.2986,-4.2986,-4.2986,-4.2986,-4.2986,-4.2986,-4.2986,-4.2986,-4.3212,-4.3589,-4.4141,-4.4719,-4.5271,-4.5849,-4.615,-4.6301,-4.6301,-4.6301,-4.6702,-4.7782,-4.7908,-4.836,-4.949,-4.959,-4.959,-4.959,-4.959,-4.959,-4.959,-4.959,-4.959,-4.959,-4.8763,-4.7717,-4.646,-4.8253,-4.854,-4.728,-4.7445,-4.7355,-4.7043,-4.6552,-4.5793,-4.4767,-4.2264,-4.0666,-3.9627,-3.7707,-3.5984,-3.4733,-3.532,-3.4712,-3.3418,-3.3418,-3.3418,-3.3418,0.0,0.0,0.0,0.0,0.0,0.0,0.0,0.0,0.0,0.0,0.0,0.0,0.0,0.0,0.0,0.0,0.0,-2.8301,-2.8301,-2.8301,-2.8441,-2.8741,-2.8441,-2.8301,-2.8301,-2.8301,-2.8301,-2.8301,-2.8301,-2.8441,-2.8741,-2.8741,-2.9574,-3.0995,-3.1284,-3.2163,-3.3479,-3.528,-3.6071,-3.6326,0.0,0.0,0.0,0.0,0.0,0.0,0.0,0.0,0.0,0.0,0.0,0.0,0.0,0.0,0.0,-4.2363,-4.2715,-4.2986,-4.2986,-4.2986,-4.2986,-4.2986,-4.2986,-4.2986,-4.2986,-4.2986,-4.2986,-4.2986,-4.3413,-4.3966,-4.4518,-4.5196,-4.5824,-4.625,-4.6301,-4.6301,-4.6301,-4.6301,-4.6652,-4.7606,-4.7832,-4.8309,-4.9314,-4.9515,-4.959,-4.959,-4.959,-4.9396,-4.8958,-4.9371,-4.9396,-4.8958,-4.8444,-4.7278,-4.5578,-4.6625,-4.6633,-4.564,-4.6235,-4.6686,-4.6867,-4.5662,-4.4559,-4.3583,-4.1501,-3.9823,-3.8444,-3.6263,-3.5117,-3.4668,-3.4238,-3.3809,-3.3418,-3.3418,-3.3418,-3.3418,0.0,0.0,0.0,0.0,0.0,0.0,0.0,0.0,0.0,0.0,0.0,0.0,0.0,0.0,0.0,0.0,-2.8301,-2.8301,-2.8301,-2.8301,-2.8847,-3.012,-2.8953,-2.8301,-2.8301,-2.8301,-2.8301,-2.8301,-2.8301,-2.8953,-3.0172,-3.0172,-3.1163,-3.3048,-3.4299,-3.4426,-3.3945,-3.7254,-3.7856,-3.6824,-3.8856,0.0,0.0,0.0,0.0,0.0,0.0,0.0,0.0,0.0,0.0,0.0,0.0,0.0,-4.2313,-4.2816,-4.2936,-4.2986,-4.2986,-4.2986,-4.2986,-4.2986,-4.2986,-4.2986,-4.2986,-4.2986,-4.2986,-4.2986,-4.3413,-4.3966,-4.4518,-4.5522,-4.6276,-4.6301,-4.6301,-4.6301,-4.6301,-4.6301,-4.6527,-4.7129,-4.7606,-4.8159,-4.8761,-4.9289,-4.959,-4.959,-4.959,-4.8828,-4.7088,-4.8673,-4.8828,-4.7088,-4.4928,-4.3736,-4.3624,-4.2722,-4.3051,-4.4611,-4.469,-4.5327,-4.6255,-4.3044,-4.2328,-4.3544,-4.0213,-3.8729,-3.8444,-3.6263,-3.5117,-3.4668,-3.4238,-3.3809,-3.3418,-3.3418,-3.3418,-3.3418,0.0,0.0,0.0,0.0,0.0,0.0,0.0,0.0,0.0,0.0,0.0,0.0,0.0,0.0,0.0,0.0,-3.0016,-2.9911,-3.0721,-3.0016,-3.0172,-3.1469,-3.1081,-3.0773,-3.0773,-2.9144,-2.8688,-2.9565,-2.9565,-2.9951,-3.0748,-3.1668,-3.2137,-3.2328,-3.4657,-3.5679,-3.5759,-3.7958,-3.879,-3.8625,-3.939,-3.9697,0.0,0.0,0.0,0.0,0.0,0.0,0.0,0.0,-4.0978,-4.1605,-4.2087,-4.2439,-4.2766,-4.2911,-4.2986,-4.2986,-4.2986,-4.2986,-4.2986,-4.2986,-4.2986,-4.2986,-4.2986,-4.2986,-4.3062,-4.3413,-4.394,-4.4593,-4.5497,-4.6024,-4.6301,-4.6301,-4.6301,-4.6301,-4.6301,-4.6301,-4.6527,-4.7079,-4.7581,-4.8134,-4.8711,-4.9264,-4.959,-4.959,-4.959,-4.9307,-4.8608,-4.9242,-4.9092,-4.805,-4.6156,-4.4285,-4.2524,-4.2165,-4.1546,-4.0867,-4.3008,-4.4257,-4.462,-4.2264,-4.1565,-4.2011,-3.9627,-3.7955,-3.6864,-3.55,-3.4863,-3.4629,-3.3945,-3.3574,-3.3418,-3.3418,-3.3418,-3.3418,0.0,0.0,0.0,0.0,0.0,0.0,0.0,0.0,0.0,0.0,0.0,0.0,0.0,0.0,0.0,0.0,-3.1469,-3.1338,-3.223,-3.1418,-3.152,-3.2905,-3.2532,-3.2733,-3.3601,-3.1129,-3.0214,-3.0927,-3.1129,-3.1689,-3.2564,-3.3627,-3.4032,-3.3981,-3.5991,-3.6919,-3.7035,-3.8533,-3.9116,-3.9025,-3.9517,-3.9697,0.0,0.0,0.0,0.0,0.0,0.0,0.0,0.0,-4.153,-4.2238,-4.2414,-4.2715,-4.2986,-4.2986,-4.2986,-4.2986,-4.2986,-4.2986,-4.2986,-4.2986,-4.2986,-4.2986,-4.2986,-4.2986,-4.3137,-4.3689,-4.4392,-4.5196,-4.6125,-4.6301,-4.6301,-4.6301,-4.6301,-4.6301,-4.6301,-4.6301,-4.6451,-4.6828,-4.733,-4.7832,-4.8209,-4.8912,-4.9339,-4.9339,-4.949,-4.9257,-4.8516,-4.9057,-4.8807,-4.7725,-4.5851,-4.4235,-4.283,-4.1568,-4.0148,-3.8597,-4.0966,-4.2391,-4.2832,-4.0602,-3.9823,-4.0278,-3.8531,-3.7126,-3.5957,-3.5059,-3.4551,-3.4238,-3.3652,-3.3418,-3.3418,-3.3418,-3.3418,-3.3418,0.0,0.0,0.0,0.0,0.0,0.0,0.0,0.0,-3.2331,-3.2331,-3.2331,0.0,0.0,0.0,0.0,0.0,-3.2331,-3.2331,-3.2331,-3.2331,-3.2955,-3.4337,-3.3105,-3.365,-3.6358,-3.4313,-3.2948,-3.2353,-3.2897,-3.4165,-3.6009,-3.6009,-3.7035,-3.8868,-3.8868,-3.8352,-3.7583,-3.9077,-3.8844,-3.7636,-3.9129,-3.9697,-3.9697,0.0,0.0,0.0,0.0,0.0,0.0,0.0,-4.2213,-4.2313,-4.2811,-4.2986,-4.2986,-4.2986,-4.2986,-4.2986,-4.2986,-4.2986,-4.2986,-4.2986,-4.2986,-4.2986,-4.2986,-4.2986,-4.3137,-4.3689,-4.4719,-4.5673,-4.62,-4.6301,-4.6301,-4.6301,-4.6301,-4.6301,-4.6301,-4.6301,-4.6301,-4.6301,-4.6803,-4.7068,-4.7068,-4.8134,-4.8761,-4.8761,-4.9264,-4.8516,-4.6174,-4.7755,-4.77,-4.53,-4.3146,-4.283,-4.4492,-4.0562,-3.8597,-3.8597,-3.8597,-3.9497,-4.1052,-3.7575,-3.6924,-3.8465,-3.6742,-3.6016,-3.5937,-3.5059,-3.418,-3.3418,-3.3418,-3.3418,-3.3418,-3.3418,-3.3418,-3.3418,0.0,0.0,0.0,0.0,0.0,0.0,0.0,0.0,-3.5186,-3.5186,-3.5186,0.0,0.0,0.0,0.0,0.0,0.0,0.0,-3.509,-3.4313,-3.4362,-3.5763,-3.5403,-3.5719,-3.6935,-3.6702,-3.6026,-3.4903,-3.5067,-3.5624,-3.6506,-3.7531,-3.7463,-3.644,-3.8518,-3.8696,-3.7583,-3.9077,-3.9465,-3.9077,-3.9517,-3.9923,-4.0275,0.0,0.0,0.0,0.0,0.0,0.0,0.0,0.0,0.0,-4.2936,-4.2986,-4.2986,-4.2986,-4.2986,-4.2986,-4.2986,-4.2986,-4.2986,-4.2986,-4.2986,-4.3087,-4.3463,-4.3564,-4.384,-4.4794,-4.5573,-4.6125,-4.6276,-4.6301,-4.6301,-4.6301,-4.6301,-4.6301,-4.6301,-4.6301,-4.6301,-4.6301,-4.6803,-4.7068,-4.7068,-4.7757,-4.8159,-4.8159,-4.8309,-4.8058,-4.7379,-4.782,-4.7658,-4.655,-4.4801,-4.382,-4.3969,-4.1633,-3.9823,-3.8597,-3.8597,-3.8861,-3.9322,-3.7059,-3.6924,-3.8465,-3.6742,-3.5859,-3.5508,-3.4629,-3.3926,-3.3418,-3.3418,-3.3418,-3.3418,-3.3418,-3.3418,-3.3418,0.0,0.0,0.0,0.0,0.0,0.0,0.0,0.0,-3.6405,-3.6405,-3.6405,-3.6405,0.0,0.0,0.0,0.0,0.0,0.0,-3.6358,-3.5619,-3.567,-3.6684,-3.6732,-3.7109,-3.7839,-3.8191,-3.8091,-3.7502,-3.7282,-3.7402,-3.7938,-3.8812,-3.8445,-3.7103,-3.8921,-3.9206,-3.84,-3.931,-3.9823,-4.0023,-4.0023,-4.035,-4.0852,0.0,0.0,0.0,0.0,0.0,0.0,0.0,0.0,0.0,-4.2986,-4.2986,-4.2986,-4.2986,-4.2986,-4.2986,-4.2986,-4.2986,-4.2986,-4.2986,-4.3137,-4.3514,-4.4292,-4.4468,-4.4669,-4.5347,-4.5924,-4.6301,-4.6301,-4.6301,-4.6301,-4.6301,-4.6301,-4.6301,-4.6301,-4.6301,-4.6301,-4.6301,-4.6602,-4.6803,-4.6803,-4.728,-4.7606,-4.7606,-4.7782,-4.7832,-4.7606,-4.7606,-4.7355,-4.6828,-4.513,-4.4376,-4.4767,-4.1693,-3.9953,-3.9627,-3.8927,-3.8221,-3.7508,-3.6471,-3.6606,-3.7508,-3.6293,-3.5527,-3.5059,-3.4355,-3.3809,-3.3418,-3.3418,-3.3418,-3.3418,-3.3418,-3.3418,-3.3418,0.0,0.0,-3.4581,-3.4581,0.0,0.0,0.0,0.0,-3.6405,-3.6405,-3.6405,-3.6405,0.0,0.0,0.0,0.0,0.0,0.0,-3.648,-3.648,-3.6732,-3.7236,-3.7312,-3.7814,-3.8894,-3.8969,-3.9195,-3.9697,-3.9195,-3.9195,-3.9697,-3.9697,-3.9697,-3.9697,-3.9697,-3.9722,-3.9772,-3.9772,-4.0099,-4.0601,-4.0601,-4.0927,-4.1351,-4.1351,0.0,0.0,0.0,0.0,0.0,0.0,0.0,0.0,-4.2986,-4.2986,-4.2986,-4.2986,-4.2986,-4.2986,-4.2986,-4.3011,-4.3062,-4.3062,-4.3514,-4.4217,-4.5246,-4.5522,-4.5573,-4.5573,-4.5974,-4.6301,-4.6301,-4.6301,-4.6301,-4.6301,-4.6301,-4.6301,-4.6301,-4.6301,-4.6301,-4.6301,-4.6301,-4.6301,-4.6301,-4.6753,-4.7054,-4.7054,-4.7506,-4.7556,-4.7018,-4.7054,-4.6828,-4.6326,-4.4743,-4.4706,-4.6301,-4.1478,-3.9758,-4.1181,-3.9562,-3.7822,-3.6016,-3.6152,-3.6152,-3.5996,-3.5527,-3.5098,-3.4668,-3.4199,-3.3769,-3.3418,-3.3418,-3.3418,-3.3418,-3.3418,-3.3418,-3.3418,0.0,0.0,-3.5953,-3.5953,0.0,0.0,0.0,0.0,0.0,-3.6405,-3.6405,0.0,0.0,0.0,0.0,0.0,0.0,0.0,-3.6985,-3.7059,-3.7262,-3.7814,-3.8266,-3.8668,-3.8919,-3.9295,-3.9572,-3.9697,-3.9572,-3.9572,-3.9697,-3.9697,-3.9697,-3.9697,-3.9697,-3.9923,-4.035,-4.035,-4.0651,-4.11,-4.11,-4.1505,-4.2037,-4.2037,-4.2363,0.0,0.0,0.0,0.0,0.0,0.0,0.0,-4.2986,-4.2986,-4.2986,-4.2986,-4.2986,-4.2986,-4.2986,-4.3288,-4.3614,-4.3614,-4.4367,-4.5196,-4.5422,-4.5824,-4.6125,-4.6125,-4.6225,-4.6301,-4.6301,-4.6301,-4.6301,-4.6301,-4.6301,-4.6301,-4.6301,-4.6301,-4.6301,-4.6301,-4.6301,-4.6301,-4.6301,-4.6426,-4.6502,-4.6502,-4.6602,-4.6602,-4.6502,-4.6502,-4.6426,-4.6301,-4.5914,-4.5914,-4.6301,-4.3855,-4.2138,-4.1181,-4.0795,-3.8993,-3.6016,-3.7441,-3.7307,-3.5976,-3.5195,-3.4785,-3.4648,-3.3867,-3.3496,-3.3418,-3.3418,-3.3418,-3.3418,-3.3418,-3.3418,-3.3418,0.0,0.0,0.0,0.0,0.0,0.0,0.0,0.0,0.0,0.0,0.0,0.0,0.0,0.0,0.0,0.0,-3.6656,0.0,-3.7161,-3.7437,-3.7839,-3.8391,-3.8969,-3.927,-3.927,-3.9546,-3.9697,-3.9697,-3.9697,-3.9697,-3.9697,-3.9697,-3.9848,-4.0099,-4.0099,-4.04,-4.0849,-4.0849,-4.1229,-4.1731,-4.1731,-4.2057,-4.2615,-4.2615,-4.2791,-4.2986,-4.2986,0.0,0.0,0.0,0.0,0.0,0.0,0.0,-4.2986,-4.2986,-4.2986,-4.3037,-4.3288,-4.3589,-4.394,-4.4468,-4.5045,-4.5547,-4.5824,-4.61,-4.6301,-4.6301,-4.6301,-4.6301,-4.6301,-4.6301,-4.6301,-4.6301,-4.6301,-4.6301,-4.6301,-4.6301,-4.6301,-4.6301,-4.6301,-4.6301,-4.6301,-4.6301,-4.6301,-4.6301,-4.6301,-4.6301,-4.6301,-4.6301,-4.6301,-4.6301,-4.6301,-4.6301,-4.6301,-4.3793,-4.2074,-4.1181,-4.1181,-4.0278,-3.8465,-3.7709,-3.6856,-3.5976,-3.5078,-3.4707,-3.4629,-3.3769,-3.3418,-3.3418,-3.3418,-3.3418,-3.3418,-3.3418,-3.3418,-3.3418,0.0,0.0,0.0,0.0,0.0,0.0,0.0,0.0,0.0,0.0,0.0,0.0,0.0,0.0,-3.6556,0.0,0.0,0.0,-3.7462,-3.799,-3.8517,-3.9045,-3.9446,-3.9697,-3.9697,-3.9697,-3.9697,-3.9697,-3.9697,-3.9747,-3.9848,-3.9848,-4.0074,-4.0526,-4.0626,-4.0953,-4.148,-4.148,-4.1806,-4.2363,-4.2363,-4.2615,-4.2986,-4.2986,-4.2986,-4.2986,-4.2986,-4.2986,-4.2986,-4.2986,0.0,0.0,0.0,0.0,-4.2986,-4.3087,-4.3112,-4.3237,-4.379,-4.4016,-4.4342,-4.5372,-4.5623,-4.5748,-4.62,-4.6301,-4.6301,-4.6301,-4.6301,-4.6301,-4.6301,-4.6301,-4.6301,-4.6301,-4.6301,-4.6301,-4.6301,-4.6301,-4.6301,-4.6301,-4.6301,-4.6301,-4.6301,-4.6301,-4.6301,-4.6301,-4.6301,-4.6301,-4.6301,-4.6301,-4.6301,-4.6301,-4.6301,-4.6301,-4.6301,-4.3232,-4.1501,-4.1181,-4.0602,-4.0602,-4.1052,-3.7575,-3.6016,-3.5976,-3.5078,-3.4707,-3.4629,-3.3769,-3.3418,-3.3418,-3.3418,-3.3418,-3.3418,-3.3418,-3.3418,-3.3418,0.0,0.0,0.0,0.0,0.0,0.0,0.0,0.0,0.0,0.0,-3.6405,-3.6405,0.0,0.0,0.0,-3.7086,-3.7588,-3.8115,-3.8668,0.0,0.0,-3.9572,-3.9647,-3.9697,-3.9697,-3.9697,-3.9697,-3.9697,-3.9697,-3.9948,-4.04,-4.04,-4.045,-4.0551,-4.0974,-4.153,-4.2112,-4.2112,-4.2414,-4.2861,-4.2861,-4.2911,-4.2986,-4.2986,-4.2986,-4.2986,-4.2986,-4.2986,-4.2986,-4.2986,-4.2986,0.0,0.0,0.0,-4.3062,-4.3564,-4.3689,-4.3815,-4.4367,-4.4869,-4.5422,-4.605,-4.62,-4.6225,0.0,0.0,-4.6301,0.0,-4.6301,-4.6301,-4.6301,-4.6301,-4.6301,-4.6301,-4.6301,-4.6301,-4.6301,-4.6301,-4.6301,-4.6301,-4.6301,-4.6301,-4.6301,-4.6301,-4.6301,-4.6301,-4.6301,-4.6301,-4.6301,-4.6301,-4.6301,-4.6301,-4.6301,-4.6301,-4.6301,-4.4374,-4.2643,-4.1181,-3.8154,-3.8287,-4.1052,-3.7575,-3.6016,-3.5976,-3.5078,-3.4707,-3.4629,-3.3769,-3.3418,-3.3418,-3.3418,-3.3418,-3.3418,-3.3418,-3.3418,-3.3418,0.0,0.0,0.0,0.0,0.0,0.0,0.0,0.0,0.0,0.0,0.0,-3.6883,0.0,0.0,0.0,-3.7638,-3.8165,-3.8718,-3.9295,-3.9572,-3.9697,-3.9697,-3.9697,-3.9697,-3.9697,-3.9697,-3.9848,-4.0149,-4.0149,-4.0425,-4.0924,-4.1279,-4.143,-4.1455,-4.1681,-4.2108,-4.2665,-4.2665,-4.276,-4.2986,-4.2986,-4.2986,-4.2986,-4.2986,-4.2986,-4.2986,-4.2986,-4.2986,-4.2986,-4.2986,-4.3187,-4.3438,-4.3438,0.0,0.0,0.0,-4.4267,-4.4392,-4.4945,-4.5522,-4.5999,0.0,-4.6301,-4.6301,-4.6301,-4.6301,-4.6301,-4.6301,-4.6301,-4.6301,-4.6301,-4.6301,-4.6301,-4.6301,-4.6301,-4.6301,-4.6301,-4.6301,-4.6301,-4.6301,-4.6301,-4.6301,-4.6301,-4.6301,-4.6301,-4.6301,-4.6301,-4.6301,-4.6301,-4.6301,-4.6301,-4.6301,-4.6301,-4.6301,-4.6301,-4.4559,-4.3333,-4.258,-3.9125,-3.8795,-4.1052,-3.7575,-3.6016,-3.5976,-3.5078,-3.4707,-3.4629,-3.3769,-3.3418,-3.3418,-3.3418,-3.3418,-3.3418,-3.3418,-3.3418,-3.3418,0.0,0.0,0.0,0.0,0.0,0.0,0.0,0.0,0.0,0.0,0.0,0.0,0.0,0.0,0.0,0.0,-3.8944,-3.9245,-3.9672,-3.9697,-3.9697,-3.9697,-3.9697,-3.9697,-3.9697,-3.9823,-4.0099,-4.0526,-4.0651,-4.1003,-4.1555,-4.1957,-4.2288,-4.2414,-4.2414,-4.264,-4.2986,-4.2986,-4.2986,-4.2986,-4.2986,-4.2986,-4.2986,-4.2986,-4.3062,-4.3187,-4.3187,-4.3263,-4.3388,-4.3388,-4.3664,-4.4016,-4.4016,-4.4292,0.0,0.0,0.0,-4.5146,-4.5573,0.0,-4.6301,-4.6301,-4.6301,-4.6301,0.0,0.0,-4.6301,0.0,-4.6301,-4.6301,-4.6301,-4.6301,-4.6301,-4.6301,-4.6301,-4.6301,-4.6301,-4.6301,-4.6301,-4.6301,-4.6301,-4.6301,-4.6301,-4.6301,-4.6301,-4.6301,-4.6301,-4.6301,-4.6301,-4.6301,-4.6301,-4.6301,-4.6301,-4.6301,-4.6301,-4.4559,-4.3917,-4.4312,-4.0472,-3.9497,-4.1052,-3.7575,-3.5957,-3.582,-3.5039,-3.4707,-3.4629,-3.3769,-3.3418,-3.3418,-3.3418,-3.3418,-3.3418,-3.3418,-3.3418,-3.3418,0.0,0.0,0.0,0.0,0.0,0.0,0.0,0.0,0.0,0.0,0.0,0.0,-4.1279,-3.9965,-3.9345,-4.0548,-4.0031,-3.9672,-3.9697,-3.9697,-3.9697,-3.9697,-3.9697,0.0,-3.9697,-4.0199,-4.0501,-4.0526,-4.1,-4.158,-4.2162,-4.2213,-4.2489,-4.2936,-4.2936,-4.2961,-4.2986,-4.2986,-4.2986,-4.2986,-4.2986,-4.2986,-4.2986,-4.2986,-4.3313,-4.3765,-4.3765,-4.4091,-4.4543,-4.4543,-4.4568,-4.4593,-4.4593,-4.4593,-4.4719,0.0,0.0,0.0,0.0,-4.6276,0.0,-4.6301,-4.6301,-4.6301,0.0,0.0,-4.6301,-4.6301,-4.6301,-4.6301,-4.6301,-4.6301,-4.6301,-4.6301,-4.6301,-4.6301,-4.6301,-4.6301,-4.6301,-4.6301,-4.6301,-4.6301,-4.6301,-4.6301,-4.6301,-4.6301,-4.6301,-4.6301,-4.6301,-4.6301,-4.6301,-4.6301,-4.6301,-4.6301,-4.6301,-4.4559,-4.4497,-4.612,-4.103,-3.9497,-4.1052,-3.7575,-3.5801,-3.5391,-3.4902,-3.4707,-3.4629,-3.3769,-3.3418,-3.3418,-3.3418,-3.3418,-3.3418,-3.3418,-3.3418,-3.3418,0.0,0.0,0.0,0.0,0.0,0.0,0.0,0.0,0.0,0.0,0.0,0.0,0.0,-4.2059,-4.2054,-4.246,-4.2291,-4.2133,-4.2133,-4.2133,-4.2342,-4.2766,-4.2766,-4.2581,-4.206,-4.3165,-4.3457,-4.2865,-4.3073,-4.3462,-4.3978,-4.3102,-4.2841,-4.2986,-4.2986,-4.2986,-4.2986,-4.2986,-4.3187,-4.3463,-4.3112,-4.3413,-4.3991,-4.3639,-4.384,-4.4317,-4.4317,-4.4468,-4.4618,-4.4618,-4.4869,0.0,0.0,0.0,0.0,0.0,0.0,-4.6301,0.0,0.0,0.0,-4.6301,-4.6301,-4.6301,-4.6301,-4.6301,-4.6301,-4.6301,-4.6301,-4.6301,-4.6301,-4.6301,-4.6301,-4.6301,-4.6301,-4.6301,-4.6301,-4.6301,-4.6301,-4.6301,-4.6301,-4.6301,-4.6301,-4.6301,-4.6301,-4.6301,-4.6301,-4.6301,-4.6301,-4.6301,-4.6301,-4.6301,-4.6301,-4.6301,-4.6301,-4.5671,-4.5671,-4.624,-4.2201,-4.0602,-4.1052,-3.7575,-3.5801,-3.5371,-3.4902,-3.4551,-3.4258,-3.3652,-3.3418,-3.3418,-3.3418,-3.3418,-3.3418,-3.3418,-3.3418,-3.3418,0.0,0.0,0.0,0.0,0.0,-4.1739,-4.1739,-4.1959,-4.2367,-4.3203,0.0,0.0,0.0,0.0,-4.3504,-4.3504,-4.3504,-4.3586,-4.3827,-4.3855,-4.4132,-4.4837,-4.4865,-4.459,-4.4098,-4.5001,-4.5253,-4.4881,-4.483,-4.5151,-4.5661,-4.4318,-4.3657,-4.3657,-4.3386,-4.3162,-4.2986,-4.3162,-4.3463,-4.379,-4.3614,-4.3966,-4.4593,-4.4217,-4.4418,-4.492,-4.492,-4.5045,-4.5196,-4.5196,-4.5447,0.0,0.0,0.0,0.0,0.0,0.0,0.0,-4.6301,0.0,0.0,0.0,-4.6301,-4.6301,-4.6301,-4.6301,-4.6301,-4.6301,-4.6301,-4.6301,-4.6301,-4.6301,-4.6301,-4.6301,-4.6301,-4.6301,-4.6301,-4.6301,-4.6301,-4.6301,-4.6301,-4.6301,-4.6301,-4.6301,-4.6301,-4.6301,-4.6301,-4.6301,-4.6301,-4.6301,-4.6301,-4.6301,-4.6301,-4.6301,-4.6301,-4.6301,-4.6301,-4.624,-4.3419,-4.1756,-4.1117,-3.8221,-3.6222,-3.5137,-3.4824,-3.4453,-3.4043,-3.3594,-3.3418,-3.3418,-3.3418,-3.3418,-3.3418,-3.3418,-3.3418,-3.3418,0.0,0.0,-4.3647,-4.3647,-4.3676,-4.3676,-4.3676,-4.3217,-4.3704,-4.6024,0.0,0.0,0.0,0.0,0.0,-4.3626,-4.3654,-4.395,-4.4581,-4.4608,-4.4934,-4.5594,-4.5622,-4.5622,-4.5601,-4.5502,-4.5779,-4.6389,-4.6288,-4.6514,-4.7146,-4.5714,-4.5048,-4.5047,-4.43,-4.3627,-4.3174,-4.3589,-4.384,-4.389,-4.4418,-4.4644,-4.4669,-4.4644,-4.502,-4.5522,-4.5522,-4.5849,-4.6301,-4.6301,-4.6301,0.0,0.0,0.0,0.0,0.0,0.0,0.0,0.0,0.0,0.0,0.0,0.0,0.0,-4.6301,-4.6301,-4.6301,-4.6301,-4.6301,-4.6301,-4.6301,-4.6301,-4.6301,-4.6301,-4.6301,-4.6301,-4.6301,-4.6301,-4.6301,-4.6301,-4.6301,-4.6301,-4.6301,-4.6301,-4.6301,-4.6301,-4.6301,-4.6301,-4.6301,-4.6301,-4.6301,-4.6301,-4.6301,-4.6301,-4.6301,-4.6301,-4.6301,-4.6301,-4.4559,-4.2832,-4.1181,-3.9431,-3.7197,-3.4753,-3.4687,-3.4453,-3.4023,-3.3594,-3.3418,-3.3418,-3.3418,-3.3418,-3.3418,-3.3418,-3.3418,-3.3418,0.0,-4.4709,-4.4857,-4.4857,-4.523,-4.5556,-4.5556,-4.5799,-4.6285,0.0,0.0,0.0,-4.7222,-4.7096,-4.6958,-4.6958,-4.7414,-4.7766,-4.7942,-4.7942,-4.8236,-4.8881,-4.8911,-4.8661,-4.8174,-4.9107,-4.9165,-4.8382,-4.8382,-4.8418,-4.8589,-4.7197,-4.6771,-4.7233,-4.6973,-4.6488,-4.5757,-4.4776,-4.4644,-4.4995,-4.4744,-4.5121,-4.5799,-4.5397,-4.5598,-4.6075,-4.6075,-4.6175,-4.6301,-4.6301,-4.6301,-4.6301,0.0,0.0,0.0,0.0,0.0,0.0,-4.6301,0.0,0.0,0.0,0.0,0.0,-4.6301,-4.6301,-4.6301,-4.6301,-4.6301,-4.6301,-4.6301,-4.6301,-4.6301,-4.6301,-4.6301,-4.6301,-4.6301,-4.6301,-4.6301,-4.6301,-4.6301,-4.6301,-4.6301,-4.6301,-4.6301,0.0,-4.6301,-4.6301,-4.6301,-4.6301,-4.6301,-4.6301,-4.6301,-4.6301,-4.6301,-4.6301,-4.6301,-4.6301,-4.4559,-4.3458,-4.2895,-3.9953,-3.7832,-3.6509,-3.5256,-3.4277,-3.3594,-3.3476,-3.3418,-3.3418,-3.3418,-3.3418,-3.3418,-3.3418,-3.3418,-3.3418,-4.5723,-4.5933,-4.6142,-4.6142,-4.6471,-4.6741,-4.6741,-4.707,-4.7309,0.0,0.0,0.0,-4.8087,-4.8476,-4.873,-4.873,-4.909,-4.9419,-4.9643,-4.9673,-4.9972,-5.0584,-5.0614,-5.0406,-5.0017,-5.0555,-5.0525,-5.0017,-4.9754,-4.9783,-4.9999,-4.8924,-4.8629,-4.8995,-4.89,-4.857,-4.8134,-4.7453,-4.6521,-4.5472,-4.5372,-4.5723,-4.6276,-4.5949,-4.6024,-4.6301,-4.6301,-4.6301,-4.6301,-4.6301,-4.6301,0.0,0.0,0.0,0.0,0.0,0.0,0.0,0.0,0.0,0.0,0.0,0.0,0.0,-4.6301,-4.6301,-4.6301,-4.6301,-4.6301,-4.6301,-4.6301,-4.6301,-4.6301,-4.6301,-4.6301,-4.6301,-4.6301,-4.6301,-4.6301,-4.6301,-4.6301,-4.6301,-4.6301,-4.6301,-4.6301,-4.6301,-4.6301,-4.6301,-4.6301,-4.6301,-4.6301,-4.6301,-4.6301,-4.6301,-4.6301,-4.6301,-4.6301,-4.6301,-4.5281,-4.4436,-4.3669,-4.1606,-3.9474,-3.7255,-3.6251,-3.4887,-3.3418,-3.3418,-3.3418,-3.3418,-3.3418,-3.3418,-3.3418,-3.3418,-3.3418,-3.3418,0.0,-4.689,-4.7309,-4.7309,-4.7309,-4.7339,-4.7399,-4.7429,-4.7429,0.0,-4.8027,-4.8626,-4.9239,-4.9389,-4.9419,-4.9419,-4.9479,-4.9733,-5.0255,-5.0315,-5.0554,-5.1199,-5.1229,-5.1229,-5.1229,-5.0614,-5.0584,-5.1229,-5.0674,-5.0704,-5.1302,-5.0788,-5.0535,-5.063,-5.0477,-5.0343,-5.0265,-5.0739,-4.9099,-4.6104,-4.6612,-4.6576,-4.6301,-4.6481,-4.6421,-4.6301,-4.6301,-4.6301,-4.6301,-4.6301,-4.6301,0.0,0.0,0.0,0.0,0.0,-4.6301,0.0,0.0,0.0,0.0,0.0,-4.6301,0.0,-4.6301,-4.6301,-4.6301,-4.6301,-4.6301,-4.6301,-4.6301,-4.6301,-4.6301,-4.6301,-4.6301,-4.6301,-4.6301,-4.6301,-4.6301,-4.6301,-4.6301,-4.6301,-4.6301,-4.6301,-4.6301,-4.6301,-4.6301,-4.6301,-4.6301,-4.6301,-4.6301,-4.6301,-4.6301,-4.6301,-4.6301,-4.6301,-4.6301,-4.6301,-4.6301,-4.5464,-4.3979,-4.3793,-4.1565,-3.7804,-3.7445,-3.593,-3.365,-3.365,-3.3544,-3.3418,-3.3418,-3.3418,-3.3418,-3.3418,-3.3418,-3.3418,-4.71,-4.7219,-4.7309,-4.7309,-4.7309,-4.7489,-4.8027,-4.8087,-4.8297,-4.885,-4.903,-4.9179,-4.9299,-4.9733,-4.9986,-4.9986,-5.0541,-5.09,-5.102,-5.102,-5.1079,-5.1199,-5.1229,-5.1229,-5.1229,-5.1079,-5.1079,-5.1229,-5.1618,-5.1887,-5.2007,-5.2424,-5.2921,-5.3407,-5.3393,-5.3004,-5.2391,-5.2505,-5.1425,-4.9713,-4.9793,-4.839,-4.6421,-4.7652,-4.7324,-4.6301,-4.6301,-4.6301,-4.6301,-4.6301,-4.6301,-4.6301,0.0,0.0,0.0,-4.6301,0.0,0.0,0.0,0.0,0.0,0.0,0.0,0.0,-4.6301,-4.6301,-4.6301,-4.6301,-4.6301,-4.6301,-4.6301,-4.6301,-4.6301,-4.6301,-4.6301,-4.6301,-4.6301,-4.6301,-4.6301,-4.6301,-4.6301,-4.6301,-4.6301,-4.6301,-4.6301,-4.6301,-4.6301,-4.6301,-4.6301,-4.6301,-4.6301,-4.6301,-4.6301,-4.6301,-4.6301,-4.6301,-4.6301,-4.6301,-4.6301,-4.612,-4.5732,-4.4374,-4.2829,-4.1196,-3.8497,-3.6541,-3.5335,-3.5335,-3.455,-3.3418,-3.3418,-3.3418,-3.3418,-3.3418,-3.3418,-3.3418,-4.8297,-4.8297,-4.8297,-4.8297,-4.8297,-4.8386,-4.876,-4.882,-4.894,-4.9269,-4.9553,-4.9883,-5.0212,-5.0541,-5.0674,-5.0674,-5.102,-5.1229,-5.1229,-5.1229,-5.1229,-5.1229,-5.1229,-5.1229,-5.1229,-5.1528,-5.1708,-5.1708,-5.2366,-5.2695,-5.2695,-5.3384,-5.3892,-5.4221,-5.4551,-5.4497,-5.4068,-5.4068,-5.3227,-5.1781,-5.1044,-4.982,-4.8563,-4.9338,-4.8678,-4.7416,-4.7416,-4.6934,-4.6301,-4.6301,-4.6301,0.0,-4.6301,-4.6301,-4.6301,0.0,-4.6301,-4.6301,0.0,0.0,0.0,-4.6301,0.0,0.0,0.0,-4.6301,-4.6301,-4.6301,-4.6301,-4.6301,-4.6301,-4.6301,-4.6301,-4.6301,-4.6301,-4.6301,-4.6301,-4.6301,-4.6301,-4.6301,-4.6301,-4.6301,-4.6301,-4.6301,-4.62,-4.5924,-4.615,-4.6175,-4.5924,-4.615,-4.6301,-4.6301,-4.6301,-4.6301,-4.6301,-4.6301,-4.6301,-4.6301,-4.6301,-4.6301,-4.624,-4.5403,-4.4002,-4.2185,-4.0502,-3.8753,-3.7002,-3.7002,-3.6539,-3.5704,-3.4922,-3.4133,-3.3418,-3.3418,-3.3418,-3.3418,-4.9968,-4.9951,-4.9951,-4.9951,-4.9951,-4.9968,-5.0134,-5.012,-5.015,-5.0272,-5.0757,-5.1258,-5.1804,-5.1835,-5.1773,-5.1572,-5.1526,-5.1493,-5.1409,-5.1409,-5.1468,-5.1588,-5.1588,-5.1588,-5.1588,-5.2127,-5.2396,-5.2396,-5.3054,-5.3384,-5.3384,-5.4072,-5.4401,-5.4431,-5.497,-5.5179,-5.5179,-5.5179,-5.4509,-5.3308,-5.2051,-5.1208,-5.0768,-5.1044,-5.024,-4.8908,-4.8589,-4.7534,-4.6301,-4.6301,-4.6301,-4.6301,-4.6301,-4.6301,0.0,0.0,0.0,0.0,0.0,0.0,0.0,0.0,0.0,-4.6301,0.0,0.0,0.0,-4.6301,0.0,0.0,0.0,0.0,0.0,-4.6175,0.0,0.0,0.0,-4.625,0.0,-4.6301,-4.6301,-4.6301,-4.6301,-4.6225,-4.5974,-4.5522,-4.5799,-4.5799,-4.5347,-4.5849,-4.615,-4.615,-4.625,-4.6301,-4.6301,-4.6301,-4.6301,-4.6301,-4.6301,-4.6301,-4.6301,-4.6301,-4.5017,-4.2747,-4.2425,-4.0914,-3.8639,-3.8639,-3.8461,-3.8045,-3.676,-3.5273,-3.3839,-3.3839,-3.365,-3.3418,-5.2449,-5.2227,-5.2227,-5.2227,-5.2227,-5.2417,-5.3022,-5.3076,-5.3299,-5.3935,-5.4052,-5.4115,-5.4211,-5.4211,-5.3785,-5.2767,-5.2678,-5.2535,-5.2132,-5.2097,-5.2336,-5.2935,-5.2965,-5.2965,-5.2965,-5.3025,-5.3084,-5.3084,-5.3773,-5.4102,-5.4102,-5.476,-5.5089,-5.5089,-5.5149,-5.5179,-5.5179,-5.5179,-5.5078,-5.4896,-5.4743,-5.3121,-5.0878,-5.2241,-5.1781,-5.0268,-4.8965,-4.7534,-4.6301,-4.6301,-4.6301,-4.6301,0.0,-4.6301,-4.6301,-4.6301,0.0,0.0,0.0,0.0,0.0,0.0,-4.6301,0.0,0.0,0.0,-4.6301,-4.6301,0.0,0.0,0.0,0.0,0.0,0.0,0.0,0.0,-4.5648,-4.5999,-4.6301,-4.6301,-4.6301,-4.6301,-4.6301,-4.5874,-4.5547,-4.5497,-4.507,-4.4794,-4.4719,-4.5271,-4.5573,-4.5573,-4.605,-4.6301,-4.6301,-4.6301,-4.6301,-4.6301,-4.6301,-4.6301,-4.6301,-4.6301,-4.5579,-4.4269,-4.2925,-4.1591,-4.0361,-4.0361,-3.9464,-3.8164,-3.7985,-3.6941,-3.5499,-3.5499,-3.4612,-3.3418,-5.3985,-5.3734,-5.3734,-5.3734,-5.3734,-5.3862,-5.415,-5.4182,-5.431,-5.4557,-5.4983,-5.5239,-5.5239,-5.5633,-5.5676,-5.5201,-5.5158,-5.4755,-5.3897,-5.3835,-5.3658,-5.3223,-5.3174,-5.3174,-5.3174,-5.3563,-5.3773,-5.3773,-5.4461,-5.479,-5.479,-5.5059,-5.5179,-5.5179,-5.5179,-5.5179,-5.5179,-5.5179,-5.5179,-5.5179,-5.5179,-5.4458,-5.3384,-5.4016,-5.3332,-5.1835,-5.0324,-4.8851,-4.7593,-4.7593,-4.7027,0.0,0.0,0.0,0.0,-4.6301,0.0,0.0,0.0,0.0,0.0,0.0,0.0,0.0,-4.6301,0.0,-4.6301,0.0,0.0,0.0,0.0,0.0,0.0,0.0,-4.615,0.0,0.0,0.0,-4.6301,0.0,0.0,0.0,-4.6301,-4.5799,-4.5347,-4.502,-4.4769,-4.4493,-4.4166,-4.4694,-4.5146,-4.5472,-4.5723,-4.5999,-4.6301,-4.6301,-4.6301,-4.6301,-4.6301,-4.6301,-4.6301,-4.5974,-4.5397,-4.4535,-4.3606,-4.2725,-4.2012,-4.2012,-4.1615,-4.1019,-4.1019,-3.9464,-3.7084,-3.6173,-3.5376,-3.4674,-5.6278,-5.5791,-5.549,-5.549,-5.549,-5.5555,-5.575,-5.5783,-5.5848,-5.6084,-5.6572,-5.6897,-5.6897,-5.7395,-5.7563,-5.7268,-5.7268,-5.6721,-5.5363,-5.5271,-5.4835,-5.3762,-5.3743,-5.3743,-5.3743,-5.4221,-5.4491,-5.4491,-5.497,-5.5179,-5.5179,-5.5179,-5.5179,-5.5179,-5.5179,-5.5179,-5.5179,-5.5179,-5.5179,-5.5179,-5.5179,-5.5179,-5.5179,-5.5179,-5.4304,-5.2857,-5.1727,-5.038,-4.9022,-4.8647,-4.7802,-4.6815,-4.6421,-4.6301,-4.6301,0.0,0.0,0.0,-4.6301,0.0,0.0,0.0,0.0,0.0,0.0,0.0,0.0,0.0,0.0,0.0,0.0,0.0,-4.625,-4.61,0.0,-4.625,0.0,-4.6225,0.0,0.0,0.0,0.0,0.0,-4.5573,-4.502,-4.4443,-4.4267,-4.3991,-4.3589,-4.4091,-4.4593,-4.502,-4.5321,-4.5673,-4.6075,-4.6225,-4.6301,-4.6301,-4.6301,-4.6301,-4.6301,-4.5748,-4.5171,-4.4593,-4.4041,-4.3489,-4.2986,-4.2986,-4.2986,-4.2986,-4.2986,-4.1533,-3.9347,-3.7723,-3.682,-3.6295,-5.9937,-5.8788,-5.7808,-5.7808,-5.7808,-5.8045,-5.8751,-5.8852,-5.9122,-5.9836,-5.9933,-5.9971,-5.9971,-5.9967,-5.9588,-5.8533,-5.8452,-5.7761,-5.6062,-5.5984,-5.5708,-5.514,-5.5119,-5.5119,-5.5119,-5.5149,-5.5149,-5.5149,-5.5179,-5.5179,-5.5179,-5.5179,-5.5179,-5.5179,-5.5179,-5.5179,-5.5179,-5.5179,-5.5179,-5.5179,-5.5179,-5.5179,-5.5179,-5.5179,-5.4304,-5.2963,-5.2963,-5.1943,-5.0435,-4.8965,-4.8474,-4.821,-4.6755,-4.6301,-4.6301,0.0,0.0,0.0,0.0,-4.6301,-4.6301,-4.6301,0.0,0.0,0.0,0.0,-4.6301,0.0,0.0,0.0,0.0,-4.6301,-4.6125,-4.5598,-4.5974,0.0,0.0,0.0,0.0,0.0,0.0,0.0,0.0,-4.4995,-4.4418,0.0,-4.3338,-4.3011,-4.3011,-4.3539,-4.384,-4.384,-4.492,-4.5497,-4.5522,-4.605,-4.6301,-4.6301,-4.6301,-4.6301,-4.6301,-4.5748,-4.5171,-4.4593,-4.4041,-4.3489,-4.2986,-4.2986,-4.2986,-4.2986,-4.2986,-4.2905,-4.2681,-4.1019,-3.9464,-3.8104,-6.0114,-5.9708,-5.937,-5.937,-5.937,-5.9438,-5.9708,-5.9742,-5.981,-6.008,-6.0554,-6.0892,-6.0892,-6.1332,-6.1486,-6.1098,-6.1098,-6.0488,-5.9134,-5.8326,-5.7417,-5.6445,-5.5651,-5.5179,-5.5179,-5.5179,-5.5179,-5.5179,-5.5179,-5.5179,-5.5179,-5.5179,-5.5179,-5.5179,-5.5179,-5.5179,-5.5179,-5.5179,-5.5179,-5.5179,-5.5179,-5.5448,-5.5777,-5.5359,-5.4896,-5.4458,-5.4458,-5.3518,-5.2187,-5.1646,-5.0128,-4.8416,-4.7919,-4.7087,-4.6301,-4.6301,-4.6301,-4.6301,-4.6301,-4.6301,-4.6301,-4.6301,-4.6301,-4.6301,0.0,0.0,0.0,0.0,0.0,0.0,0.0,-4.6301,-4.625,-4.6075,-4.6175,-4.625,0.0,0.0,0.0,0.0,0.0,0.0,0.0,0.0,0.0,0.0,-4.3288,0.0,-4.2986,-4.3162,-4.3413,-4.379,-4.4166,-4.4543,-4.492,-4.5472,-4.5773,-4.5773,-4.6125,-4.6301,-4.6276,-4.5347,-4.4794,-4.4568,-4.3664,-4.3162,-4.2986,-4.2986,-4.2986,-4.2986,-4.2986,-4.2986,-4.2793,-4.1191,-4.0245,-3.9639,-6.0926,-6.0926,-6.0723,-6.0182,-6.0114,-6.0216,-6.0486,-6.052,-6.0622,-6.0892,-6.1366,-6.167,-6.167,-6.211,-6.2381,-6.2381,-6.2381,-6.1911,-6.0703,-5.987,-5.8902,-5.7668,-5.6493,-5.5819,-5.5819,-5.5401,-5.5179,-5.5179,-5.5179,-5.5179,-5.5179,-5.5179,-5.5179,-5.5179,-5.5179,-5.5179,-5.5179,-5.5179,-5.5179,-5.5209,-5.5448,-5.5777,-5.6188,-5.5957,-5.5718,-5.5508,-5.5269,-5.459,-5.3675,-5.3174,-5.1701,-4.993,-4.8877,-4.786,-4.6968,-4.6481,-4.6301,-4.6301,-4.6301,-4.6301,-4.6301,-4.6301,-4.6301,-4.6301,-4.6301,-4.6301,-4.6301,0.0,0.0,0.0,0.0,0.0,-4.6301,-4.6301,-4.6301,-4.6301,0.0,-4.6301,0.0,0.0,0.0,0.0,0.0,0.0,0.0,0.0,0.0,0.0,0.0,-4.2986,-4.3137,-4.3489,-4.3689,-4.3966,-4.4317,-4.4895,-4.5271,-4.5497,-4.5849,-4.6125,-4.6276,-4.5146,-4.4618,-4.4568,-4.3463,-4.2986,-4.2986,-4.2986,-4.2986,-4.2986,-4.2986,-4.2986,-4.2849,-4.1842,-4.1419,-4.1248,-6.2381,-6.2381,-6.1941,-6.0452,-6.0216,-6.0452,-6.1231,-6.1366,-6.1603,-6.2313,-6.2381,-6.2381,-6.2381,-6.2381,-6.2381,-6.2381,-6.2381,-6.1877,-6.0787,-6.0628,-6.0075,-5.8857,-5.7621,-5.6991,-5.6896,0.0,0.0,0.0,-5.5179,-5.5179,-5.5179,-5.5179,-5.5179,-5.5179,-5.5209,-5.5209,-5.5179,-5.5269,-5.5269,-5.5329,-5.5957,-5.6226,-5.6316,-5.6885,-5.6735,-5.6248,-5.5508,-5.5269,-5.5066,-5.3658,-5.3155,-5.2566,-4.9675,-4.8673,-4.821,-4.6815,-4.6361,-4.6301,-4.6301,-4.6301,-4.6301,-4.6301,-4.6301,-4.6301,-4.6301,-4.6301,-4.6301,0.0,0.0,0.0,0.0,0.0,-4.6301,-4.6301,-4.6301,-4.6301,-4.6301,0.0,0.0,0.0,0.0,0.0,0.0,0.0,0.0,0.0,0.0,0.0,0.0,-4.2986,-4.2986,-4.2986,-4.3489,-4.3765,-4.3765,-4.4317,-4.4869,-4.5447,-4.5472,-4.5773,-4.6276,-4.5171,-4.4644,-4.4568,-4.3489,-4.3011,-4.2986,-4.2986,-4.2986,-4.2986,-4.2986,-4.2986,-4.2986,-4.2986,-4.2986,-4.2793,-6.2381,-6.2381,-6.2279,-6.1873,-6.1806,-6.1873,-6.2076,-6.211,-6.2178,-6.2381,-6.2381,-6.2381,-6.2381,-6.2381,-6.2381,-6.2381,-6.2381,-6.2263,-6.1951,-6.1078,-6.0075,-5.8857,-5.7621,-5.659,-5.567,-5.5381,-5.5179,-5.5179,0.0,-5.5179,-5.5179,-5.5179,-5.5179,-5.5209,-5.5718,-5.5658,-5.5239,-5.6196,-5.6615,-5.6615,-5.6795,-5.7154,-5.7573,-5.7244,-5.7304,-5.7543,-5.6855,-5.6615,-5.6534,-5.6169,-5.4967,-5.3518,-5.2786,-5.0652,-4.8416,-4.8035,-4.7146,-4.6301,-4.6301,-4.6301,-4.6301,-4.6301,-4.6301,-4.6301,-4.6301,-4.6301,-4.6301,-4.6301,-4.6301,-4.6301,-4.6301,-4.6301,-4.6301,-4.6301,-4.6301,0.0,0.0,0.0,0.0,-4.6301,0.0,0.0,0.0,0.0,0.0,0.0,0.0,0.0,-4.2986,-4.2986,-4.2986,-4.2986,-4.3112,-4.3187,-4.3187,-4.374,-4.4292,-4.4844,-4.5271,-4.5773,-4.6276,-4.5573,-4.502,-4.4593,-4.389,-4.3363,-4.2986,-4.2986,-4.2986,-4.2986,-4.2986,-4.2986,-4.2986,-4.2986,-4.2986,-4.2905,-6.3362,-6.3362,-6.3362,-6.3362,-6.3362,-6.3125,-6.2482,-6.2651,-6.2888,-6.2888,-6.2888,-6.2888,-6.2888,-6.2888,-6.2888,-6.2888,-6.3193,-6.3362,-6.3362,-6.2729,-6.204,-6.1369,-5.9663,-5.8387,-5.7695,-5.6567,0.0,-5.6017,0.0,-5.6017,-5.6017,-5.6017,-5.6017,-5.6047,-5.6406,-5.6376,-5.6077,-5.6795,-5.7094,-5.7124,-5.7423,-5.7782,0.0,-5.8022,-5.8201,-5.8501,-5.8112,-5.7603,-5.7094,-5.7094,-5.6272,-5.5118,-5.4211,-5.2512,-5.0568,-4.893,-4.7919,-4.7146,-4.6481,-4.6301,-4.6301,-4.6301,-4.6301,-4.6301,-4.6301,-4.6301,-4.6301,-4.6301,-4.6301,-4.6301,-4.6301,-4.6301,-4.6301,0.0,0.0,0.0,0.0,0.0,0.0,0.0,-4.61,0.0,0.0,0.0,0.0,0.0,0.0,0.0,0.0,-4.2986,-4.2986,-4.2986,-4.2986,-4.2986,-4.2986,-4.3288,-4.384,-4.4618,-4.4945,-4.5522,-4.6301,-4.5748,-4.5171,-4.4593,-4.4041,-4.3489,-4.2986,-4.2986,-4.2986,-4.2986,-4.2986,-4.2986,-4.2986,-4.2986,-4.2986,-4.2986,-6.4613,-6.4613,-6.4613,-6.4613,-6.4613,-6.4174,-6.2888,-6.3226,-6.3666,-6.3666,-6.3666,-6.3666,-6.3666,-6.3666,-6.3666,-6.3666,-6.4241,-6.4613,-6.4613,-6.4613,-6.4498,-6.4375,-6.2332,-6.1031,-6.0659,-5.8458,-5.7303,0.0,-5.7094,-5.7094,-5.7094,-5.7094,-5.7094,-5.7094,-5.7184,-5.7274,0.0,-5.7274,-5.7274,-5.7423,-5.8022,-5.8261,-5.8321,-5.889,-5.9099,-5.9099,-5.9099,-5.8351,-5.7363,-5.7363,-5.7304,-5.6885,-5.49,-5.4157,-5.328,-5.0037,-4.882,-4.821,-4.6934,-4.6481,-4.6301,-4.6301,-4.6301,-4.6301,-4.6301,-4.6301,-4.6301,-4.6301,-4.6301,-4.6301,-4.6301,-4.6301,-4.6301,0.0,0.0,0.0,0.0,0.0,0.0,0.0,0.0,0.0,0.0,0.0,0.0,0.0,0.0,0.0,0.0,0.0,-4.2986,-4.2986,-4.2986,-4.2986,-4.2986,-4.2986,-4.3539,-4.4618,-4.4618,-4.5221,-4.6301,-4.5824,-4.5271,-4.4694,-4.4141,-4.3589,-4.3087,-4.3011,-4.2986,-4.2986,-4.2986,-4.2986,-4.2986,-4.2986,-4.2986,-4.2986,-6.4613,-6.4613,-6.4613,-6.4613,-6.4613,-6.4512,-6.4241,-6.4309,-6.441,-6.441,-6.441,-6.441,-6.441,-6.441,-6.441,-6.441,-6.4546,-6.4613,-6.4613,-6.4613,-6.4135,-6.315,-6.2683,-6.1491,-5.9447,-5.8987,-5.8217,0.0,-5.7094,-5.7094,-5.7094,-5.7094,-5.7094,-5.7124,-5.7693,0.0,-5.871,-5.8171,-5.8261,-5.877,-5.889,-5.8919,-5.8949,-5.9069,-5.9099,-5.9099,-5.9099,-5.8949,-5.874,-5.874,-5.8381,-5.7759,-5.6832,-5.5283,-5.3687,-5.2519,-5.0463,-4.8416,-4.821,-4.7265,-4.6301,-4.6301,-4.6301,-4.6301,-4.6301,-4.6301,-4.6301,-4.6301,-4.6301,-4.6301,-4.6301,-4.6301,-4.6301,-4.6301,0.0,0.0,0.0,0.0,0.0,0.0,0.0,-4.5271,0.0,0.0,0.0,0.0,0.0,-4.2986,-4.2986,-4.2986,-4.2986,-4.2986,-4.2986,-4.2986,-4.2986,-4.2986,-4.3539,-4.4618,-4.4618,-4.5221,-4.6301,-4.62,-4.5874,-4.5296,-4.4744,-4.4166,-4.3614,-4.3162,-4.2986,-4.2986,-4.2986,-4.2986,-4.2986,-4.2986,-4.2986,-4.2986,-6.573,-6.573,-6.573,-6.573,-6.573,-6.573,-6.573,-6.573,-6.5595,-6.5222,-6.5155,-6.5155,-6.5155,-6.5155,-6.5155,-6.5155,-6.5527,-6.573,-6.573,-6.573,-6.548,-6.4905,-6.4233,-6.3004,-6.1165,-6.0428,-5.943,-5.8141,-5.8141,-5.8141,-5.8141,-5.8141,-5.8141,-5.8141,0.0,-5.88,0.0,-5.877,-5.88,-5.9099,-5.9099,-5.9099,-5.9099,-5.9099,-5.9099,-5.9099,-5.9099,-5.9099,-5.9099,-5.9099,-5.889,-5.8441,-5.7423,-5.6407,-5.5219,-5.3516,-5.1972,-5.0629,-4.9847,-4.8563,-4.7416,-4.7416,-4.6874,-4.6301,-4.6301,-4.6301,-4.6301,-4.6301,-4.6301,-4.6301,-4.6301,-4.6301,-4.6301,-4.6301,-4.6301,0.0,0.0,0.0,0.0,0.0,0.0,0.0,0.0,0.0,0.0,0.0,0.0,-4.2986,-4.2986,-4.2986,-4.2986,-4.2986,-4.2986,-4.2986,-4.2986,-4.2986,-4.3539,-4.4618,-4.4618,-4.5221,-4.6301,-4.6301,-4.5999,-4.5472,-4.5196,-4.4593,-4.3765,-4.3212,-4.2986,-4.2986,-4.2986,-4.2986,-4.2986,-4.2986,-4.2986,-4.2986,-6.6812,-6.6812,-6.6812,-6.6812,-6.6812,-6.6812,-6.6812,-6.6812,-6.6609,-6.6,-6.5933,-6.5933,-6.5933,-6.5933,-6.5933,-6.5933,-6.6474,-6.6812,-6.6812,-6.6812,-6.6812,-6.6812,-6.5855,-6.4688,-6.3402,-6.2358,-6.1071,0.0,-5.9469,-5.9188,-5.868,-5.8979,-5.9099,-5.9099,-5.9099,-5.9099,-5.9099,-5.9099,-5.9099,-5.9099,-5.9099,-5.9099,-5.9099,-5.9099,-5.9099,-5.9099,-5.9099,-5.9099,-5.9099,-5.9099,-5.9099,-5.889,-5.7693,-5.7214,-5.6646,-5.4334,-5.3343,-5.2722,-5.1481,-4.9847,-4.8474,-4.8474,-4.7357,-4.6301,-4.6301,-4.6301,-4.6301,-4.6301,-4.6301,-4.6301,-4.6301,-4.6301,-4.6301,-4.6301,-4.6301,0.0,0.0,0.0,0.0,0.0,0.0,0.0,-4.4669,0.0,0.0,0.0,0.0,-4.2986,-4.2986,-4.2986,-4.2986,-4.2986,-4.2986,-4.2986,-4.2986,-4.2986,-4.3539,-4.4618,-4.4618,-4.5221,-4.6301,-4.6301,-4.6075,-4.5648,-4.5547,-4.4844,-4.3765,-4.3212,-4.2986,-4.2986,-4.2986,-4.2986,-4.2986,-4.2986,-4.2986,-4.2986,-6.6812,-6.6812,-6.6812,-6.6812,-6.6812,-6.6812,-6.6812,-6.6812,-6.6779,-6.6711,-6.6711,-6.6711,-6.6711,-6.6711,-6.6711,-6.6711,-6.6779,-6.6812,-6.6812,-6.6812,-6.6812,-6.6812,-6.6686,-6.6029,-6.4733,-6.4597,-6.3322,0.0,0.0,-5.9613,-5.7304,-5.853,-5.9099,-5.9099,-5.9099,-5.9099,-5.9099,-5.9099,-5.9099,-5.9099,-5.9099,-5.9099,-5.9099,-5.9099,-5.9099,-5.9099,-5.9099,-5.9099,-5.9099,-5.9099,-5.9099,-5.8979,-5.8261,-5.7603,-5.6944,-5.6153,-5.4538,-5.2963,-5.2804,-5.0685,-4.8474,-4.8474,-4.7357,-4.6301,-4.6301,-4.6301,-4.6301,-4.6301,-4.6301,-4.6301,-4.6301,-4.6301,-4.6301,-4.6301,-4.6301,0.0,0.0,0.0,-4.6301,0.0,0.0,0.0,0.0,-4.3664,0.0,0.0,-4.2986,-4.2986,-4.2986,-4.2986,-4.2986,-4.2986,-4.2986,-4.2986,-4.2986,-4.2986,-4.3539,-4.4618,-4.4618,-4.5221,-4.6301,-4.6301,-4.6276,-4.62,-4.5698,-4.4844,-4.3765,-4.3212,-4.2986,-4.2986,-4.2986,-4.2986,-4.2986,-4.2986,-4.2986,-4.2986,-6.6812,-6.6812,-6.6812,-6.6812,-6.6812,-6.6812,-6.6812,-6.6812,-6.6812,-6.6812,-6.6812,-6.6812,-6.6812,-6.6812,-6.6812,-6.6812,-6.6812,-6.6812,-6.6812,-6.6812,-6.6812,-6.6812,-6.6812,-6.5855,-6.3779,-6.3732,-6.2487,0.0,0.0,-5.9304,-5.8321,-5.886,-5.9099,-5.9099,-5.9099,-5.9099,-5.9099,-5.9099,-5.9099,-5.9099,-5.9099,-5.9099,-5.9099,-5.9099,-5.9099,-5.9099,-5.9099,-5.9099,-5.9099,-5.9099,-5.9099,-5.8979,-5.8321,-5.7932,-5.7513,-5.6466,-5.5597,-5.4857,-5.4422,-5.2804,-5.1181,-5.1181,-4.9422,-4.7652,-4.7652,-4.6934,-4.6301,-4.6301,-4.6301,-4.6301,-4.6301,-4.6301,-4.6301,-4.6301,-4.6301,-4.6301,0.0,0.0,0.0,0.0,0.0,0.0,0.0,-4.3915,0.0,0.0,0.0,-4.2986,-4.2986,-4.2986,-4.2986,-4.2986,-4.2986,-4.2986,-4.2986,-4.2986,-4.3539,-4.4618,-4.4618,-4.5221,-4.6301,-4.6301,-4.6301,-4.6276,-4.5723,-4.5045,-4.4242,-4.3689,-4.3263,-4.2986,-4.2986,-4.2986,-4.2986,-4.2986,-4.2986,-4.2986,-6.6812,-6.6812,-6.6812,-6.6812,-6.6812,-6.6812,-6.6812,-6.6812,-6.6812,-6.6812,-6.6812,-6.6812,-6.6812,-6.6812,-6.6812,-6.6812,-6.6812,-6.6812,-6.6812,-6.6812,-6.6812,-6.6812,-6.6812,-6.5767,-6.3623,-6.3576,-6.2291,-5.9683,-5.9683,-5.9288,-5.8501,-5.8501,-5.871,-5.9099,-5.9099,-5.9099,-5.9099,-5.9099,-5.9099,-5.9099,-5.9099,-5.9099,-5.9099,-5.9099,-5.9099,-5.9099,-5.9099,-5.9099,-5.9099,-5.9099,-5.9099,-5.9009,-5.856,-5.8291,-5.7902,-5.6765,-5.6368,-5.6017,-5.5359,-5.4119,-5.3016,-5.3016,-5.1071,-4.9022,-4.8589,-4.771,-4.6815,-4.6361,-4.6301,-4.6301,-4.6301,-4.6301,-4.6301,-4.6301,-4.6301,-4.6301,0.0,-4.6301,0.0,0.0,-4.5673,-4.507,-4.4669,-4.3991,0.0,0.0,0.0,-4.2986,-4.2986,-4.2986,-4.2986,-4.2986,-4.2986,-4.2986,-4.2986,-4.3137,-4.3689,-4.4618,-4.4794,-4.5372,-4.6301,-4.6301,-4.6301,-4.6276,-4.5723,-4.5246,-4.4819,-4.4091,-4.3564,-4.3212,-4.3037,-4.2986,-4.2986,-4.2986,-4.2986,-4.2986,-6.6812,-6.6812,-6.6812,-6.6812,-6.6812,-6.6812,-6.6812,-6.6812,-6.6812,-6.6812,-6.6812,-6.6812,-6.6812,-6.6812,-6.6812,-6.6812,-6.6812,-6.6812,-6.6812,-6.6812,-6.6812,-6.6812,-6.6812,-6.6192,-6.4914,-6.4869,-6.3606,-6.0989,0.0,-5.9655,-5.7124,-5.7124,-5.7842,-5.9099,-5.9099,-5.9099,-5.9099,-5.9099,-5.9099,-5.9099,-5.9099,-5.9099,-5.9099,-5.9099,-5.9099,-5.9099,-5.9099,-5.9099,-5.9099,-5.9099,-5.9099,-5.9099,-5.9099,-5.865,-5.7992,-5.7304,-5.6645,-5.6017,-5.5359,-5.4119,-5.3016,-5.3016,-5.1835,-5.0268,-4.8851,-4.8474,-4.8035,-4.6576,-4.6301,-4.6301,-4.6301,-4.6301,-4.6301,-4.6301,-4.6301,-4.6301,0.0,-4.6301,0.0,-4.6301,-4.5321,-4.4644,-4.4618,-4.3639,0.0,0.0,0.0,-4.2986,-4.2986,-4.2986,-4.2986,-4.2986,-4.2986,-4.2986,-4.2986,-4.3514,-4.4066,-4.4644,-4.5196,-4.5773,-4.6301,-4.6301,-4.6301,-4.6276,-4.5723,-4.5497,-4.5397,-4.4267,-4.379,-4.374,-4.3187,-4.2986,-4.2986,-4.2986,-4.2986,-4.2986,-6.6812,-6.6812,-6.6812,-6.6812,-6.6812,-6.6812,-6.6812,-6.6812,-6.6812,-6.6812,-6.6812,-6.6812,-6.6812,-6.6812,-6.6812,-6.6812,-6.6812,-6.6812,-6.6812,-6.6812,-6.6812,-6.6812,-6.5985,-6.4901,-6.3638,-6.2699,-6.1395,-5.9705,-5.9705,-5.9258,-5.8471,-5.8471,-5.868,-5.9099,-5.9099,-5.9099,-5.9099,-5.9099,-5.9099,-5.9099,-5.9099,-5.9099,-5.9099,-5.9099,-5.9099,-5.9099,-5.9099,-5.9099,-5.9099,-5.9099,-5.9099,-5.9099,-5.9099,-5.8949,-5.856,-5.7423,-5.6944,-5.6555,-5.5478,-5.4845,-5.4509,-5.4509,-5.3332,-5.2133,-5.1672,-4.9987,-4.8358,-4.7919,-4.6968,-4.6301,-4.6301,-4.6301,-4.6301,-4.6301,-4.6301,-4.6301,-4.6301,0.0,-4.6301,-4.6301,-4.5321,-4.4618,-4.4618,-4.3639,-4.2986,0.0,-4.2986,-4.2986,-4.2986,-4.2986,-4.2986,-4.2986,-4.2986,-4.2986,-4.2986,-4.3514,-4.4091,-4.4644,-4.5221,-4.5773,-4.6301,-4.6301,-4.6301,-4.6301,-4.6125,-4.5824,-4.5422,-4.4669,-4.4141,-4.374,-4.3187,-4.2986,-4.2986,-4.2986,-4.2986,-4.2986,-6.6812,-6.6812,-6.6812,-6.6812,-6.6812,-6.6812,-6.6812,-6.6812,-6.6812,-6.6812,-6.6812,-6.6812,-6.6812,-6.6812,-6.6812,-6.6812,-6.6812,-6.6812,-6.6812,-6.6812,-6.6567,-6.6105,-6.5304,-6.4059,-6.2291,-6.1445,-6.038,-5.9099,-5.9099,-5.9099,-5.9099,-5.9099,-5.9099,-5.9099,-5.9099,-5.9099,-5.9099,-5.9099,-5.9099,-5.9099,-5.9099,-5.9099,-5.9099,-5.9099,-5.9099,-5.9099,-5.9099,-5.9099,-5.9099,-5.9099,-5.9099,-5.9099,-5.9099,-5.9099,-5.883,-5.7483,-5.7094,-5.6825,-5.5538,-5.5179,-5.5179,-5.5179,-5.4509,-5.3675,-5.3121,-5.1071,-4.9194,-4.8589,-4.7769,-4.6968,-4.6421,-4.6301,-4.6301,-4.6301,-4.6301,-4.6301,-4.6301,-4.6301,-4.6225,0.0,0.0,-4.4543,-4.4342,-4.3514,-4.2986,-4.2986,-4.2986,-4.2986,-4.2986,-4.2986,-4.2986,-4.2986,-4.2986,-4.3087,-4.3288,-4.384,-4.4392,-4.4945,-4.5522,-4.5974,-4.6301,-4.6301,-4.6301,-4.6301,-4.6301,-4.6125,-4.5748,-4.5171,-4.4744,-4.4367,-4.3589,-4.3288,-4.3263,-4.3062,-4.2986,-4.2986,-6.6812,-6.6812,-6.6812,-6.6812,-6.6812,-6.6812,-6.6812,-6.6812,-6.6812,-6.6812,-6.6812,-6.6812,-6.6812,-6.6812,-6.6812,-6.6812,-6.6812,-6.6812,-6.6812,-6.6728,-6.6148,-6.4914,-6.4733,-6.3464,-6.104,-6.0887,-6.0276,-5.9099,-5.9099,-5.9099,-5.9099,-5.9099,-5.9099,-5.9099,-5.9099,-5.9099,-5.9099,-5.9099,-5.9099,-5.9099,-5.9099,-5.9099,-5.9099,-5.9099,-5.9099,-5.9099,-5.9099,-5.9099,-5.9099,-5.9099,-5.9099,-5.9099,-5.9099,-5.9099,-5.886,-5.7543,-5.7124,-5.6825,-5.5598,-5.5239,-5.5179,-5.5179,-5.5179,-5.4845,-5.3466,-5.1943,-5.0491,-4.908,-4.8762,-4.8242,-4.6874,-4.6541,-4.6481,-4.6481,-4.6361,-4.6301,-4.6301,-4.6301,-4.61,-4.5547,-4.497,-4.4418,-4.3865,-4.3288,-4.2986,-4.2986,-4.2986,-4.2986,-4.2986,-4.2986,-4.2986,-4.2986,-4.3011,-4.3288,-4.379,-4.4392,-4.497,-4.5547,-4.6075,-4.6301,-4.6301,-4.6301,-4.6301,-4.6301,-4.6301,-4.6301,-4.6276,-4.5723,-4.5497,-4.5372,-4.4292,-4.3865,-4.379,-4.3237,-4.3037,-4.3037,-6.6812,-6.6812,-6.6812,-6.6812,-6.6812,-6.6812,-6.6812,-6.6812,-6.6812,-6.6812,-6.6812,-6.6812,-6.6812,-6.6812,-6.6812,-6.6812,-6.6812,-6.6812,-6.6812,-6.5898,-6.5215,-6.4914,-6.2988,-6.1615,-6.0989,-6.0045,-5.9392,-5.9099,-5.9099,-5.9099,-5.9099,-5.9099,-5.9099,-5.9099,-5.9099,-5.9099,-5.9099,-5.9099,-5.9099,-5.9099,-5.9099,-5.9099,-5.9099,-5.9099,-5.9099,-5.9099,-5.9099,-5.9099,-5.9099,-5.9099,-5.9099,-5.9099,-5.9099,-5.9099,-5.8949,-5.8112,-5.7513,-5.6915,-5.6137,-5.5568,-5.5179,-5.5179,-5.5179,-5.5128,-5.4743,-5.3518,-5.2348,-5.2026,-5.1016,-5.0045,-4.9707,-4.8736,-4.7977,-4.7977,-4.7027,-4.6301,-4.6301,-4.6301,-4.61,-4.5547,-4.497,-4.4418,-4.3865,-4.3288,-4.2986,-4.2986,-4.2986,-4.2986,-4.2986,-4.2986,-4.2986,-4.2986,-4.3388,-4.3664,-4.379,-4.4794,-4.5573,-4.6125,-4.625,-4.6301,-4.6301,-4.6301,-4.6301,-4.6301,-4.6301,-4.6301,-4.6276,-4.5723,-4.5497,-4.5422,-4.4719,-4.4418,-4.4367,-4.3815,-4.3614,-4.3539,-6.6812,-6.6812,-6.6812,-6.6812,-6.6812,-6.6812,-6.6812,-6.6812,-6.6812,-6.6812,-6.6812,-6.6812,-6.6812,-6.6812,-6.6812,-6.6812,-6.6812,-6.6812,-6.6812,-6.6148,-6.526,-6.4091,-6.2682,-6.1344,-6.015,-5.9446,-5.9099,-5.9099,-5.9099,-5.9099,-5.9099,-5.9099,-5.9099,-5.9099,-5.9099,-5.9099,-5.9099,-5.9099,-5.9099,-5.9099,-5.9099,-5.9099,-5.9099,-5.9099,-5.9099,-5.9099,-5.9099,-5.9099,-5.9099,-5.9099,-5.9099,-5.9099,-5.9099,-5.9099,-5.9039,-5.868,-5.7872,-5.6944,-5.6346,-5.5688,-5.5179,-5.5179,-5.5179,-5.5179,-5.5179,-5.459,-5.3808,-5.3121,-5.2348,-5.1564,-5.0823,-4.9508,-4.8474,-4.8474,-4.7265,-4.6301,-4.6301,-4.6301,-4.5999,-4.5196,-4.4819,-4.4317,-4.3514,-4.3162,-4.2986,-4.2986,-4.2986,-4.2986,-4.2986,-4.2986,-4.2986,-4.2986,-4.3514,-4.3915,-4.4166,-4.5296,-4.6024,-4.6301,-4.6301,-4.6301,-4.6301,-4.6301,-4.6301,-4.6301,-4.6301,-4.6301,-4.6276,-4.5999,-4.5874,-4.5799,-4.5246,-4.502,-4.4945,-4.4392,-4.4192,-4.4141,-6.6812,-6.6812,-6.6812,-6.6812,-6.6812,-6.6812,-6.6812,-6.6812,-6.6812,-6.6812,-6.6812,-6.6812,-6.6812,-6.6812,-6.6812,-6.6812,-6.6812,-6.6812,-6.6812,-6.644,-6.5248,-6.31,-6.2617,-6.1407,-5.9153,-5.9099,-5.9099,-5.9099,-5.9099,-5.9099,-5.9099,-5.9099,-5.9099,-5.9099,-5.9099,-5.9099,-5.9099,-5.9099,-5.9099,-5.9099,-5.9099,-5.9099,-5.9099,-5.9099,-5.9099,-5.9099,-5.9099,-5.9099,-5.9099,-5.9099,-5.9099,-5.9099,-5.9099,-5.9099,-5.9099,-5.9099,-5.8231,-5.7124,-5.6466,-5.5777,-5.5179,-5.5179,-5.5179,-5.5179,-5.5179,-5.5179,-5.4845,-5.3571,-5.3361,-5.2963,-5.159,-5.0184,-4.908,-4.8851,-4.7802,-4.6815,-4.6361,-4.6695,-4.6383,-4.4802,-4.4792,-4.4396,-4.3143,-4.2986,-4.2986,-4.2986,-4.2986,-4.2986,-4.2986,-4.2986,-4.3011,-4.3112,-4.3639,-4.4242,-4.4869,-4.5824,-4.6301,-4.6301,-4.6301,-4.6301,-4.6301,-4.6301,-4.6301,-4.6301,-4.6301,-4.6301,-4.6301,-4.6301,-4.6301,-4.625,-4.5799,-4.5623,-4.5547,-4.497,-4.4744,-4.4744,-6.6812,-6.6812,-6.6812,-6.6812,-6.6812,-6.6812,-6.6812,-6.6812,-6.6812,-6.6812,-6.6812,-6.6812,-6.6812,-6.6812,-6.6812,-6.6812,-6.6812,-6.6812,-6.6812,-6.4811,-6.3434,-6.3004,-6.0897,-5.9553,-5.9099,-5.9099,-5.9099,-5.9099,-5.9099,-5.9099,-5.9099,-5.9099,-5.9099,-5.9099,-5.9099,-5.9099,-5.9099,-5.9099,-5.9099,-5.9099,-5.9099,-5.9099,-5.9099,-5.9099,-5.9099,-5.9099,-5.9099,-5.9099,-5.9099,-5.9099,-5.9099,-5.9099,-5.9099,-5.9099,-5.9099,-5.9099,-5.856,-5.7812,-5.7124,-5.6077,-5.5179,-5.5179,-5.5179,-5.5179,-5.5179,-5.5179,-5.5128,-5.4926,-5.4845,-5.4794,-5.456,-5.3308,-5.1917,-5.0546,-5.0157,-4.9167,-4.6636,-4.8447,-4.8682,-4.5034,-4.5773,-4.5589,-4.3255,-4.2986,-4.2986,-4.2986,-4.2986,-4.2986,-4.2986,-4.2986,-4.3187,-4.3664,-4.4217,-4.4995,-4.605,-4.6225,-4.6301,-4.6301,-4.6301,-4.6301,-4.6301,-4.6301,-4.6301,-4.6301,-4.6301,-4.6301,-4.6301,-4.6301,-4.6301,-4.6301,-4.6225,-4.6175,-4.6125,-4.5547,-4.5347,-4.5271,-6.6812,-6.6812,-6.6812,-6.6812,-6.6812,-6.6812,-6.6812,-6.6812,-6.6812,-6.6812,-6.6812,-6.6812,-6.6812,-6.6812,-6.6812,-6.6812,-6.6192,-6.5811,-6.5811,-6.4688,-6.3402,-6.1995,-6.0794,-5.9811,-5.9099,-5.9099,-5.9099,-5.9099,-5.9099,-5.9099,-5.9099,-5.9099,-5.9099,-5.9099,-5.9099,-5.9099,-5.9099,-5.9099,-5.9099,-5.9099,-5.9099,-5.9099,-5.9099,-5.9099,-5.9099,-5.9099,-5.9099,-5.9099,-5.9099,-5.9099,-5.9099,-5.9099,-5.9099,-5.9099,-5.9099,-5.9099,-5.8381,-5.7423,-5.6765,-5.5897,-5.5179,-5.5179,-5.5179,-5.5179,-5.5179,-5.5179,-5.5179,-5.5179,-5.5179,-5.5179,-5.5179,-5.3964,-5.2804,-5.2051,-5.1263,-5.0212,-4.8824,-4.982,-4.9884,-4.7711,-4.778,-4.7079,-4.4808,-4.4307,-4.3742,-4.3017,-4.2986,-4.2986,-4.2986,-4.2986,-4.3237,-4.379,-4.4644,-4.5472,-4.6301,-4.6301,-4.6301,-4.6301,-4.6301,-4.6301,-4.6301,-4.6301,-4.6301,-4.6301,-4.6301,-4.6301,-4.6301,-4.6301,-4.6301,-4.6301,-4.6301,-4.6301,-4.6276,-4.6024,-4.5924,-4.5899,-6.6812,-6.6812,-6.6812,-6.6812,-6.6812,-6.6812,-6.6812,-6.6812,-6.6812,-6.6812,-6.6812,-6.6812,-6.6812,-6.6812,-6.6686,-6.6363,-6.547,-6.4642,-6.4059,-6.4012,-6.3084,-6.1091,-6.0712,-6.0097,-5.9099,-5.9099,-5.9099,-5.9099,-5.9099,-5.9099,-5.9099,-5.9099,-5.9099,-5.9099,-5.9099,-5.9099,-5.9099,-5.9099,-5.9099,-5.9099,-5.9099,-5.9099,-5.9099,-5.9099,-5.9099,-5.9099,-5.9099,-5.9099,-5.9099,-5.9099,-5.9099,-5.9099,-5.9099,-5.9099,-5.9099,-5.9099,-5.8261,-5.7154,-5.6428,-5.5688,-5.5179,-5.5179,-5.5179,-5.5179,-5.5179,-5.5179,-5.5179,-5.5179,-5.5179,-5.5179,-5.5179,-5.4252,-5.3413,-5.3069,-5.2266,-5.1481,-5.0823,-5.1318,-5.1311,-5.0047,-4.9598,-4.8669,-4.6706,-4.5902,-4.4941,-4.3547,-4.3436,-4.3351,-4.3042,-4.2986,-4.3288,-4.3966,-4.497,-4.5748,-4.6301,-4.6301,-4.6301,-4.6301,-4.6301,-4.6301,-4.6301,-4.6301,-4.6301,-4.6301,-4.6301,-4.6301,-4.6301,-4.6301,-4.6301,-4.6301,-4.6301,-4.6301,-4.6301,-4.6301,-4.6301,-4.6301,-6.6812,-6.6812,-6.6812,-6.6812,-6.6812,-6.6812,-6.6812,-6.6812,-6.6812,-6.6812,-6.6812,-6.6812,-6.6812,-6.6812,-6.632,-6.5171,-6.4959,-6.3872,-6.1445,-6.1294,-6.1193,-6.0989,-5.9864,-5.9207,-5.9099,-5.9099,-5.9099,-5.9099,-5.9099,-5.9099,-5.9099,-5.9099,-5.9099,-5.9099,-5.9099,-5.9099,-5.9099,-5.9099,-5.9099,-5.9099,-5.9099,-5.9099,-5.9099,-5.9099,-5.9099,-5.9099,-5.9099,-5.9099,-5.9099,-5.9099,-5.9099,-5.9099,-5.9099,-5.9099,-5.9099,-5.9099,-5.859,-5.7782,-5.6526,-5.5688,-5.5179,-5.5179,-5.5179,-5.5179,-5.5179,-5.5179,-5.5179,-5.5179,-5.5179,-5.5179,-5.5179,-5.5128,-5.459,-5.3256,-5.4068,-5.3883,-5.1098,-5.3121,-5.3649,-5.0317,-5.0497,-5.0161,-4.8166,-4.735,-4.637,-4.4941,-4.4833,-4.4318,-4.3073,-4.2986,-4.3463,-4.4543,-4.5171,-4.5748,-4.6301,-4.6301,-4.6301,-4.6301,-4.6301,-4.6301,-4.6301,-4.6301,-4.6301,-4.6301,-4.6301,-4.6301,-4.6301,-4.6301,-4.6301,-4.6301,-4.6301,-4.6301,-4.6301,-4.6301,-4.6301,-4.6301,-6.6812,-6.6812,-6.6812,-6.6812,-6.6812,-6.6812,-6.6812,-6.6812,-6.6812,-6.6812,-6.6812,-6.6812,-6.6812,-6.6812,-6.6278,-6.5036,-6.4184,-6.2972,-6.1142,-6.0224,-5.9811,-5.9811,-5.9339,-5.9099,-5.9099,-5.9099,-5.9099,-5.9099,-5.9099,-5.9099,-5.9099,-5.9099,-5.9099,-5.9099,-5.9099,-5.9099,-5.9099,-5.9099,-5.9099,-5.9099,-5.9099,-5.9099,-5.9099,-5.9099,-5.9099,-5.9099,-5.9099,-5.9099,-5.9099,-5.9099,-5.9099,-5.9099,-5.9099,-5.9099,-5.9099,-5.9099,-5.865,-5.7932,-5.7004,-5.6286,-5.5718,-5.5299,-5.5179,-5.5179,-5.5179,-5.5179,-5.5179,-5.5179,-5.5179,-5.5179,-5.5179,-5.5179,-5.5027,-5.4458,-5.4845,-5.4794,-5.3675,-5.4458,-5.4705,-5.3325,-5.3077,-5.2201,-5.0155,-4.9405,-4.8257,-4.6449,-4.5502,-4.4779,-4.4264,-4.3767,-4.3689,-4.4091,-4.4669,-4.5397,-4.6301,-4.6301,-4.6301,-4.6301,-4.6301,-4.6301,-4.6301,-4.6301,-4.6301,-4.6301,-4.6301,-4.6301,-4.6301,-4.6301,-4.6301,-4.6301,-4.6301,-4.6301,-4.6301,-4.6301,-4.6301,-4.6301,-6.6812,-6.6812,-6.6812,-6.6812,-6.6812,-6.6812,-6.6812,-6.6812,-6.6812,-6.6812,-6.6812,-6.6812,-6.6812,-6.644,-6.569,-6.4414,-6.3116,-6.1796,-6.0484,-5.9576,-5.9099,-5.9099,-5.9099,-5.9099,-5.9099,-5.9099,-5.9099,-5.9099,-5.9099,-5.9099,-5.9099,-5.9099,-5.9099,-5.9099,-5.9099,-5.9099,-5.9099,-5.9099,-5.9099,-5.9099,-5.9099,-5.9099,-5.9099,-5.9099,-5.9099,-5.9099,-5.9099,-5.9099,-5.9099,-5.9099,-5.9099,-5.9099,-5.9099,-5.9099,-5.9099,-5.9099,-5.877,-5.8291,-5.7603,-5.6944,-5.6256,-5.5388,-5.5179,-5.5179,-5.5179,-5.5179,-5.5179,-5.5179,-5.5179,-5.5179,-5.5179,-5.5179,-5.5179,-5.5179,-5.5179,-5.5179,-5.5179,-5.5179,-5.5179,-5.5179,-5.461,-5.3545,-5.1909,-5.1166,-4.9952,-4.7915,-4.6837,-4.6135,-4.5661,-4.4681,-4.424,-4.4444,-4.4396,-4.4819,-4.5773,-4.5949,-4.6125,-4.6301,-4.6301,-4.6301,-4.6301,-4.6301,-4.6301,-4.6301,-4.6301,-4.6301,-4.6301,-4.6301,-4.6301,-4.6301,-4.6301,-4.6301,-4.6301,-4.6301,-4.6301,-4.6301,-6.6812,-6.6812,-6.6812,-6.6812,-6.6812,-6.6812,-6.6812,-6.6812,-6.6812,-6.6812,-6.6812,-6.6812,-6.677,-6.5646,-6.4368,-6.31,-6.1746,-6.0484,-5.9207,-5.9099,-5.9099,-5.9099,-5.9099,-5.9099,-5.9099,-5.9099,-5.9099,-5.9099,-5.9099,-5.9099,-5.9099,-5.9099,-5.9099,-5.9099,-5.9099,-5.9099,-5.9099,-5.9099,-5.9099,-5.9099,-5.9099,-5.9099,-5.9099,-5.9099,-5.9099,-5.9099,-5.9099,-5.9099,-5.9099,-5.9099,-5.9099,-5.9099,-5.9099,-5.9099,-5.9099,-5.9099,-5.9099,-5.8949,-5.8291,-5.7633,-5.6795,-5.5508,-5.5179,-5.5179,-5.5179,-5.5179,-5.5179,-5.5179,-5.5179,-5.5179,-5.5179,-5.5179,-5.5179,-5.5179,-5.5179,-5.5179,-5.5179,-5.5179,-5.5179,-5.5179,-5.461,-5.3952,-5.3264,-5.2606,-5.1361,-4.9366,-4.921,-4.8589,-4.7197,-4.5767,-4.5258,-4.5864,-4.4556,-4.4066,-4.4618,-4.5196,-4.5748,-4.6301,-4.6301,-4.6301,-4.6301,-4.6301,-4.6301,-4.6301,-4.6301,-4.6301,-4.6301,-4.6301,-4.6301,-4.6301,-4.6301,-4.6301,-4.6301,-4.6301,-4.6301,-4.6301,-6.6812,-6.6812,-6.6812,-6.6812,-6.6812,-6.6812,-6.6812,-6.6812,-6.6812,-6.6812,-6.6812,-6.6482,-6.5559,-6.5126,-6.4012,-6.1796,-6.1243,-6.0484,-5.9207,-5.9099,-5.9099,-5.9099,-5.9099,-5.9099,-5.9099,-5.9099,-5.9099,-5.9099,-5.9099,-5.9099,-5.9099,-5.9099,-5.9099,-5.9099,-5.9099,-5.9099,-5.9099,-5.9099,-5.9099,-5.9099,-5.9099,-5.9099,-5.9099,-5.9099,-5.9099,-5.9099,-5.9099,-5.9099,-5.9099,-5.9099,-5.9099,-5.9099,-5.9099,-5.9099,-5.9099,-5.9099,-5.9099,-5.8949,-5.8291,-5.7962,-5.7513,-5.6196,-5.5538,-5.5179,-5.5179,-5.5179,-5.5179,-5.5179,-5.5179,-5.5179,-5.5179,-5.5179,-5.5179,-5.5179,-5.5179,-5.5179,-5.5179,-5.5179,-5.5179,-5.5179,-5.5029,-5.4431,-5.3294,-5.2995,-5.2252,-5.0739,-4.9727,-4.8589,-4.7197,-4.6682,-4.6583,-4.6746,-4.5366,-4.4918,-4.5515,-4.5087,-4.497,-4.5121,-4.5547,-4.5723,-4.5748,-4.6125,-4.6301,-4.6301,-4.6301,-4.6301,-4.6301,-4.6301,-4.6301,-4.6301,-4.6301,-4.6301,-4.6301,-4.6301,-4.6301,-4.6301,-6.6812,-6.6812,-6.6812,-6.6812,-6.6812,-6.6812,-6.6812,-6.6812,-6.6812,-6.6812,-6.6812,-6.632,-6.5036,-6.446,-6.3307,-6.1193,-6.0536,-5.9917,-5.9153,-5.9099,-5.9099,-5.9099,-5.9099,-5.9099,-5.9099,-5.9099,-5.9099,-5.9099,-5.9099,-5.9099,-5.9099,-5.9099,-5.9099,-5.9099,-5.9099,-5.9099,-5.9099,-5.9099,-5.9099,-5.9099,-5.9099,-5.9099,-5.9099,-5.9099,-5.9099,-5.9099,-5.9099,-5.9099,-5.9099,-5.9099,-5.9099,-5.9099,-5.9099,-5.9099,-5.9099,-5.9099,-5.9099,-5.9009,-5.862,-5.8321,-5.7932,-5.7124,-5.6256,-5.5508,-5.5239,-5.5179,-5.5179,-5.5179,-5.5179,-5.5179,-5.5179,-5.5179,-5.5179,-5.5179,-5.5179,-5.5179,-5.5179,-5.5179,-5.5179,-5.5179,-5.5179,-5.467,-5.3324,-5.3174,-5.2636,-5.1319,-5.046,-4.963,-4.8738,-4.8239,-4.7909,-4.7909,-4.6526,-4.5742,-4.5548,-4.5033,-4.4713,-4.4618,-4.497,-4.5146,-4.5171,-4.5723,-4.5974,-4.5999,-4.6225,-4.6301,-4.6301,-4.6301,-4.6301,-4.6301,-4.6301,-4.6301,-4.6301,-4.6301,-4.6301,-4.6301,-6.6812,-6.6812,-6.6812,-6.6812,-6.6812,-6.6812,-6.6812,-6.6812,-6.6812,-6.6812,-6.6728,-6.6148,-6.4869,-6.3591,-6.2291,-6.0969,-5.9758,-5.9099,-5.9099,-5.9099,-5.9099,-5.9099,-5.9099,-5.9099,-5.9099,-5.9099,-5.9099,-5.9099,-5.9099,-5.9099,-5.9099,-5.9099,-5.9099,-5.9099,-5.9099,-5.9099,-5.9099,-5.9099,-5.9099,-5.9099,-5.9099,-5.9099,-5.9099,-5.9099,-5.9099,-5.9099,-5.9099,-5.9099,-5.9099,-5.9099,-5.9099,-5.9099,-5.9099,-5.9099,-5.9099,-5.9099,-5.9099,-5.9099,-5.9099,-5.865,-5.8201,-5.8141,-5.7244,-5.6166,-5.5448,-5.5239,-5.5179,-5.5179,-5.5179,-5.5179,-5.5179,-5.5179,-5.5179,-5.5179,-5.5179,-5.5179,-5.5179,-5.5179,-5.5179,-5.5179,-5.5179,-5.467,-5.3324,-5.3084,-5.2516,-5.1319,-5.1229,-5.1229,-5.1229,-5.0047,-4.9357,-4.9357,-4.8038,-4.6682,-4.5395,-4.5262,-4.4947,-4.4468,-4.4518,-4.4543,-4.4568,-4.5146,-4.5447,-4.5522,-4.6024,-4.6276,-4.6301,-4.6301,-4.6301,-4.6301,-4.6301,-4.6301,-4.6301,-4.6301,-4.6301,-4.6301,-6.6812,-6.6812,-6.6812,-6.6812,-6.6812,-6.6812,-6.6812,-6.6812,-6.6812,-6.6812,-6.5942,-6.4823,-6.3544,-6.2242,-6.0918,-5.9629,-5.9261,-5.9099,-5.9099,-5.9099,-5.9099,-5.9099,-5.9099,-5.9099,-5.9099,-5.9099,-5.9099,-5.9099,-5.9099,-5.9099,-5.9099,-5.9099,-5.9099,-5.9099,-5.9099,-5.9099,-5.9099,-5.9099,-5.9099,-5.9099,-5.9099,-5.9099,-5.9099,-5.9099,-5.9099,-5.9099,-5.9099,-5.9099,-5.9099,-5.9099,-5.9099,-5.9099,-5.9099,-5.9099,-5.9099,-5.9099,-5.9099,-5.9099,-5.9099,-5.9009,-5.877,-5.8261,-5.7902,-5.7393,-5.6226,-5.5568,-5.5179,-5.5179,-5.5179,-5.5179,-5.5179,-5.5179,-5.5179,-5.5179,-5.5179,-5.5179,-5.5179,-5.5179,-5.5179,-5.5179,-5.5179,-5.467,-5.3324,-5.2247,-5.1528,-5.1229,-5.1229,-5.1229,-5.1229,-5.0917,-5.0745,-5.0745,-4.9455,-4.8589,-4.8289,-4.7197,-4.5529,-4.3338,-4.3765,-4.3991,-4.3991,-4.4543,-4.5045,-4.5497,-4.5623,-4.5899,-4.6301,-4.6301,-4.6301,-4.6301,-4.6301,-4.6301,-4.6301,-4.6301,-4.6301,-4.6301,-6.6812,-6.6812,-6.6812,-6.6812,-6.6812,-6.6812,-6.6812,-6.6812,-6.6812,-6.6812,-6.569,-6.4414,-6.3148,-6.1796,-6.0484,-5.9207,-5.9099,-5.9099,-5.9099,-5.9099,-5.9099,-5.9099,-5.9099,-5.9099,-5.9099,-5.9099,-5.9099,-5.9099,-5.9099,-5.9099,-5.9099,-5.9099,-5.9099,-5.9099,-5.9099,-5.9099,-5.9099,-5.9099,-5.9099,-5.9099,-5.9099,-5.9099,-5.9099,-5.9099,-5.9099,-5.9099,-5.9099,-5.9099,-5.9099,-5.9099,-5.9099,-5.9099,-5.9099,-5.9099,-5.9099,-5.9099,-5.9099,-5.9099,-5.9099,-5.9099,-5.9009,-5.868,-5.8351,-5.7782,-5.6466,-5.5897,-5.5568,-5.5269,-5.5179,-5.5179,-5.5179,-5.5179,-5.5179,-5.5179,-5.5179,-5.5179,-5.5179,-5.5179,-5.5179,-5.5179,-5.5179,-5.467,-5.3324,-5.2007,-5.1229,-5.1229,-5.1229,-5.1229,-5.1229,-5.1229,-5.1229,-5.1229,-5.0508,-4.9824,-4.921,-4.8489,-4.6682,-4.3962,-4.427,-4.4036,-4.3438,-4.3991,-4.4543,-4.5095,-4.5372,-4.5799,-4.6301,-4.6301,-4.6301,-4.6301,-4.6301,-4.6301,-4.6301,-4.6301,-4.6301,-4.6301,-6.6812,-6.6812,-6.6812,-6.6812,-6.6812,-6.6812,-6.6812,-6.6812,-6.6812,-6.6812,-6.569,-6.4414,-6.3148,-6.1596,-6.0255,-5.9207,-5.9099,-5.9099,-5.9099,-5.9099,-5.9099,-5.9099,-5.9099,-5.9099,-5.9099,-5.9099,-5.9099,-5.9099,-5.9099,-5.9099,-5.9099,-5.9099,-5.9099,-5.9099,-5.9099,-5.9099,-5.9099,-5.9099,-5.9099,-5.9099,-5.9099,-5.9099,-5.9099,-5.9099,-5.9099,-5.9099,-5.9099,-5.9099,-5.9099,-5.9099,-5.9099,-5.9099,-5.9099,-5.9099,-5.9099,-5.9099,-5.9099,-5.9099,-5.9099,-5.9099,-5.9099,-5.9099,-5.871,-5.7992,-5.6765,-5.6346,-5.6068,-5.5478,-5.5269,-5.5179,-5.5179,-5.5179,-5.5179,-5.5179,-5.5179,-5.5179,-5.5179,-5.5179,-5.5179,-5.5179,-5.4999,-5.4371,-5.3144,-5.1917,-5.1229,-5.1229,-5.1229,-5.1229,-5.1229,-5.1229,-5.1229,-5.1229,-5.1229,-5.065,-4.9582,-4.9504,-4.8139,-4.5342,-4.5342,-4.4535,-4.2986,-4.3463,-4.3966,-4.4518,-4.5095,-4.5648,-4.6175,-4.6276,-4.6301,-4.6301,-4.6301,-4.6301,-4.6301,-4.6301,-4.6301,-4.6301,-6.6812,-6.6812,-6.6812,-6.6812,-6.6812,-6.6812,-6.6812,-6.6812,-6.6812,-6.6812,-6.569,-6.4414,-6.3148,-6.0794,-5.9285,-5.9099,-5.9099,-5.9099,-5.9099,-5.9099,-5.9099,-5.9099,-5.9099,-5.9099,-5.9099,-5.9099,-5.9099,-5.9099,-5.9099,-5.9099,-5.9099,-5.9099,-5.9099,-5.9099,-5.9099,-5.9099,-5.9099,-5.9099,-5.9099,-5.9099,-5.9099,-5.9099,-5.9099,-5.9099,-5.9099,-5.9099,-5.9099,-5.9099,-5.9099,-5.9099,-5.9099,-5.9099,-5.9099,-5.9099,-5.9099,-5.9099,-5.9099,-5.9099,-5.9099,-5.9099,-5.9099,-5.9099,-5.9039,-5.877,-5.8022,-5.6974,-5.6188,-5.6047,-5.5598,-5.5179,-5.5179,-5.5179,-5.5179,-5.5179,-5.5179,-5.5179,-5.5179,-5.5179,-5.5179,-5.5179,-5.4162,-5.3144,-5.2396,-5.1648,-5.1229,-5.1229,-5.1229,-5.1229,-5.1229,-5.1229,-5.1229,-5.1229,-5.1229,-5.1105,-5.0917,-5.0917,-4.9582,-4.6837,-4.6837,-4.5449,-4.2986,-4.3062,-4.3388,-4.394,-4.4493,-4.507,-4.5623,-4.6125,-4.6301,-4.6301,-4.6301,-4.6301,-4.6301,-4.6301,-4.6301,-4.6301,-6.6812,-6.6812,-6.6812,-6.6812,-6.6812,-6.6812,-6.6812,-6.6812,-6.6812,-6.6812,-6.569,-6.4414,-6.3148,-6.0671,-5.9099,-5.9099,-5.9099,-5.9099,-5.9099,-5.9099,-5.9099,-5.9099,-5.9099,-5.9099,-5.9099,-5.9099,-5.9099,-5.9099,-5.9099,-5.9099,-5.9099,-5.9099,-5.9099,-5.9099,-5.9099,-5.9099,-5.9099,-5.9099,-5.9099,-5.9099,-5.9099,-5.9099,-5.9099,-5.9099,-5.9099,-5.9099,-5.9099,-5.9099,-5.9099,-5.9099,-5.9099,-5.9099,-5.9099,-5.9099,-5.9099,-5.9099,-5.9099,-5.9099,-5.9099,-5.9099,-5.9099,-5.9099,-5.9099,-5.9039,-5.874,-5.7932,-5.7064,-5.6368,-5.5658,-5.5179,-5.5179,-5.5179,-5.5179,-5.5179,-5.5179,-5.5179,-5.5179,-5.5179,-5.5059,-5.47,-5.3773,-5.2935,-5.2276,-5.1588,-5.1229,-5.1229,-5.1229,-5.1229,-5.1229,-5.1229,-5.1229,-5.1229,-5.1229,-5.1229,-5.1229,-5.1229,-4.9824,-4.7094,-4.7094,-4.5661,-4.2986,-4.2986,-4.3288,-4.384,-4.4392,-4.4945,-4.5522,-4.6075,-4.6301,-4.6301,-4.6301,-4.6301,-4.6301,-4.6301,-4.6301,-4.6301]},{"header":{"parameterUnit":"m.s-1","parameterCategory":1,"la1":30.6,"la2":28.766,"lo1":-90.7593,"lo2":-88.6598,"dy":0.0162,"dx":0.0183,"nx":116,"ny":114,"refTime":"2024-05-09T00:00:00:Z","depth":0,"parameterNumber":3,"parameterNumberName":"V-component_of_WINDS"},"data":[0.0,0.0,0.0,0.0,0.0,0.0,0.0,0.0,0.0,0.0,0.0,0.0,0.0,0.0,0.0,0.0,0.0,0.0,0.0,0.0,0.0,0.0,0.0,0.0,0.0,0.0,0.0,0.0,0.0,0.0,0.0,0.0,0.0,0.0,0.0,0.0,0.0,0.0,0.0,0.0,0.0,0.0,0.0,0.0,0.0,0.0,0.0,0.0,0.0,0.0,0.0,0.0,0.0,0.0,0.0,0.0,0.0,0.0,0.0,0.0,0.0,0.0,0.0,0.0,0.0,0.0,0.0,0.0,0.0,0.0,0.0,0.0,0.0,0.0,0.0,0.0,0.0,0.0,0.0,0.0,0.0,0.0,0.0,0.0,0.0,0.0,0.0,0.0,0.0,0.0,0.0,0.0,0.0,0.0,0.0,0.0,0.0,0.0,0.0,0.0,0.0,0.0,0.0,0.0,0.0,0.0,0.0,0.0,0.0,0.0,0.0,0.0,0.0,0.0,0.0,0.0,0.0,0.0,0.0,0.0,0.0,0.0,0.0,0.0,0.0,0.0,0.0,0.0,0.0,0.0,0.0,0.0,0.0,0.0,0.0,0.0,0.0,0.0,0.0,0.0,0.0,0.0,0.0,0.0,0.0,0.0,0.0,0.0,0.0,0.0,0.0,0.0,0.0,0.0,0.0,0.0,0.0,0.0,0.0,0.0,0.0,0.0,0.0,0.0,0.0,0.0,0.0,0.0,0.0,0.0,0.0,0.0,0.0,0.0,0.0,0.0,0.0,0.0,0.0,0.0,0.0,0.0,0.0,0.0,0.0,0.0,0.0,0.0,0.0,0.0,0.0,0.0,0.0,0.0,0.0,0.0,0.0,0.0,0.0,0.0,0.0,0.0,0.0,0.0,0.0,0.0,0.0,0.0,0.0,0.0,0.0,0.0,0.0,0.0,0.0,0.0,0.0,0.0,0.0,0.0,0.0,0.0,0.0,0.0,0.0,0.0,0.0,0.0,0.0,0.0,0.0,0.0,0.0,0.0,0.0,0.0,0.0,0.0,0.0,0.0,0.0,0.0,0.0,0.0,0.0,0.0,0.0,0.0,0.0,0.0,0.0,0.0,0.0,0.0,0.0,0.0,0.0,0.0,0.0,0.0,0.0,0.0,0.0,0.0,0.0,0.0,0.0,0.0,0.0,0.0,0.0,0.0,0.0,0.0,0.0,0.0,0.0,0.0,0.0,0.0,0.0,0.0,0.0,0.0,0.0,0.0,0.0,0.0,0.0,0.0,0.0,0.0,0.0,0.0,0.0,0.0,0.0,0.0,0.0,0.0,0.0,0.0,0.0,0.0,0.0,0.0,0.0,0.0,0.0,0.0,0.0,0.0,0.0,0.0,0.0,0.0,0.0,0.0,0.0,0.0,0.0,0.0,0.0,0.0,0.0,0.0,0.0,0.0,0.0,0.0,0.0,0.0,0.0,0.0,0.0,0.0,0.0,0.0,0.0,0.0,0.0,0.0,0.0,0.0,0.0,0.0,0.0,0.0,0.0,0.0,0.0,0.0,0.0,0.0,0.0,0.0,0.0,0.0,0.0,0.0,0.0,0.0,0.0,0.0,0.0,0.0,0.0,0.0,0.0,0.0,0.0,0.0,0.0,0.0,0.0,0.0,0.0,0.0,0.0,0.0,0.0,0.0,0.0,0.0,0.0,0.0,0.0,0.0,0.0,0.0,0.0,0.0,0.0,0.0,0.0,0.0,0.0,0.0,0.0,0.0,0.0,0.0,0.0,0.0,0.0,0.0,0.0,0.0,0.0,0.0,0.0,0.0,0.0,0.0,0.0,0.0,0.0,0.0,0.0,0.0,0.0,0.0,0.0,0.0,0.0,0.0,0.0,0.0,0.0,0.0,0.0,0.0,0.0,0.0,0.0,0.0,0.0,0.0,0.0,0.0,0.0,0.0,0.0,0.0,0.0,0.0,0.0,0.0,0.0,0.0,0.0,0.0,0.0,0.0,0.0,0.0,0.0,0.0,0.0,0.0,0.0,0.0,0.0,0.0,0.0,0.0,0.0,0.0,0.0,0.0,0.0,0.0,0.0,0.0,0.0,0.0,0.0,0.0,0.0,0.0,0.0,0.0,0.0,0.0,0.0,0.0,0.0,0.0,0.0,0.0,0.0,0.0,0.0,0.0,0.0,0.0,0.0,0.0,0.0,0.0,0.0,0.0,0.0,0.0,0.0,0.0,0.0,0.0,0.0,0.0,0.0,0.0,0.0,0.0,0.0,0.0,0.0,0.0,0.0,0.0,0.0,0.0,0.0,0.0,0.0,0.0,0.0,0.0,0.0,0.0,0.0,0.0,0.0,0.0,0.0,0.0,0.0,0.0,0.0,0.0,0.0,0.0,0.0,0.0,0.0,0.0,0.0,0.0,0.0,0.0,0.0,0.0,0.0,0.0,0.0,0.0,0.0,0.0,0.0,0.0,0.0,0.0,0.0,0.0,0.0,0.0,0.0,0.0,0.0,0.0,0.0,0.0,0.0,0.0,0.0,0.0,0.0,0.0,0.0,0.0,0.0,0.0,0.0,0.0,0.0,0.0,0.0,0.0,0.0,0.0,0.0,0.0,0.0,0.0,0.0,0.0,0.0,0.0,0.0,0.0,0.0,0.0,0.0,0.0,0.0,0.0,0.0,0.0,0.0,0.0,0.0,0.0,0.0,0.0,0.0,0.0,0.0,0.0,0.0,0.0,0.0,0.0,0.0,0.0,0.0,0.0,0.0,0.0,0.0,0.0,0.0,0.0,0.0,0.0,0.0,0.0,0.0,0.0,0.0,0.0,0.0,0.0,0.0,0.0,0.0,0.0,0.0,0.0,0.0,0.0,0.0,0.0,0.0,0.0,0.0,0.0,0.0,0.0,0.0,0.0,0.0,0.0,0.0,0.0,0.0,0.0,0.0,0.0,0.0,0.0,0.0,0.0,0.0,0.0,0.0,0.0,0.0,0.0,0.0,0.0,0.0,0.0,0.0,0.0,0.0,0.0,0.0,0.0,0.0,0.0,0.0,0.0,0.0,0.0,0.0,0.0,0.0,0.0,0.0,0.0,0.0,0.0,0.0,0.0,0.0,0.0,0.0,0.0,0.0,0.0,0.0,0.0,0.0,0.0,0.0,0.0,0.0,0.0,0.0,0.0,0.0,0.0,0.0,0.0,0.0,0.0,0.0,0.0,0.0,0.0,0.0,0.0,0.0,0.0,0.0,0.0,0.0,0.0,0.0,0.0,0.0,0.0,0.0,0.0,0.0,0.0,0.0,0.0,0.0,0.0,0.0,0.0,0.0,0.0,0.0,0.0,0.0,0.0,0.0,0.0,0.0,0.0,0.0,0.0,0.0,0.0,0.0,0.0,0.0,0.0,0.0,0.0,0.0,0.0,0.0,0.0,0.0,0.0,0.0,0.0,0.0,0.0,0.0,0.0,0.0,0.0,0.0,0.0,0.0,0.0,0.0,0.0,0.0,0.0,0.0,0.0,0.0,0.0,0.0,0.0,0.0,0.0,0.0,0.0,0.0,0.0,0.0,0.0,0.0,0.0,0.0,0.0,0.0,0.0,0.0,0.0,0.0,0.0,0.0,0.0,0.0,0.0,0.0,0.0,0.0,0.0,0.0,0.0,0.0,0.0,0.0,0.0,0.0,0.0,0.0,0.0,0.0,0.0,0.0,0.0,0.0,0.0,0.0,0.0,0.0,0.0,0.0,0.0,0.0,0.0,0.0,0.0,0.0,0.0,0.0,0.0,0.0,0.0,0.0,0.0,0.0,0.0,0.0,0.0,0.0,0.0,0.0,0.0,0.0,0.0,0.0,0.0,0.0,0.0,0.0,0.0,0.0,0.0,0.0,0.0,0.0,0.0,0.0,0.0,0.0,0.0,0.0,0.0,0.0,0.0,0.0,0.0,0.0,0.0,0.0,0.0,0.0,0.0,0.0,0.0,0.0,0.0,0.0,0.0,0.0,0.0,0.0,0.0,0.0,0.0,0.0,0.0,0.0,0.0,0.0,0.0,0.0,0.0,0.0,0.0,0.0,0.0,0.0,0.0,0.0,0.0,0.0,0.0,0.0,0.0,0.0,0.0,0.0,0.0,0.0,0.0,0.0,0.0,0.0,0.0,0.0,0.0,0.0,0.0,0.0,0.0,0.0,0.0,0.0,0.0,0.0,0.0,0.0,0.0,0.0,0.0,0.0,0.0,0.0,0.0,0.0,0.0,0.0,0.0,0.0,0.0,0.0,0.0,0.0,0.0,0.0,0.0,0.0,0.0,0.0,0.0,0.0,0.0,0.0,0.0,0.0,0.0,0.0,0.0,0.0,0.0,0.0,0.0,0.0,0.0,0.0,0.0,0.0,0.0,0.0,0.0,0.0,0.0,0.0,0.0,0.0,0.0,0.0,0.0,0.0,0.0,0.0,0.0,0.0,0.0,0.0,0.0,0.0,0.0,0.0,0.0,0.0,0.0,0.0,0.0,0.0,0.0,0.0,0.0,0.0,0.0,0.0,0.0,0.0,0.0,0.0,0.0,0.0,0.0,0.0,0.0,0.0,0.0,0.0,0.0,0.0,0.0,0.0,0.0,0.0,0.0,0.0,0.0,0.0,0.0,0.0,0.0,0.0,0.0,0.0,0.0,0.0,0.0,0.0,0.0,0.0,0.0,0.0,0.0,0.0,0.0,0.0,0.0,0.0,0.0,0.0,0.0,0.0,0.0,0.0,0.0,0.0,0.0,0.0,0.0,0.0,0.0,0.0,0.0,0.0,0.0,0.0,0.0,0.0,0.0,0.0,0.0,0.0,0.0,0.0,0.0,0.0,0.0,0.0,0.0,0.0,0.0,0.0,0.0,0.0,0.0,0.0,0.0,0.0,0.0,0.0,0.0,0.0,0.0,0.0,0.0,0.0,0.0,0.0,0.0,0.0,0.0,0.0,0.0,0.0,0.0,0.0,0.0,0.0,0.0,0.0,0.0,0.0,0.0,0.0,0.0,0.0,0.0,0.0,0.0,0.0,0.0,0.0,0.0,0.0,0.0,0.0,0.0,0.0,0.0,0.0,0.0,0.0,0.0,0.0,0.0,0.0,0.0,0.0,0.0,0.0,0.0,0.0,0.0,0.0,0.0,0.0,0.0,0.0,0.0,0.0,0.0,0.0,0.0,0.0,0.0,0.0,0.0,0.0,0.0,0.0,0.0,0.0,0.0,0.0,0.0,0.0,0.0,0.0,0.0,0.0,0.0,0.0,0.0,0.0,0.0,0.0,0.0,0.0,0.0,0.0,0.0,0.0,0.0,0.0,0.0,0.0,0.0,0.0,0.0,0.0,0.0,0.0,0.0,0.0,0.0,0.0,0.0,0.0,0.0,0.0,0.0,0.0,0.0,0.0,0.0,0.0,0.0,0.0,0.0,0.0,0.0,0.0,0.0,0.0,0.0,0.0,0.0,0.0,0.0,0.0,0.0,0.0,0.0,0.0,0.0,0.0,0.0,0.0,0.0,0.0,0.0,0.0,0.0,0.0,0.0,0.0,0.0,0.0,0.0,0.0,0.0,0.0,0.0,0.0,0.0,0.0,0.0,0.0,0.0,0.0,0.0,0.0,0.0,0.0,0.0,0.0,0.0,0.0,0.0,0.0,0.0,0.0,0.0,0.0,0.0,0.0,0.0,0.0,0.0,0.0,0.0,0.0,0.0,0.0,0.0,0.0,0.0,0.0,0.0,0.0,0.0,0.0,0.0,0.0,0.0,0.0,0.0,0.0,0.0,0.0,0.0,0.0,0.0,0.0,0.0,0.0,0.0,0.0,0.0,0.0,0.0,0.0,0.0,0.0,0.0,0.0,0.0,0.0,0.0,0.0,0.0,0.0,0.0,0.0,0.0,0.0,0.0,0.0,0.0,0.0,0.0,0.0,0.0,0.0,0.0,0.0,0.0,0.0,0.0,0.0,0.0,0.0,0.0,0.0,0.0,0.0,0.0,0.0,0.0,0.0,0.0,0.0,0.0,0.0,0.0,0.0,0.0,0.0,0.0,0.0,0.0,0.0,0.0,0.0,0.0,0.0,0.0,0.0,0.0,4.3687,4.3388,0.0,0.0,0.0,0.0,0.0,0.0,0.0,0.0,0.0,0.0,0.0,0.0,0.0,0.0,0.0,0.0,0.0,0.0,0.0,0.0,0.0,0.0,0.0,4.2409,4.2728,4.3385,4.3443,4.3597,4.3963,4.4311,0.0,0.0,0.0,0.0,4.4507,4.4179,4.3999,4.3999,4.3999,4.3999,4.4021,4.3928,4.39,4.3914,0.0,0.0,0.0,0.0,0.0,0.0,0.0,0.0,0.0,0.0,0.0,0.0,0.0,0.0,0.0,0.0,0.0,0.0,0.0,0.0,0.0,0.0,0.0,0.0,0.0,0.0,0.0,0.0,0.0,0.0,0.0,0.0,0.0,0.0,0.0,0.0,0.0,0.0,0.0,0.0,0.0,0.0,0.0,0.0,0.0,0.0,0.0,0.0,0.0,0.0,0.0,0.0,0.0,0.0,0.0,0.0,0.0,0.0,0.0,0.0,0.0,0.0,0.0,0.0,0.0,0.0,0.0,0.0,0.0,0.0,4.4394,4.387,0.0,0.0,0.0,0.0,0.0,0.0,0.0,0.0,0.0,0.0,0.0,0.0,0.0,0.0,0.0,0.0,0.0,0.0,0.0,0.0,0.0,4.2306,4.2752,4.2947,4.3276,4.3863,4.391,4.3945,4.412,4.4214,4.4284,4.4284,4.4284,4.4284,4.4284,4.4167,4.412,4.412,4.412,4.412,4.4096,4.4281,4.4272,4.412,4.4237,0.0,0.0,0.0,0.0,0.0,0.0,0.0,0.0,0.0,0.0,0.0,0.0,0.0,0.0,0.0,0.0,0.0,0.0,0.0,0.0,0.0,0.0,0.0,0.0,0.0,0.0,0.0,0.0,0.0,0.0,0.0,0.0,0.0,0.0,0.0,0.0,0.0,0.0,0.0,0.0,0.0,0.0,0.0,0.0,0.0,0.0,0.0,0.0,0.0,0.0,0.0,0.0,0.0,0.0,0.0,0.0,0.0,0.0,0.0,0.0,0.0,0.0,0.0,4.6786,4.6786,4.6786,4.6786,4.6786,4.6718,4.5529,4.4987,4.4953,4.4282,0.0,0.0,0.0,0.0,0.0,0.0,0.0,0.0,0.0,0.0,0.0,0.0,0.0,0.0,0.0,0.0,0.0,0.0,0.0,4.2302,4.238,4.2404,4.2683,4.3408,4.3476,4.3783,4.449,4.501,4.5284,4.5284,4.5284,4.5284,4.5284,4.478,4.4524,4.4524,4.4524,4.4524,4.4524,4.4544,4.4544,4.4552,4.5062,4.5284,4.5335,0.0,0.0,0.0,0.0,0.0,0.0,0.0,0.0,0.0,0.0,0.0,0.0,0.0,0.0,0.0,0.0,0.0,0.0,0.0,0.0,0.0,0.0,0.0,0.0,0.0,0.0,0.0,0.0,0.0,0.0,0.0,0.0,0.0,0.0,0.0,0.0,0.0,0.0,0.0,0.0,0.0,4.3715,4.4422,0.0,0.0,0.0,0.0,0.0,0.0,0.0,0.0,0.0,0.0,0.0,0.0,0.0,4.6786,4.6786,4.6786,4.6786,4.6786,4.6786,4.6786,4.6786,4.6786,4.6786,4.6786,4.6583,0.0,4.6481,4.638,0.0,0.0,0.0,0.0,0.0,0.0,0.0,0.0,0.0,0.0,0.0,0.0,0.0,0.0,0.0,0.0,0.0,0.0,0.0,0.0,0.0,4.3301,4.3707,4.4045,4.4079,4.4215,4.4581,4.4824,4.4981,4.4981,4.5398,4.5603,4.5603,4.5365,4.4993,4.4615,4.4993,4.5196,4.5229,4.5635,4.5867,4.5833,4.6113,4.5774,4.4981,4.5267,0.0,0.0,0.0,0.0,0.0,0.0,0.0,0.0,0.0,0.0,0.0,0.0,0.0,0.0,0.0,0.0,0.0,0.0,0.0,0.0,0.0,0.0,0.0,0.0,0.0,0.0,0.0,0.0,0.0,0.0,0.0,0.0,0.0,0.0,0.0,0.0,0.0,0.0,0.0,4.502,4.5432,4.5771,4.6109,4.6312,0.0,0.0,0.0,0.0,0.0,0.0,0.0,0.0,0.0,4.8003,4.8037,4.8037,4.8037,4.8037,4.8037,4.8037,4.8037,4.8037,4.8037,4.8037,4.8037,4.8007,4.7479,4.7541,4.797,4.7124,4.6786,4.6752,0.0,0.0,0.0,0.0,4.5867,4.5867,0.0,0.0,0.0,0.0,0.0,0.0,0.0,0.0,0.0,0.0,0.0,0.0,4.3707,4.4215,4.4615,4.4615,4.4615,4.4682,4.4886,4.4857,4.4987,4.5156,4.5669,4.5974,4.5974,4.5974,4.5703,4.5156,4.5703,4.5974,4.6007,4.6549,4.6786,4.6786,4.6786,4.6177,4.5156,4.5156,4.5156,4.5156,0.0,0.0,0.0,0.0,0.0,0.0,0.0,0.0,0.0,0.0,0.0,0.0,0.0,0.0,0.0,0.0,0.0,0.0,0.0,0.0,0.0,0.0,0.0,0.0,0.0,0.0,0.0,0.0,0.0,0.0,0.0,0.0,0.0,0.0,0.0,0.0,0.0,4.6447,4.6786,4.6786,4.6955,4.709,0.0,0.0,0.0,0.0,0.0,0.0,4.8173,4.8206,4.8443,4.8984,4.9187,4.9289,4.9289,4.9458,4.956,4.956,4.956,4.9434,4.9179,4.9466,4.9274,4.8726,4.8134,4.8134,4.8457,4.7156,4.6779,4.6992,4.6824,4.6723,4.6723,4.6794,4.6786,4.6786,0.0,0.0,0.0,0.0,0.0,0.0,0.0,0.0,0.0,0.0,0.0,4.4547,4.4547,4.4581,4.4615,4.4615,4.4615,4.4919,4.5602,4.5635,4.5974,4.665,4.6718,4.6718,4.6718,4.6718,4.6718,4.6684,4.6718,4.6718,4.6752,4.6786,4.6786,4.6786,4.6786,4.6752,4.6684,4.6684,4.6684,4.6684,4.6684,0.0,0.0,0.0,0.0,0.0,0.0,0.0,0.0,0.0,0.0,0.0,0.0,0.0,0.0,0.0,0.0,0.0,0.0,0.0,0.0,0.0,0.0,0.0,0.0,0.0,0.0,0.0,0.0,0.0,0.0,0.0,0.0,0.0,0.0,0.0,0.0,0.0,0.0,4.6786,4.7428,0.0,0.0,0.0,0.0,4.8883,4.8883,4.8917,4.8951,4.8951,4.8951,4.9018,4.9661,5.0033,5.0033,5.0744,5.1116,5.1116,5.1116,5.0592,4.9682,5.0658,5.0024,4.813,4.8513,4.8148,4.7237,4.6538,4.677,4.7473,4.6781,4.6518,4.6548,4.6723,4.6786,4.6786,0.0,0.0,0.0,0.0,0.0,4.387,4.4113,4.4181,4.4282,4.4581,4.4615,4.4615,4.4615,4.4615,4.4615,4.4615,4.4615,4.4891,4.5669,4.5703,4.6041,4.6752,4.7259,4.753,4.753,4.753,4.7293,4.6786,4.7293,4.753,4.753,4.8003,4.8206,4.8206,4.8206,4.8206,4.8139,4.7192,4.6786,4.6786,4.6786,4.6786,0.0,0.0,0.0,0.0,0.0,0.0,0.0,0.0,0.0,0.0,0.0,0.0,0.0,0.0,0.0,0.0,0.0,0.0,0.0,0.0,0.0,0.0,0.0,0.0,0.0,0.0,0.0,0.0,0.0,0.0,0.0,0.0,0.0,0.0,0.0,0.0,0.0,4.8206,4.8443,0.0,4.8612,4.8849,4.9018,4.9018,4.9018,4.9221,4.9661,4.9695,4.9932,5.0405,5.0676,5.1048,5.1522,5.1792,5.2164,5.2706,5.2706,5.2235,5.1397,5.173,5.0894,4.9118,4.8644,4.8192,4.7649,4.6214,4.6053,4.6664,4.6403,4.6306,4.6308,4.6386,4.6388,4.652,0.0,0.0,0.0,4.4615,4.4615,4.4615,4.4615,4.4355,4.427,4.4559,4.4355,4.427,4.4587,4.4615,4.4716,4.4925,4.4959,4.5399,4.638,4.6148,4.6455,4.7496,4.8003,4.8274,4.8274,4.8274,4.8037,4.753,4.8037,4.8274,4.8277,4.8781,4.9018,4.9018,4.9018,4.9018,4.8951,4.797,4.753,4.753,4.753,4.753,4.753,0.0,0.0,0.0,0.0,0.0,0.0,0.0,0.0,0.0,0.0,0.0,0.0,0.0,0.0,0.0,0.0,0.0,0.0,0.0,0.0,0.0,0.0,0.0,0.0,0.0,0.0,0.0,0.0,0.0,0.0,0.0,0.0,0.0,0.0,4.8714,4.8892,4.8576,4.8798,4.8962,4.8914,4.8882,4.8983,4.9219,4.9219,4.9586,5.029,5.0291,5.0824,5.1929,5.1462,5.1829,5.3078,5.2942,5.3312,5.4262,5.385,5.32,5.235,5.2314,5.1299,4.9541,4.8796,4.8229,4.7692,4.6001,4.5513,4.5927,4.6008,4.5896,4.5778,4.6067,4.6208,4.6279,0.0,4.4615,4.4615,4.4615,4.4615,4.4615,4.4615,4.3889,4.3651,4.4468,4.3856,4.3651,4.4497,4.4615,4.4919,4.5635,4.5737,4.6317,4.774,4.7032,4.7268,4.8954,4.9018,4.9018,4.9018,4.9018,4.9018,4.9018,4.9018,4.9018,4.9018,4.9018,4.9018,4.9018,4.9018,4.9018,4.9018,4.9018,4.9018,4.9018,4.9018,4.9018,4.9018,0.0,0.0,0.0,0.0,0.0,0.0,0.0,0.0,0.0,0.0,0.0,0.0,0.0,0.0,0.0,0.0,0.0,0.0,0.0,0.0,0.0,0.0,0.0,0.0,0.0,0.0,0.0,0.0,0.0,0.0,0.0,0.0,0.0,4.8798,4.8892,4.8576,4.7671,4.8386,4.888,4.8693,4.8658,4.892,4.9643,4.9709,5.0037,5.0763,5.0758,5.1545,5.3382,5.2015,5.233,5.4564,5.424,5.4605,5.5712,5.4568,5.3524,5.2549,5.2397,5.1236,4.9329,4.899,4.8271,4.7249,4.5933,4.5364,4.5357,4.5577,4.5356,4.4949,4.5809,4.617,4.6138,4.4615,4.4615,4.4615,4.4615,4.4615,4.4615,4.4615,4.4384,4.4327,4.4587,4.4384,4.4327,4.4587,4.506,4.5466,4.5703,4.6177,4.6585,4.687,4.7252,4.7962,4.8984,4.9018,4.9018,4.9018,4.9018,4.9018,4.9018,4.9018,4.9018,4.9018,4.9018,4.9018,4.9018,4.9018,4.9018,4.9018,4.9018,4.9018,4.9018,4.9018,4.9018,4.9018,0.0,0.0,0.0,0.0,0.0,0.0,0.0,0.0,0.0,0.0,0.0,0.0,0.0,0.0,0.0,0.0,0.0,0.0,0.0,0.0,0.0,0.0,0.0,0.0,0.0,0.0,0.0,0.0,0.0,0.0,0.0,4.7036,4.6662,4.6902,4.6968,4.706,4.7265,4.754,4.7834,4.8228,4.8703,4.9052,4.9245,4.9727,5.0305,5.1051,5.1077,5.1553,5.261,5.2693,5.3262,5.4421,5.485,5.5205,5.5604,5.5319,5.4484,5.3204,5.3163,5.2167,5.0414,5.0314,4.9677,4.8656,4.7818,4.7189,4.6664,4.5785,4.5334,4.5122,4.4926,4.4987,4.519,4.4615,4.4615,4.4615,4.4615,4.4615,4.4615,4.4615,4.4298,4.4179,4.4559,4.4298,4.4313,4.4998,4.5432,4.5974,4.6583,4.7022,4.7353,4.7526,4.8065,4.8391,4.8416,4.8798,4.9018,4.9018,4.9018,4.9018,4.9018,4.9018,4.9018,4.9018,4.9018,4.9018,4.9018,4.9018,4.9018,4.9018,4.9018,4.9018,4.9018,4.9018,4.9018,4.9018,4.9018,4.9018,4.9018,4.9018,4.9018,4.9018,4.9018,0.0,0.0,0.0,0.0,0.0,0.0,0.0,0.0,0.0,0.0,0.0,0.0,0.0,0.0,0.0,0.0,0.0,0.0,0.0,0.0,0.0,0.0,0.0,0.0,4.618,4.5861,4.5453,4.6081,4.6825,4.736,4.7755,4.8211,4.8772,4.9135,4.9473,4.9796,5.0416,5.1108,5.1842,5.2115,5.2839,5.4007,5.3545,5.3878,5.5251,5.5221,5.5455,5.5975,5.553,5.49,5.4069,5.3309,5.2352,5.1361,5.0781,5.0243,4.9613,4.8955,4.8476,4.7967,0.0,0.0,0.0,0.0,4.465,4.4594,4.4615,4.4615,4.4615,4.4615,4.4615,4.4615,4.4615,4.3948,4.3743,4.4603,4.4048,4.4171,4.565,4.5906,4.6481,4.777,4.7973,4.8308,4.8951,4.8892,4.8513,4.7803,4.8545,4.9018,4.9018,4.9018,4.9018,4.9018,4.9018,4.9018,4.9018,4.9018,4.9018,4.9018,4.9018,4.9018,4.9018,4.9018,4.9018,4.9018,4.9018,4.9018,4.9018,4.9018,4.9018,4.9018,4.9018,4.9018,4.9018,4.9018,0.0,0.0,0.0,0.0,0.0,0.0,0.0,0.0,0.0,0.0,0.0,0.0,0.0,0.0,0.0,0.0,0.0,0.0,0.0,0.0,0.0,0.0,0.0,0.0,4.531,4.5415,4.4738,4.6106,4.7347,4.7627,4.8459,4.9221,4.9707,4.9816,5.0143,5.0814,5.1541,5.2264,5.2894,5.3421,0.0,0.0,0.0,5.426,5.6227,5.5362,5.5362,5.6227,5.5299,5.4792,5.4653,5.3071,5.2306,5.2247,5.0943,5.0405,5.0345,4.9673,4.9389,4.912,4.7249,4.6082,4.5394,4.5394,4.5005,4.4436,4.4615,4.4615,4.4615,4.4615,4.4615,4.4615,4.4615,4.444,4.4614,4.537,4.5322,4.5563,4.6515,4.7124,4.7567,4.7872,4.8443,4.8849,4.8984,4.8289,4.8129,4.8702,4.8892,4.9018,4.9018,4.9018,4.9018,4.9018,4.9018,4.9018,4.9018,4.9018,4.9018,4.9018,4.9018,4.9018,4.9018,4.9018,4.9018,4.9018,4.9018,4.9018,4.9018,4.9018,4.9018,4.9018,4.9018,4.9018,4.9018,4.9018,4.9018,4.9018,4.9018,4.9018,0.0,0.0,0.0,0.0,0.0,0.0,0.0,0.0,0.0,0.0,0.0,0.0,0.0,0.0,0.0,0.0,0.0,0.0,0.0,4.5549,4.5431,4.5703,4.6604,4.7051,4.728,4.7382,4.7994,4.8672,4.9312,5.0321,5.0938,5.1104,5.2248,5.2971,5.3139,5.3242,5.3507,5.3836,5.3928,5.4228,5.4637,5.4986,5.4986,5.4637,5.4424,0.0,5.3531,5.32,5.2995,5.2935,5.2157,5.1828,5.1738,5.0541,4.9733,4.9209,4.8267,4.7189,4.6142,4.6142,4.5693,4.5095,4.4637,4.4615,4.4615,4.4615,4.4615,4.4615,4.4615,4.4891,4.5263,4.5669,4.6007,4.6549,4.7259,4.7699,4.8041,4.8443,4.8781,4.9018,4.9018,4.8545,4.8513,4.8987,4.9018,4.9018,4.9018,4.9018,4.9018,4.9018,4.9018,4.9018,4.9018,4.9018,4.9018,4.9018,4.9018,4.9018,4.9018,4.9018,4.9018,4.9018,4.9018,4.9018,4.9018,4.9018,4.9018,4.9018,4.9018,4.9018,4.9018,4.9018,4.9018,4.9018,4.9018,4.8671,4.8289,0.0,0.0,0.0,0.0,0.0,0.0,0.0,0.0,0.0,0.0,0.0,0.0,0.0,0.0,4.5397,4.585,0.0,4.5504,4.5504,4.5936,4.6531,4.7219,4.8147,4.8775,4.8775,4.9075,4.9643,5.0631,5.1319,5.1858,5.2187,5.3114,5.3683,5.3683,5.4012,5.4192,5.4192,5.4521,5.47,5.47,5.5029,5.5029,5.47,5.47,5.4521,5.4162,5.3832,5.3683,5.3653,5.2995,5.2516,5.2127,5.1139,5.0331,4.9733,4.9404,4.8446,4.7279,4.692,4.6381,4.5813,4.472,4.4615,4.4615,4.4615,4.4615,4.4615,4.4615,4.5229,4.5771,4.5906,4.6549,4.7293,4.8007,4.8108,4.8376,4.8951,4.9018,4.9018,4.9018,4.9018,4.9018,4.9018,4.9018,4.9018,4.9018,4.9018,4.9018,4.9018,4.9018,4.9018,4.9018,4.9018,4.9018,4.9018,4.9018,4.9018,4.9018,4.9018,4.9018,4.9018,4.9018,4.9018,4.9018,4.9018,4.9018,4.8987,4.8798,4.8736,4.8671,4.8513,4.8482,4.8482,4.8482,4.7933,4.734,4.734,4.6662,0.0,0.0,0.0,0.0,0.0,0.0,0.0,0.0,0.0,4.3953,4.5531,4.5141,4.474,4.5485,4.5576,4.5544,4.5663,4.6711,4.7578,4.7848,4.9179,5.0285,5.0554,5.0584,5.0973,5.2097,5.2426,5.2815,5.3324,5.4012,5.4401,5.4401,5.5029,5.5388,5.5388,5.5508,5.5568,5.5568,5.5568,5.5508,5.5388,5.5388,5.5329,5.5179,5.464,5.4401,5.4371,5.3683,5.2935,5.2157,5.1618,5.102,5.0375,5.0255,4.9583,4.8566,4.7788,4.707,4.6459,4.472,4.4615,4.4615,4.4615,4.4615,4.4615,4.4615,4.5229,4.594,4.6583,4.7327,4.8071,4.8815,4.8883,4.8917,4.8984,4.9018,4.9018,4.9018,4.9018,4.9018,4.9018,4.9018,4.9018,4.9018,4.9018,4.9018,4.9018,4.9018,4.9018,4.9018,4.9018,4.9018,4.9018,4.9018,4.9018,4.9018,4.9018,4.9018,4.9018,4.9018,4.9018,4.9018,4.9018,4.9018,4.8892,4.8064,4.777,4.7638,4.6765,4.6523,4.6523,4.6523,4.6419,4.6349,4.6349,4.5706,4.4962,4.4962,4.432,4.3615,4.3615,4.3536,4.3488,0.0,0.0,4.4237,4.4449,4.4869,4.5226,4.535,4.5837,4.6411,4.698,4.7698,4.8566,4.9717,5.0046,5.0614,5.1828,5.1977,5.2037,5.2187,5.3294,5.4012,5.4072,5.47,5.5089,5.5089,5.5718,5.6128,5.6128,5.6585,5.6885,5.6885,5.6885,5.6615,5.6128,5.6128,5.5748,5.5179,5.5119,5.5089,5.5029,5.4371,5.3384,5.2187,5.2127,5.1708,5.105,5.0435,5.0106,4.9837,4.8626,4.7758,4.7189,4.5241,4.4824,4.4615,4.4615,4.4615,4.475,4.5162,4.5872,4.6616,4.7361,4.8105,4.868,4.8984,4.9018,4.9018,4.9018,4.9018,4.9018,4.9018,4.9018,4.9018,4.9018,4.9018,4.9018,4.9018,4.9018,4.9018,4.9018,4.9018,4.9018,4.9018,4.9018,4.9018,4.9018,4.9018,4.9018,4.9018,4.9018,4.9018,4.9018,4.9018,4.9018,4.8923,4.8385,4.8193,4.8129,4.7737,4.7239,0.0,4.6314,4.6208,4.6208,4.6208,4.585,4.5379,4.5379,4.4668,0.0,4.3927,4.3615,4.329,0.0,4.3589,4.3858,4.3858,4.4407,4.4885,4.4885,4.5424,4.5903,4.5903,4.677,4.7549,0.0,4.8745,4.9568,5.0106,5.0853,5.1588,5.2127,5.2905,5.3354,5.3354,5.3892,5.4371,5.476,5.5029,5.5359,5.5748,5.6017,5.6346,5.6705,5.6944,5.7094,5.7094,5.7094,5.6974,5.6705,5.6346,5.6017,5.5748,5.5359,5.5179,5.5149,5.4491,5.3653,5.2725,5.2366,5.1798,5.1199,5.0853,5.0524,5.0076,4.9194,4.8446,4.7878,4.5399,4.4906,4.4615,4.4615,4.4784,4.506,4.5635,4.6515,4.7293,4.7804,4.8545,4.9018,4.9018,4.9018,4.9018,4.9018,4.9018,4.9018,4.9018,4.9018,4.9018,4.9018,4.9018,4.9018,4.9018,4.9018,4.9018,4.9018,4.9018,4.9018,4.9018,4.9018,4.9018,4.9018,4.9018,4.9018,4.9018,4.9018,4.9018,4.9018,4.9018,4.9018,4.8923,4.8257,4.7671,4.7172,4.6934,4.6384,4.5778,4.5493,4.5384,4.5384,4.5384,4.4899,4.4396,4.4396,4.3888,4.329,4.329,0.0,0.0,4.3559,4.4107,4.4586,4.4586,4.5095,4.5574,4.5574,4.6112,4.6651,4.683,4.7638,4.8416,4.8775,4.9613,5.0255,5.0435,5.1498,5.2276,5.2456,5.3503,5.4281,5.4461,5.4491,5.467,5.5149,5.5359,5.5658,5.6188,5.6526,5.6915,5.7363,5.7543,5.7663,5.7663,5.7663,5.7543,5.7363,5.6915,5.6526,5.6188,5.5478,5.5179,5.5149,5.47,5.4102,5.3414,5.2755,5.2067,5.1468,5.1289,5.0883,5.0405,4.9972,4.9284,4.8536,4.4852,4.4615,4.4615,4.4615,4.5196,4.5669,4.5703,4.6925,4.7872,4.7906,4.8545,4.9018,4.9018,4.9018,4.9018,4.9018,4.9018,4.9018,4.9018,4.9018,4.9018,4.9018,4.9018,4.9018,4.9018,4.9018,4.9018,4.9018,4.9018,4.9018,4.9018,4.9018,4.9018,4.9018,4.9018,4.9018,4.9018,4.9018,4.9018,4.9018,4.9018,4.9018,4.9018,4.8987,4.7836,4.6103,4.5227,4.4887,4.4699,4.3732,4.3409,4.3409,4.3409,4.3369,0.0,4.3329,4.3329,4.329,4.329,4.3768,4.4287,4.4287,4.4766,4.5274,4.5274,4.5813,4.6249,4.6249,4.68,4.7459,4.8117,4.8267,4.8686,4.9927,5.0166,5.0405,5.1109,5.1768,5.2426,5.3084,5.3773,5.4461,0.0,5.5149,5.5179,5.5179,5.5777,5.6188,5.6218,5.7363,5.8082,5.8082,5.871,5.9039,5.9039,5.9039,5.871,5.8082,5.8082,5.7393,5.6188,5.5478,5.5179,5.5179,5.5179,5.479,5.4132,5.3443,5.2755,5.2097,5.1468,5.1199,5.1199,5.1169,5.0331,4.9179,4.5372,4.4879,4.475,4.5229,4.594,4.6583,4.709,4.7567,4.8075,4.8578,4.8849,0.0,0.0,0.0,0.0,0.0,4.9018,4.9018,4.9018,4.9018,4.9018,4.9018,4.9018,4.9018,4.9018,4.9018,4.9018,4.9018,4.9018,4.9018,4.9018,4.9018,4.9018,4.9018,4.9018,4.9018,4.9018,4.9018,4.9018,4.9018,4.9018,4.9018,4.8861,4.7638,4.673,4.5996,0.0,4.381,4.3732,4.3409,4.329,4.329,4.329,4.329,0.0,4.329,4.329,4.3379,4.3828,4.4137,4.4436,4.4855,4.5484,4.5963,4.5963,4.6501,4.698,4.698,4.7489,4.8027,4.8237,4.8985,4.9687,5.0136,5.0554,5.1109,5.1768,5.2426,5.3114,5.3773,5.4461,0.0,0.0,0.0,0.0,5.5179,5.5807,5.6346,5.6765,5.7633,5.8321,5.877,5.8979,5.9099,5.9099,5.9099,5.9009,5.877,5.7872,5.7004,5.6188,5.5478,5.5179,5.5179,5.5179,5.482,5.4162,5.3473,5.2785,5.2127,5.1468,5.1229,5.1229,5.1229,5.093,5.0451,0.0,4.5196,4.509,4.5625,4.6312,0.0,0.0,0.0,0.0,0.0,0.0,0.0,0.0,0.0,0.0,0.0,0.0,4.9018,4.9018,4.9018,4.9018,4.9018,4.9018,4.9018,4.9018,4.9018,4.9018,4.9018,4.9018,4.9018,4.9018,4.9018,4.9018,4.9018,4.9018,4.9018,4.9018,4.9018,4.9018,4.8954,4.8639,4.8513,4.8321,4.6765,4.5996,0.0,4.4282,4.3606,4.329,4.329,4.329,4.329,4.329,4.3439,0.0,4.3648,4.3798,4.4137,4.4556,4.4855,4.5125,4.5574,4.6172,4.6681,4.6681,4.701,4.7309,4.7309,4.7818,4.8356,4.8596,4.9523,5.0255,5.0495,5.0913,5.1439,5.2097,5.2755,5.3443,5.4132,5.479,5.5179,0.0,0.0,0.0,5.5538,5.6137,5.6795,5.7423,5.8112,5.865,5.9099,5.9099,5.9099,5.9099,5.9099,5.9099,5.9099,5.7723,5.6885,5.6466,5.5598,5.5179,5.5179,5.5179,5.494,5.4491,5.3563,5.2935,5.2456,5.1558,5.1229,5.1229,5.1229,5.1229,5.1109,0.0,0.0,4.5535,0.0,0.0,0.0,0.0,0.0,0.0,0.0,0.0,0.0,0.0,0.0,0.0,0.0,0.0,0.0,4.9018,4.9018,4.9018,4.9018,4.9018,4.9018,4.9018,4.8923,4.8923,4.8923,4.8923,4.8892,4.8861,4.8954,4.8923,4.8861,4.8892,4.8892,4.8861,4.8861,4.8861,4.8798,4.7868,4.7506,4.7406,4.6488,4.5561,4.4774,4.4737,4.412,4.329,4.329,4.329,4.329,4.329,0.0,0.0,0.0,4.4766,4.5304,4.5334,4.5813,4.6279,4.6309,4.683,4.7309,4.7309,4.7309,4.7309,4.7339,4.7878,4.8536,0.0,0.0,5.0435,5.1109,5.1229,5.1468,5.2157,5.2785,5.3443,0.0,0.0,0.0,0.0,0.0,0.0,5.6308,5.6825,5.7423,5.8082,5.874,5.9099,5.9099,5.9099,5.9099,5.9099,5.9099,5.9099,5.9099,5.7723,5.7094,5.7064,5.5777,5.5179,5.5179,5.5179,5.5179,5.5089,5.3773,5.3204,5.3054,5.1768,5.1259,5.1229,5.1229,5.1229,5.1139,0.0,0.0,0.0,0.0,0.0,0.0,0.0,0.0,0.0,0.0,0.0,0.0,0.0,0.0,0.0,0.0,0.0,0.0,4.9018,4.9018,4.9018,4.9018,4.9018,4.9018,4.9018,4.8289,4.7933,4.7933,4.7933,4.7572,4.6936,4.8354,4.8257,4.6936,4.7671,4.7572,4.6902,4.6902,4.6902,4.6867,4.6662,4.6558,4.6454,4.5525,4.5005,4.4699,4.3966,4.3527,4.329,4.329,0.0,0.0,0.0,4.3738,4.4317,0.0,0.0,4.5394,4.5933,4.6202,4.6399,4.692,4.7189,4.7309,4.7309,4.7309,4.7429,4.7938,4.8566,4.9224,0.0,0.0,0.0,5.1199,5.1229,0.0,5.2755,5.3084,0.0,5.479,0.0,5.5388,5.5867,5.6128,0.0,0.0,5.7782,5.7932,5.8112,5.874,5.9099,5.9099,5.9099,5.9099,5.9099,5.9099,5.9099,5.9099,5.7723,5.7094,5.7064,5.5777,5.5179,5.5179,5.5179,5.5179,5.5119,5.4281,5.3653,5.3084,5.2276,5.1648,5.1229,5.1229,5.1229,5.1199,0.0,0.0,0.0,0.0,0.0,0.0,0.0,0.0,0.0,0.0,0.0,0.0,0.0,0.0,0.0,0.0,0.0,0.0,0.0,4.9018,4.9018,4.9018,4.9018,4.9018,4.9018,4.8482,4.8225,4.8225,4.7803,4.734,4.6833,4.7473,4.7205,4.6208,4.673,4.6696,4.6208,4.6208,4.6208,0.0,0.0,4.5597,4.5488,4.451,4.4159,4.4082,4.3527,4.329,4.3349,0.0,0.0,4.3738,4.3738,4.4396,4.5185,4.5185,0.0,4.6262,4.6651,4.6741,4.683,4.7219,4.7309,4.7369,4.7668,4.7728,4.7908,4.8566,4.9224,0.0,5.0136,5.0734,0.0,0.0,0.0,0.0,5.2995,5.3174,5.3683,0.0,5.5448,0.0,5.6188,5.6705,5.7334,0.0,5.8112,5.8261,5.853,5.8919,5.9099,5.9099,5.9099,5.9099,5.9099,5.9099,5.9099,5.9099,5.8052,5.7393,5.7064,5.6077,5.5478,5.5179,5.5179,5.5179,5.5149,5.4491,5.3803,5.3114,5.2456,5.1798,5.1229,5.1229,5.1229,5.1229,0.0,0.0,0.0,0.0,0.0,0.0,0.0,0.0,0.0,0.0,4.9018,4.9018,0.0,0.0,0.0,0.0,0.0,0.0,0.0,0.0,4.9018,4.9018,4.9018,4.9018,4.9018,4.8892,4.8829,4.8829,4.7998,4.7539,4.7406,4.6696,4.6244,4.5996,4.5996,4.5925,4.5818,4.5818,4.5818,4.5746,4.493,4.4586,4.451,0.0,4.329,4.329,4.329,4.3349,4.3499,0.0,4.4317,4.4317,4.4407,4.5304,4.6279,4.6279,4.68,4.7309,4.7309,4.7309,4.7309,4.7309,4.7309,4.7489,4.8147,4.8297,4.8506,4.9224,0.0,5.0226,5.0315,5.0794,5.1229,5.1229,0.0,5.1678,5.2995,5.3174,5.3713,5.5149,5.5837,5.6308,5.6406,5.7453,5.8171,5.8261,5.8261,5.8501,5.9069,5.9099,5.9099,5.9099,5.9099,5.9099,5.9099,5.9099,5.9099,5.9099,5.8441,5.7752,5.7064,5.6466,5.5807,5.5179,5.5179,5.5179,5.5149,5.4581,5.3892,5.3114,5.2546,5.1887,5.1229,5.1229,5.1229,5.1229,0.0,0.0,0.0,0.0,0.0,0.0,0.0,0.0,0.0,0.0,4.9018,4.9018,0.0,0.0,0.0,0.0,0.0,0.0,0.0,0.0,0.0,4.9018,4.9018,4.9018,4.9018,4.8225,4.7836,4.7836,4.7704,4.7205,4.6454,4.707,4.6555,4.5042,4.5042,4.4555,4.378,4.378,4.378,4.381,4.3615,4.3536,4.3566,4.3369,0.0,0.0,4.329,4.3648,4.4127,4.4287,4.4317,4.4407,4.4945,4.5693,4.6279,4.6279,4.68,4.7309,4.7309,4.7309,4.7309,4.7309,4.7309,4.7489,4.8147,4.8297,0.0,0.0,5.0106,5.0375,5.0913,5.1139,5.1229,5.1229,5.1229,5.1678,0.0,0.0,5.3892,0.0,0.0,0.0,0.0,5.7992,0.0,0.0,5.8949,5.8979,5.9099,5.9099,5.9099,5.9099,5.9099,5.9099,5.9099,5.9099,5.9099,5.9099,5.8441,5.7752,5.7064,5.6466,5.5807,5.5179,5.5179,5.5179,5.5179,5.5059,5.4281,5.3174,5.3054,5.2276,5.1229,5.1229,5.1229,5.1229,0.0,0.0,0.0,0.0,0.0,0.0,0.0,4.9018,4.9018,4.9018,4.9018,4.9018,4.9018,4.9018,4.9018,0.0,0.0,0.0,0.0,0.0,0.0,4.9018,4.9018,4.9018,4.9018,4.8545,4.8321,4.8321,0.0,4.7373,4.6934,4.69,4.6384,4.5525,4.5525,4.5005,4.4082,4.4082,4.3771,4.329,4.329,4.329,4.329,0.0,0.0,0.0,0.0,0.0,4.4377,4.4706,4.5065,4.5424,4.5723,4.6292,4.683,4.683,4.707,4.7309,4.7309,4.7309,4.7309,4.7309,4.7549,4.7997,4.87,0.0,0.0,0.0,5.0704,5.084,5.1169,5.1229,0.0,5.1678,5.1439,0.0,0.0,0.0,0.0,0.0,0.0,0.0,0.0,5.8441,5.877,5.9069,5.9099,5.9099,5.9099,5.9099,5.9099,5.9099,5.9099,5.9099,5.9099,5.9099,5.9099,5.9099,5.877,5.8082,5.7094,5.6795,5.6107,5.5179,5.5179,5.5179,5.5179,5.5179,5.461,5.3683,5.3324,5.2576,5.1678,5.1349,5.1229,5.1229,0.0,0.0,0.0,0.0,0.0,0.0,4.9018,4.9018,4.9018,4.9018,4.9018,4.9018,4.9018,4.9018,4.9018,0.0,0.0,0.0,0.0,0.0,0.0,0.0,0.0,0.0,0.0,0.0,0.0,0.0,4.8257,0.0,0.0,0.0,0.0,0.0,4.6279,4.5814,4.5079,4.4887,4.432,0.0,0.0,4.329,0.0,0.0,0.0,0.0,0.0,0.0,4.4616,4.5304,4.5963,4.6488,4.6488,4.689,4.7309,4.7309,4.7309,4.7309,4.7309,4.7309,4.7339,4.7489,4.7908,4.8506,4.9284,4.9883,0.0,5.1079,5.1229,5.1229,5.1229,5.1229,5.1439,0.0,5.1768,5.2097,0.0,0.0,0.0,0.0,0.0,0.0,0.0,5.88,0.0,5.9099,5.9099,5.9099,5.9099,5.9099,5.9099,5.9099,5.9099,5.9099,5.9099,5.9099,5.9099,5.9099,5.9099,5.8411,5.7094,5.7094,5.6406,5.5179,5.5179,5.5179,5.5179,5.5179,5.479,5.4132,5.3443,5.2785,5.2127,5.1468,5.1229,5.1229,0.0,0.0,0.0,0.0,0.0,0.0,4.9018,4.9018,4.9018,4.9018,4.9018,4.9018,4.9018,4.9018,4.9018,0.0,0.0,0.0,0.0,0.0,0.0,0.0,0.0,0.0,0.0,0.0,0.0,0.0,0.0,0.0,0.0,0.0,0.0,0.0,0.0,0.0,4.5996,4.5153,0.0,0.0,0.0,0.0,0.0,0.0,0.0,0.0,0.0,0.0,0.0,0.0,0.0,4.7219,4.7219,4.7249,4.7309,4.7309,0.0,0.0,4.7309,4.7309,4.7459,4.8057,4.8237,4.8626,4.9807,0.0,0.0,5.1079,5.1229,5.1229,5.1229,5.1229,5.1439,5.2097,5.2157,5.2606,0.0,0.0,0.0,0.0,0.0,0.0,0.0,5.9069,5.9099,5.9099,5.9099,5.9099,5.9099,5.9099,5.9099,5.9099,5.9099,5.9099,5.9099,5.9099,5.9099,5.9099,5.9099,5.8411,5.7094,5.7094,5.6406,5.5179,5.5179,5.5179,5.5179,5.5179,5.479,5.4132,5.3443,5.2785,5.2127,5.1468,5.1229,5.1229,0.0,0.0,0.0,0.0,0.0,0.0,4.9018,4.9018,4.9018,4.9018,4.9018,4.9018,4.9018,4.9018,4.9018,4.9018,4.9018,0.0,0.0,0.0,0.0,0.0,0.0,0.0,0.0,0.0,4.9018,4.9018,4.9018,0.0,0.0,0.0,0.0,0.0,0.0,0.0,0.0,0.0,0.0,0.0,0.0,0.0,0.0,0.0,0.0,0.0,0.0,0.0,0.0,0.0,0.0,0.0,4.7309,4.7309,0.0,0.0,4.7309,4.7309,4.7309,4.7309,4.7459,4.8117,4.8566,4.9105,4.9986,0.0,5.09,5.1122,5.1229,5.1229,5.1229,5.1528,5.2037,5.2665,5.2785,5.3264,5.461,0.0,0.0,0.0,0.0,0.0,0.0,0.0,5.9099,5.9099,5.9099,5.9099,5.9099,5.9099,5.9099,5.9099,5.9099,5.9099,5.9099,5.9099,5.9099,5.9099,5.9099,5.8411,5.7094,5.7094,5.6406,5.5179,5.5179,5.5179,5.5179,5.5179,5.5029,5.47,5.3593,5.3025,5.2665,5.1618,5.1229,5.1293,0.0,0.0,0.0,0.0,0.0,4.9018,4.9018,4.9018,4.9018,4.9018,4.9018,4.9018,4.9018,4.9018,4.9018,4.9018,4.9018,0.0,0.0,0.0,0.0,0.0,0.0,0.0,0.0,0.0,4.9018,4.9018,4.9018,4.9018,0.0,0.0,0.0,0.0,0.0,0.0,0.0,0.0,0.0,0.0,0.0,0.0,0.0,0.0,0.0,0.0,0.0,0.0,0.0,0.0,0.0,0.0,0.0,4.7309,4.7309,0.0,4.7309,4.7309,4.7309,4.7459,4.7758,4.8416,4.9075,4.9733,0.0,5.0853,5.1229,5.1229,5.1229,5.1229,5.1229,5.1768,5.2426,5.3084,5.3354,5.3892,5.5029,0.0,0.0,0.0,0.0,5.7363,5.8052,5.871,5.9099,5.9099,5.9099,5.9099,5.9099,5.9099,5.9099,5.9099,5.9099,5.9099,5.9099,5.9099,5.9099,5.9099,5.9099,5.8411,5.7094,5.7094,5.6406,5.5179,5.5179,5.5179,5.5229,5.5601,5.5501,5.511,5.4122,5.3483,5.3025,5.1708,5.1433,5.1819,0.0,0.0,0.0,0.0,0.0,4.9018,4.9018,4.9018,4.9018,4.9018,4.9018,4.9018,4.9018,4.9018,4.9018,4.9018,4.9018,0.0,0.0,0.0,0.0,0.0,0.0,0.0,4.9018,4.9018,4.9018,4.9018,4.9018,4.9018,4.9018,4.9018,4.9018,0.0,0.0,0.0,0.0,0.0,0.0,0.0,0.0,0.0,0.0,0.0,0.0,0.0,0.0,0.0,0.0,0.0,0.0,0.0,0.0,4.7309,4.7309,4.7309,4.7309,4.7309,4.7309,4.7788,4.8446,4.9149,4.9733,5.0345,0.0,5.1229,5.1229,5.1229,5.1229,5.1229,5.1229,5.1768,5.2426,5.3084,5.3743,5.4431,5.5089,5.5179,0.0,0.0,0.0,5.7363,5.8052,5.871,5.9099,5.9099,5.9099,5.9099,5.9099,5.9099,5.9099,5.9099,5.9099,5.9099,5.9099,5.9099,5.9099,5.9099,5.9099,5.8411,5.7094,5.7094,5.6406,5.5179,5.5179,5.5179,5.528,5.6493,5.628,5.521,5.5066,5.4232,5.3025,5.1708,5.188,5.29,0.0,0.0,0.0,0.0,0.0,0.0,4.9018,4.9018,4.9018,4.9018,4.9018,4.9018,4.9018,4.9018,4.9018,4.9018,4.9018,0.0,0.0,0.0,0.0,0.0,0.0,0.0,4.9018,4.9018,4.9018,4.9018,4.9018,4.9018,4.9018,4.9018,4.9018,4.9018,4.9018,0.0,0.0,0.0,0.0,0.0,0.0,0.0,0.0,0.0,0.0,0.0,0.0,0.0,0.0,0.0,0.0,0.0,0.0,0.0,0.0,4.7309,4.7309,4.7399,4.7848,4.8117,4.8566,4.9643,5.0046,5.0375,5.1079,5.1229,5.1229,5.1229,5.1229,5.1229,5.1229,5.2127,5.2935,5.3144,5.4132,5.497,0.0,0.0,0.0,5.5478,5.6436,5.7543,0.0,0.0,5.9099,5.9099,5.9099,5.9099,5.9099,5.9099,5.9099,5.9099,5.9099,5.9099,5.9099,5.9099,5.9099,5.9099,5.9099,5.8411,5.7094,5.7094,5.6406,5.5179,5.5179,5.57,5.6445,5.6848,5.6752,5.6388,5.6221,5.4946,5.3121,5.2551,5.262,5.3033,0.0,0.0,0.0,0.0,0.0,0.0,4.9018,4.9018,4.9018,4.9018,4.9018,4.9018,4.9018,4.9018,4.9018,4.9018,4.9018,0.0,0.0,0.0,0.0,0.0,0.0,0.0,4.9018,4.9018,4.9018,4.9018,4.9018,4.9018,4.9018,4.9018,4.9018,4.9018,4.9018,4.9018,0.0,0.0,0.0,0.0,0.0,0.0,4.3319,0.0,0.0,0.0,0.0,0.0,0.0,0.0,0.0,0.0,0.0,0.0,0.0,0.0,4.7668,4.7758,4.8177,4.8656,4.9224,4.9986,5.0375,5.0674,5.1109,5.1229,5.1229,5.1229,5.1229,5.1229,5.1229,5.2306,5.3174,5.3174,5.4311,5.5179,0.0,0.0,0.0,5.5867,0.0,0.0,0.0,5.9099,5.9099,5.9099,5.9099,5.9099,5.9099,5.9099,5.9099,5.9099,5.9099,5.9099,5.9099,5.9099,5.9099,5.9099,5.9099,5.8411,5.7094,5.7094,5.6406,5.5229,5.567,5.6329,0.0,5.748,5.7668,5.7604,5.6937,5.5552,5.3844,5.3619,5.3526,5.3699,0.0,0.0,0.0,0.0,0.0,0.0,0.0,4.9018,4.9018,4.9018,4.9018,4.9018,4.9018,4.9018,4.9018,4.9018,4.9018,0.0,0.0,0.0,0.0,0.0,0.0,4.9018,4.9018,4.9018,4.9018,4.9018,4.9018,4.9018,4.9018,4.9018,4.9018,4.9018,4.9018,4.9018,4.8861,0.0,0.0,0.0,4.409,4.3319,0.0,0.0,0.0,0.0,0.0,0.0,0.0,0.0,0.0,0.0,0.0,0.0,0.0,0.0,0.0,0.0,0.0,4.9314,5.0196,5.0255,5.0734,5.1229,5.1229,5.1229,0.0,5.1229,5.1229,5.1229,5.1229,5.2306,5.3174,5.3174,5.4311,5.5179,0.0,5.5179,0.0,0.0,5.7094,0.0,5.8979,5.9099,5.9099,5.9099,5.9099,5.9099,5.9099,5.9099,5.9099,5.9099,5.9099,5.9099,5.9099,5.9099,5.9099,5.9099,5.9069,5.8351,5.7094,5.7064,5.6346,0.0,5.6493,5.7039,5.7198,5.836,5.8825,5.8722,5.7375,5.61,5.5017,5.4804,5.4713,5.4879,0.0,0.0,0.0,0.0,0.0,0.0,0.0,0.0,0.0,0.0,4.9018,4.9018,4.9018,4.9018,4.9018,0.0,0.0,0.0,0.0,0.0,0.0,0.0,4.9018,4.9018,4.9018,4.9018,4.9018,4.9018,4.9018,4.9018,4.9018,4.9018,4.9018,4.9018,4.9018,4.9018,4.8861,4.7002,0.0,0.0,4.409,4.3589,0.0,0.0,0.0,0.0,4.6219,4.6741,0.0,0.0,0.0,0.0,0.0,0.0,0.0,0.0,4.8626,4.9179,4.9643,0.0,5.0315,5.0823,5.1063,5.1229,0.0,5.1229,5.1229,5.1229,5.1229,5.1229,5.1229,5.2306,5.3174,5.3174,5.4311,5.5179,5.5179,5.5179,0.0,5.6944,5.7094,5.7633,5.8979,5.9099,5.9099,5.9099,5.9099,5.9099,5.9099,5.9099,5.9099,5.9099,5.9099,5.9099,5.9099,5.9099,5.9099,5.9099,5.859,5.7902,5.7064,5.6615,5.5957,5.528,5.6493,5.7527,5.8405,5.8677,5.9024,5.9212,5.8296,5.6902,5.5473,5.5702,5.5817,5.5889,0.0,0.0,0.0,0.0,0.0,0.0,0.0,0.0,0.0,0.0,4.9018,4.9018,4.9018,4.9018,4.9018,0.0,0.0,0.0,0.0,0.0,0.0,4.9018,4.9018,4.9018,4.9018,4.9018,4.9018,4.9018,4.9018,4.9018,4.9018,4.9018,4.9018,4.9018,4.9018,4.9018,4.8861,4.7002,4.6208,4.6064,4.4425,0.0,0.0,0.0,0.0,0.0,4.6681,4.701,0.0,4.7309,4.7309,4.7309,0.0,0.0,0.0,0.0,4.9194,4.9853,5.0511,5.0644,5.0734,5.1139,5.1229,5.1229,5.1229,5.1229,5.1229,5.1229,5.1229,5.1319,5.1618,5.2486,5.3294,5.3593,5.4521,5.5179,0.0,0.0,5.5658,5.6944,5.7094,5.7633,5.8979,5.9099,5.9099,5.9099,5.9099,5.9099,5.9099,5.9099,5.9099,5.9099,5.9099,5.9099,5.9099,5.9099,5.9099,5.9099,5.8441,5.7752,5.7064,5.6466,5.5807,5.528,5.7039,5.8223,5.8857,5.939,5.9905,6.0191,5.8837,5.7511,5.6457,5.6812,5.6663,5.6282,0.0,0.0,0.0,0.0,0.0,0.0,0.0,0.0,0.0,0.0,0.0,0.0,0.0,0.0,0.0,0.0,0.0,0.0,0.0,0.0,4.9018,4.9018,4.9018,4.9018,4.9018,4.9018,4.9018,4.9018,4.9018,4.9018,4.9018,4.9018,4.9018,4.8984,4.8861,4.8798,4.8673,4.6894,4.612,4.604,4.4895,0.0,0.0,0.0,0.0,0.0,0.0,0.0,0.0,4.7309,4.7309,4.7309,4.7429,0.0,0.0,0.0,0.0,0.0,5.105,5.1229,5.1229,5.1229,5.1229,5.1229,5.1229,5.1229,5.1229,5.1229,5.1229,5.1409,5.2067,5.2725,5.3414,5.4102,5.476,0.0,5.5179,5.5179,5.5658,5.6944,5.7094,5.7633,5.8979,5.9099,5.9099,5.9099,5.9099,5.9099,5.9099,5.9099,5.9099,5.9099,5.9285,5.9392,5.9392,5.9207,5.9069,5.8949,5.8291,5.7603,5.6944,5.6316,5.5718,5.533,5.7761,5.8812,5.8902,6.0118,6.0817,6.0912,5.9039,5.7965,5.7481,5.779,5.7297,5.6586,0.0,0.0,0.0,0.0,0.0,0.0,0.0,0.0,0.0,0.0,0.0,0.0,0.0,0.0,0.0,0.0,0.0,0.0,0.0,4.9018,4.9018,4.9018,4.9018,4.9018,4.9018,4.9018,4.9018,4.9018,4.9018,4.9018,4.9018,4.9018,4.9018,4.8987,4.8161,4.7803,4.7737,4.638,4.5777,4.5725,4.5314,0.0,0.0,0.0,0.0,0.0,0.0,0.0,0.0,4.7309,4.7309,4.7399,4.7967,0.0,0.0,0.0,0.0,0.0,5.105,5.1229,5.1229,5.1229,5.1229,5.1229,5.1229,5.1229,5.1229,5.1229,5.1229,5.1409,5.2067,5.2725,5.3414,5.4102,5.476,5.5179,5.5179,0.0,5.5658,5.6944,5.7094,5.7633,5.8979,5.9099,5.9099,5.9099,5.9099,5.9099,5.9099,5.9099,5.9099,5.9099,6.015,6.0712,6.0712,5.9629,5.883,5.8261,5.7573,5.6915,5.6338,5.5628,5.5299,5.533,5.7761,5.8812,5.8902,6.0118,6.0484,6.0135,5.8807,5.8102,5.7833,5.7879,5.7808,5.7665,0.0,0.0,0.0,0.0,0.0,0.0,0.0,0.0,0.0,0.0,0.0,0.0,0.0,0.0,0.0,0.0,0.0,0.0,4.9018,4.9018,4.9018,4.9018,4.9018,4.9018,4.9018,4.9018,4.9018,4.9018,4.9018,4.9018,4.9018,4.9018,4.8736,4.8225,4.7803,4.7535,4.7311,4.6184,4.5912,4.6237,0.0,0.0,0.0,0.0,0.0,0.0,0.0,0.0,0.0,0.0,4.7549,4.7878,4.8177,0.0,0.0,0.0,0.0,0.0,5.1139,5.1229,5.1229,5.1229,5.1229,5.1229,5.1229,5.1229,5.1229,5.1229,5.1498,5.1947,5.2606,5.3294,5.3952,5.464,5.4999,5.5179,5.5179,5.5179,5.5658,5.6944,5.7094,5.7633,5.8979,5.9099,5.9099,5.9099,5.9099,5.9099,5.9099,5.9099,5.9099,5.9099,5.9683,6.0123,6.0411,5.9191,5.8753,5.9173,5.7428,5.6436,5.6188,5.5478,5.5551,5.628,5.8039,5.917,5.987,6.0638,6.0634,6.0009,5.9074,5.8346,5.7881,5.7881,5.7881,5.7881,0.0,0.0,0.0,0.0,0.0,0.0,0.0,0.0,0.0,0.0,0.0,0.0,0.0,0.0,0.0,0.0,0.0,4.9018,4.9018,4.9018,4.8892,4.8671,4.8892,4.9018,4.9018,4.9018,4.9018,4.9018,4.9018,4.8892,4.8671,4.8671,4.8261,4.7501,4.7264,4.7238,4.7371,4.6291,4.6273,4.6916,0.0,0.0,0.0,0.0,0.0,0.0,0.0,0.0,0.0,0.0,0.0,0.0,0.0,0.0,0.0,5.0375,5.0794,5.1229,5.1229,5.1229,5.1229,5.1229,5.1229,5.1229,5.1229,5.1229,5.1229,5.1229,5.1738,5.2396,5.3054,5.3862,5.461,5.5119,5.5179,5.5179,5.5179,5.5179,5.5598,5.6735,5.7004,5.7573,5.877,5.9009,5.9099,5.9099,5.9099,5.9261,5.9523,5.9231,5.9261,5.9523,5.969,5.9972,6.0347,5.9144,5.8889,5.9613,5.7608,5.6383,5.5978,5.6012,5.6396,5.7055,5.8587,5.974,6.0637,6.1104,6.0825,6.0047,5.9302,5.8558,5.7881,5.7881,5.7881,5.7881,0.0,0.0,0.0,0.0,0.0,0.0,0.0,0.0,0.0,0.0,0.0,0.0,0.0,0.0,0.0,0.0,4.9018,4.9018,4.9018,4.9018,4.8608,4.7737,4.8545,4.9018,4.9018,4.9018,4.9018,4.9018,4.9018,4.8545,4.7704,4.7704,4.7531,4.7197,4.6247,4.6736,4.8142,4.6834,4.6852,4.7667,4.7347,0.0,0.0,0.0,0.0,0.0,0.0,0.0,0.0,0.0,0.0,0.0,0.0,0.0,5.0315,5.0913,5.1169,5.1229,5.1229,5.1229,5.1229,5.1229,5.1229,5.1229,5.1229,5.1229,5.1229,5.1229,5.1738,5.2396,5.3054,5.4251,5.5149,5.5179,5.5179,5.5179,5.5179,5.5179,5.5448,5.6166,5.6735,5.7393,5.8112,5.874,5.9099,5.9099,5.9099,5.9629,6.0815,5.9705,5.9629,6.0815,6.1414,6.1743,6.1726,6.045,5.9254,5.8138,5.7978,5.6984,5.537,5.7512,5.7993,5.7134,5.9478,6.0501,6.0637,6.1104,6.0825,6.0047,5.9302,5.8558,5.7881,5.7881,5.7881,5.7881,0.0,0.0,0.0,0.0,0.0,0.0,0.0,0.0,0.0,0.0,0.0,0.0,0.0,0.0,0.0,0.0,4.7803,4.7868,4.7306,4.7803,4.7704,4.6765,4.707,4.7273,4.7273,4.8385,4.8702,4.8129,4.8129,4.8166,4.8264,4.7619,4.7869,4.8727,4.7051,4.692,4.7887,4.6769,4.6743,4.7486,4.7362,4.7309,0.0,0.0,0.0,0.0,0.0,0.0,0.0,0.0,4.8835,4.9583,5.0046,5.0465,5.0853,5.1139,5.1229,5.1229,5.1229,5.1229,5.1229,5.1229,5.1229,5.1229,5.1229,5.1229,5.1319,5.1738,5.2366,5.3144,5.4221,5.485,5.5179,5.5179,5.5179,5.5179,5.5179,5.5179,5.5448,5.6107,5.6705,5.7363,5.8052,5.871,5.9099,5.9099,5.9099,5.9285,5.9758,5.9339,5.9158,5.9205,6.0152,6.0674,6.059,6.0078,5.9749,5.96,5.8122,5.703,5.6347,5.8039,5.8542,5.8223,5.987,6.1036,6.1656,6.0873,6.0385,5.9979,5.8795,5.8152,5.7881,5.7881,5.7881,5.7881,0.0,0.0,0.0,0.0,0.0,0.0,0.0,0.0,0.0,0.0,0.0,0.0,0.0,0.0,0.0,0.0,4.6765,4.69,4.6244,4.6799,4.673,4.5814,4.6032,4.5889,4.5306,4.7366,4.8001,4.7172,4.7366,4.7651,4.8052,4.7362,4.7601,4.8642,4.7223,4.7148,4.8047,4.7057,4.7031,4.7764,4.7409,4.7309,0.0,0.0,0.0,0.0,0.0,0.0,0.0,0.0,4.9494,5.0226,5.0435,5.0794,5.1229,5.1229,5.1229,5.1229,5.1229,5.1229,5.1229,5.1229,5.1229,5.1229,5.1229,5.1229,5.1409,5.2067,5.2905,5.3862,5.497,5.5179,5.5179,5.5179,5.5179,5.5179,5.5179,5.5179,5.5359,5.5807,5.6406,5.7004,5.7453,5.8291,5.88,5.88,5.8979,5.9225,5.938,5.8984,5.8684,5.8412,5.9352,5.9644,5.9221,5.9781,6.0228,6.0586,5.8915,5.7946,5.7621,5.9214,5.974,5.9434,6.0628,6.1635,6.2279,6.0723,5.9844,5.9302,5.8287,5.7881,5.7881,5.7881,5.7881,5.7881,0.0,0.0,0.0,0.0,0.0,0.0,0.0,0.0,4.6173,4.6173,4.6173,0.0,0.0,0.0,0.0,0.0,4.6173,4.6173,4.6173,4.6173,4.5778,4.4849,4.567,4.5269,4.3329,4.5847,4.6837,4.6205,4.6873,4.7024,4.6717,4.6717,4.6559,4.6322,4.6322,4.7255,4.8759,4.7722,4.7861,4.8718,4.7679,4.7309,4.7309,0.0,0.0,0.0,0.0,0.0,0.0,0.0,5.0196,5.0315,5.102,5.1229,5.1229,5.1229,5.1229,5.1229,5.1229,5.1229,5.1229,5.1229,5.1229,5.1229,5.1229,5.1229,5.1409,5.2067,5.3294,5.4431,5.5059,5.5179,5.5179,5.5179,5.5179,5.5179,5.5179,5.5179,5.5179,5.5179,5.5777,5.6218,5.6218,5.7363,5.8112,5.8112,5.871,5.938,6.004,5.8841,5.8382,5.9037,5.9522,5.9221,5.7983,5.9714,6.0586,6.0586,6.0586,5.9957,5.8902,6.1317,6.1756,6.067,6.1911,6.2381,6.2245,6.0723,5.9201,5.7881,5.7881,5.7881,5.7881,5.7881,5.7881,5.7881,0.0,0.0,0.0,0.0,0.0,0.0,0.0,0.0,4.4136,4.4136,4.4136,0.0,0.0,0.0,0.0,0.0,0.0,0.0,4.4213,4.4818,4.4781,4.3771,4.4013,4.4109,4.4018,4.5223,4.6111,4.6528,4.6747,4.706,4.7468,4.6762,4.7416,4.9134,4.7672,4.7679,4.8759,4.7722,4.7452,4.7722,4.7409,4.7578,4.7997,0.0,0.0,0.0,0.0,0.0,0.0,0.0,0.0,0.0,5.1169,5.1229,5.1229,5.1229,5.1229,5.1229,5.1229,5.1229,5.1229,5.1229,5.1229,5.1349,5.1798,5.1917,5.2247,5.3384,5.4311,5.497,5.5149,5.5179,5.5179,5.5179,5.5179,5.5179,5.5179,5.5179,5.5179,5.5179,5.5777,5.6218,5.6218,5.6915,5.7393,5.7393,5.7573,5.7783,5.7989,5.7625,5.7303,5.7102,5.7991,5.8151,5.7301,5.8637,5.974,6.0586,6.0586,6.0417,6.0118,6.1676,6.1756,6.067,6.1911,6.211,6.1501,5.9979,5.8761,5.7881,5.7881,5.7881,5.7881,5.7881,5.7881,5.7881,0.0,0.0,0.0,0.0,0.0,0.0,0.0,0.0,4.329,4.329,4.329,4.329,0.0,0.0,0.0,0.0,0.0,0.0,4.3329,4.3888,4.4048,4.3718,4.3678,4.4127,4.5095,4.5514,4.6105,4.6936,4.6661,4.6916,4.7588,4.6978,4.7581,4.9125,4.7849,4.7666,4.8168,4.7581,4.7459,4.7698,4.7698,4.8087,4.8686,0.0,0.0,0.0,0.0,0.0,0.0,0.0,0.0,0.0,5.1229,5.1229,5.1229,5.1229,5.1229,5.1229,5.1229,5.1229,5.1229,5.1229,5.1409,5.1858,5.2785,5.2995,5.3234,5.4042,5.473,5.5179,5.5179,5.5179,5.5179,5.5179,5.5179,5.5179,5.5179,5.5179,5.5179,5.5179,5.5538,5.5777,5.5777,5.6346,5.6735,5.6735,5.6944,5.7004,5.6735,5.6735,5.6436,5.5807,5.699,5.7184,5.628,5.8451,5.9653,5.987,6.0374,6.087,6.1358,6.207,6.1991,6.1358,6.1767,6.1535,6.0723,5.9505,5.8558,5.7881,5.7881,5.7881,5.7881,5.7881,5.7881,5.7881,0.0,0.0,4.4662,4.4662,0.0,0.0,0.0,0.0,4.329,4.329,4.329,4.329,0.0,0.0,0.0,0.0,0.0,0.0,4.3379,4.3379,4.3678,4.4377,4.4466,4.5065,4.6249,4.6339,4.6711,4.7309,4.6711,4.6711,4.7309,4.7309,4.7309,4.7309,4.7309,4.7339,4.7399,4.7399,4.7788,4.8386,4.8386,4.8775,4.9389,4.9389,0.0,0.0,0.0,0.0,0.0,0.0,0.0,0.0,5.1229,5.1229,5.1229,5.1229,5.1229,5.1229,5.1229,5.1259,5.1319,5.1319,5.1858,5.2695,5.3922,5.4251,5.4311,5.4311,5.479,5.5179,5.5179,5.5179,5.5179,5.5179,5.5179,5.5179,5.5179,5.5179,5.5179,5.5179,5.5179,5.5179,5.5179,5.5718,5.6077,5.6077,5.6615,5.6675,5.6158,5.6077,5.5807,5.5209,5.625,5.6329,5.5179,5.8555,5.9784,5.8812,5.9913,6.1119,6.2381,6.2302,6.2302,6.2347,6.1535,6.0791,6.0047,5.9235,5.849,5.7881,5.7881,5.7881,5.7881,5.7881,5.7881,5.7881,0.0,0.0,4.3615,4.3615,0.0,0.0,0.0,0.0,0.0,4.329,4.329,0.0,0.0,0.0,0.0,0.0,0.0,0.0,4.4077,4.4067,4.4407,4.5065,4.5603,4.598,4.6279,4.683,4.716,4.7309,4.716,4.716,4.7309,4.7309,4.7309,4.7309,4.7309,4.7578,4.8087,4.8087,4.8446,4.909,4.909,4.9464,4.9986,4.9986,5.0375,0.0,0.0,0.0,0.0,0.0,0.0,0.0,5.1229,5.1229,5.1229,5.1229,5.1229,5.1229,5.1229,5.1588,5.1977,5.1977,5.2875,5.3862,5.4132,5.461,5.497,5.497,5.5089,5.5179,5.5179,5.5179,5.5179,5.5179,5.5179,5.5179,5.5179,5.5179,5.5179,5.5179,5.5179,5.5179,5.5179,5.5329,5.5418,5.5418,5.5538,5.5538,5.5418,5.5418,5.5329,5.5179,5.5451,5.5451,5.5179,5.6896,5.8131,5.8812,5.9081,6.0332,6.2381,6.1399,6.148,6.2313,6.096,6.025,6.0013,5.866,5.8017,5.7881,5.7881,5.7881,5.7881,5.7881,5.7881,5.7881,0.0,0.0,0.0,0.0,0.0,0.0,0.0,0.0,0.0,0.0,0.0,0.0,0.0,0.0,0.0,0.0,4.3589,0.0,4.4287,4.4616,4.5095,4.5753,4.6441,4.68,4.68,4.713,4.7309,4.7309,4.7309,4.7309,4.7309,4.7309,4.7489,4.7788,4.7788,4.8147,4.879,4.879,4.9134,4.9733,4.9733,5.0122,5.0674,5.0674,5.0883,5.1229,5.1229,0.0,0.0,0.0,0.0,0.0,0.0,0.0,5.1229,5.1229,5.1229,5.1289,5.1588,5.1947,5.2366,5.2995,5.3683,5.4281,5.461,5.494,5.5179,5.5179,5.5179,5.5179,5.5179,5.5179,5.5179,5.5179,5.5179,5.5179,5.5179,5.5179,5.5179,5.5179,5.5179,5.5179,5.5179,5.5179,5.5179,5.5179,5.5179,5.5179,5.5179,5.5179,5.5179,5.5179,5.5179,5.5179,5.5179,5.6943,5.8177,5.8812,5.8812,5.9434,6.067,6.1235,6.1797,6.2313,6.0757,6.0114,5.9979,5.849,5.7881,5.7881,5.7881,5.7881,5.7881,5.7881,5.7881,5.7881,0.0,0.0,0.0,0.0,0.0,0.0,0.0,0.0,0.0,0.0,0.0,0.0,0.0,0.0,4.3469,0.0,0.0,0.0,4.4646,4.5274,4.5903,4.6429,4.701,4.7309,4.7309,4.7309,4.7309,4.7309,4.7309,4.7369,4.7489,4.7489,4.7758,4.8297,4.8416,4.8805,4.9434,4.9434,4.9823,5.0375,5.0375,5.0674,5.1229,5.1229,5.1229,5.1229,5.1229,5.1229,5.1229,5.1229,0.0,0.0,0.0,0.0,5.1229,5.1349,5.1379,5.1528,5.2187,5.2456,5.2845,5.4072,5.4371,5.4521,5.5059,5.5179,5.5179,5.5179,5.5179,5.5179,5.5179,5.5179,5.5179,5.5179,5.5179,5.5179,5.5179,5.5179,5.5179,5.5179,5.5179,5.5179,5.5179,5.5179,5.5179,5.5179,5.5179,5.5179,5.5179,5.5179,5.5179,5.5179,5.5179,5.5179,5.5179,5.7371,5.8587,5.8812,5.9214,5.9214,5.8902,6.1317,6.2381,6.2313,6.0757,6.0114,5.9979,5.849,5.7881,5.7881,5.7881,5.7881,5.7881,5.7881,5.7881,5.7881,0.0,0.0,0.0,0.0,0.0,0.0,0.0,0.0,0.0,0.0,4.329,4.329,0.0,0.0,0.0,4.4197,4.4796,4.5424,4.598,0.0,0.0,4.716,4.7249,4.7309,4.7309,4.7309,4.7309,4.7309,4.7309,4.7608,4.8147,4.8147,4.8207,4.8327,4.894,4.9494,5.0076,5.0076,5.0435,5.1079,5.1079,5.1139,5.1229,5.1229,5.1229,5.1229,5.1229,5.1229,5.1229,5.1229,5.1229,0.0,0.0,0.0,5.1319,5.1917,5.2067,5.2217,5.2875,5.3473,5.4132,5.488,5.5059,5.5089,0.0,0.0,5.5179,0.0,5.5179,5.5179,5.5179,5.5179,5.5179,5.5179,5.5179,5.5179,5.5179,5.5179,5.5179,5.5179,5.5179,5.5179,5.5179,5.5179,5.5179,5.5179,5.5179,5.5179,5.5179,5.5179,5.5179,5.5179,5.5179,5.5179,5.5179,5.6541,5.7761,5.8812,6.0912,6.0828,5.8902,6.1317,6.2381,6.2313,6.0757,6.0114,5.9979,5.849,5.7881,5.7881,5.7881,5.7881,5.7881,5.7881,5.7881,5.7881,0.0,0.0,0.0,0.0,0.0,0.0,0.0,0.0,0.0,0.0,0.0,4.3858,0.0,0.0,0.0,4.4855,4.5484,4.6142,4.683,4.716,4.7309,4.7309,4.7309,4.7309,4.7309,4.7309,4.7489,4.7848,4.7848,4.8177,4.888,4.9194,4.9374,4.9404,4.9673,5.0182,5.0734,5.0734,5.096,5.1229,5.1229,5.1229,5.1229,5.1229,5.1229,5.1229,5.1229,5.1229,5.1229,5.1229,5.1468,5.1768,5.1768,0.0,0.0,0.0,5.2755,5.2905,5.3563,5.4251,5.482,0.0,5.5179,5.5179,5.5179,5.5179,5.5179,5.5179,5.5179,5.5179,5.5179,5.5179,5.5179,5.5179,5.5179,5.5179,5.5179,5.5179,5.5179,5.5179,5.5179,5.5179,5.5179,5.5179,5.5179,5.5179,5.5179,5.5179,5.5179,5.5179,5.5179,5.5179,5.5179,5.5179,5.5179,5.6396,5.7245,5.7807,6.0247,6.0459,5.8902,6.1317,6.2381,6.2313,6.0757,6.0114,5.9979,5.849,5.7881,5.7881,5.7881,5.7881,5.7881,5.7881,5.7881,5.7881,0.0,0.0,0.0,0.0,0.0,0.0,0.0,0.0,0.0,0.0,0.0,0.0,0.0,0.0,0.0,0.0,4.6003,4.677,4.7279,4.7309,4.7309,4.7309,4.7309,4.7309,4.7309,4.7459,4.7788,4.8297,4.8446,4.8865,4.9523,5.0002,5.0285,5.0435,5.0435,5.0704,5.1229,5.1229,5.1229,5.1229,5.1229,5.1229,5.1229,5.1229,5.1319,5.1468,5.1468,5.1558,5.1708,5.1708,5.2037,5.2456,5.2456,5.2785,0.0,0.0,0.0,5.3803,5.4311,0.0,5.5179,5.5179,5.5179,5.5179,0.0,0.0,5.5179,0.0,5.5179,5.5179,5.5179,5.5179,5.5179,5.5179,5.5179,5.5179,5.5179,5.5179,5.5179,5.5179,5.5179,5.5179,5.5179,5.5179,5.5179,5.5179,5.5179,5.5179,5.5179,5.5179,5.5179,5.5179,5.5179,5.5179,5.5179,5.6396,5.6848,5.659,5.9302,5.9957,5.8902,6.1317,6.2279,6.2042,6.0689,6.0114,5.9979,5.849,5.7881,5.7881,5.7881,5.7881,5.7881,5.7881,5.7881,5.7881,0.0,0.0,0.0,0.0,0.0,0.0,0.0,0.0,0.0,0.0,0.0,0.0,4.1914,4.4385,4.5763,4.4542,4.6152,4.7279,4.7309,4.7309,4.7309,4.7309,4.7309,0.0,4.7309,4.7908,4.8267,4.8297,4.897,4.9553,5.0136,5.0196,5.0524,5.1169,5.1169,5.1199,5.1229,5.1229,5.1229,5.1229,5.1229,5.1229,5.1229,5.1229,5.1618,5.2157,5.2157,5.2546,5.3084,5.3084,5.3114,5.3144,5.3144,5.3144,5.3294,0.0,0.0,0.0,0.0,5.5149,0.0,5.5179,5.5179,5.5179,0.0,0.0,5.5179,5.5179,5.5179,5.5179,5.5179,5.5179,5.5179,5.5179,5.5179,5.5179,5.5179,5.5179,5.5179,5.5179,5.5179,5.5179,5.5179,5.5179,5.5179,5.5179,5.5179,5.5179,5.5179,5.5179,5.5179,5.5179,5.5179,5.5179,5.5179,5.6396,5.6445,5.533,5.887,5.9957,5.8902,6.1317,6.2009,6.1298,6.0452,6.0114,5.9979,5.849,5.7881,5.7881,5.7881,5.7881,5.7881,5.7881,5.7881,5.7881,0.0,0.0,0.0,0.0,0.0,0.0,0.0,0.0,0.0,0.0,0.0,0.0,0.0,4.3554,4.4316,4.3873,4.4468,4.4886,4.4886,4.4886,4.5011,4.5363,4.5363,4.5963,4.7228,4.6594,4.6909,4.8238,4.8471,4.8909,4.96,5.0466,5.0943,5.1229,5.1229,5.1229,5.1229,5.1229,5.1468,5.1798,5.1379,5.1738,5.2426,5.2007,5.2247,5.2815,5.2815,5.2995,5.3174,5.3174,5.3473,0.0,0.0,0.0,0.0,0.0,0.0,5.5179,0.0,0.0,0.0,5.5179,5.5179,5.5179,5.5179,5.5179,5.5179,5.5179,5.5179,5.5179,5.5179,5.5179,5.5179,5.5179,5.5179,5.5179,5.5179,5.5179,5.5179,5.5179,5.5179,5.5179,5.5179,5.5179,5.5179,5.5179,5.5179,5.5179,5.5179,5.5179,5.5179,5.5179,5.5179,5.5179,5.5179,5.5651,5.5651,5.5229,5.8085,5.9214,5.8902,6.1317,6.2009,6.1264,6.0452,5.9844,5.9336,5.8287,5.7881,5.7881,5.7881,5.7881,5.7881,5.7881,5.7881,5.7881,0.0,0.0,0.0,0.0,0.0,4.0395,4.0395,4.1233,4.1543,4.073,0.0,0.0,0.0,0.0,4.3504,4.3504,4.3504,4.3586,4.3732,4.376,4.4035,4.4545,4.4572,4.5177,4.6469,4.5594,4.595,4.7502,4.7551,4.7892,4.8539,4.9873,5.0555,5.0555,5.125,5.1439,5.1229,5.1439,5.1798,5.2187,5.1977,5.2396,5.3144,5.2695,5.2935,5.3533,5.3533,5.3683,5.3862,5.3862,5.4162,0.0,0.0,0.0,0.0,0.0,0.0,0.0,5.5179,0.0,0.0,0.0,5.5179,5.5179,5.5179,5.5179,5.5179,5.5179,5.5179,5.5179,5.5179,5.5179,5.5179,5.5179,5.5179,5.5179,5.5179,5.5179,5.5179,5.5179,5.5179,5.5179,5.5179,5.5179,5.5179,5.5179,5.5179,5.5179,5.5179,5.5179,5.5179,5.5179,5.5179,5.5179,5.5179,5.5179,5.5179,5.5229,5.7229,5.8405,5.8857,6.087,6.1492,6.0858,6.0317,5.9674,5.8964,5.8186,5.7881,5.7881,5.7881,5.7881,5.7881,5.7881,5.7881,5.7881,0.0,0.0,3.9733,3.9733,3.9759,3.9759,3.9759,4.1281,4.1564,3.9221,0.0,0.0,0.0,0.0,0.0,4.3436,4.3464,4.3664,4.4193,4.4221,4.4447,4.5001,4.5029,4.5029,4.5106,4.5206,4.5481,4.6086,4.6188,4.6514,4.7043,4.8489,4.9161,4.9268,5.1187,5.1762,5.1225,5.1947,5.2247,5.2306,5.2935,5.3204,5.3234,5.3204,5.3653,5.4251,5.4251,5.464,5.5179,5.5179,5.5179,0.0,0.0,0.0,0.0,0.0,0.0,0.0,0.0,0.0,0.0,0.0,0.0,0.0,5.5179,5.5179,5.5179,5.5179,5.5179,5.5179,5.5179,5.5179,5.5179,5.5179,5.5179,5.5179,5.5179,5.5179,5.5179,5.5179,5.5179,5.5179,5.5179,5.5179,5.5179,5.5179,5.5179,5.5179,5.5179,5.5179,5.5179,5.5179,5.5179,5.5179,5.5179,5.5179,5.5179,5.5179,5.6396,5.7621,5.8812,6.0,6.0403,6.0042,6.008,5.9674,5.893,5.8186,5.7881,5.7881,5.7881,5.7881,5.7881,5.7881,5.7881,5.7881,0.0,3.8354,3.8481,3.8481,3.8887,3.9167,3.9167,3.99,4.0235,0.0,0.0,0.0,3.98,4.067,4.1363,4.1363,4.1673,4.1982,4.2137,4.2137,4.2395,4.2962,4.2988,4.3623,4.5022,4.4119,4.4172,4.5315,4.5315,4.5448,4.5608,4.6991,4.7908,4.8275,4.8855,4.9852,5.1154,5.2426,5.3204,5.3623,5.3324,5.3773,5.4581,5.4102,5.4341,5.491,5.491,5.5029,5.5179,5.5179,5.5179,5.5179,0.0,0.0,0.0,0.0,0.0,0.0,5.5179,0.0,0.0,0.0,0.0,0.0,5.5179,5.5179,5.5179,5.5179,5.5179,5.5179,5.5179,5.5179,5.5179,5.5179,5.5179,5.5179,5.5179,5.5179,5.5179,5.5179,5.5179,5.5179,5.5179,5.5179,5.5179,0.0,5.5179,5.5179,5.5179,5.5179,5.5179,5.5179,5.5179,5.5179,5.5179,5.5179,5.5179,5.5179,5.6396,5.715,5.7574,5.9653,5.9961,5.8854,5.9703,5.937,5.8186,5.7983,5.7881,5.7881,5.7881,5.7881,5.7881,5.7881,5.7881,5.7881,3.8366,3.8542,3.8718,3.8718,3.8994,3.922,3.922,3.9496,3.9697,0.0,0.0,0.0,4.035,4.0676,4.0799,4.0799,4.11,4.1376,4.1656,4.1681,4.1932,4.2539,4.2564,4.3051,4.4155,4.3178,4.3153,4.4155,4.3922,4.3948,4.4235,4.5822,4.6756,4.7108,4.8159,4.9317,5.0501,5.1673,5.293,5.4192,5.4072,5.4491,5.5149,5.476,5.485,5.5179,5.5179,5.5179,5.5179,5.5179,5.5179,0.0,0.0,0.0,0.0,0.0,0.0,0.0,0.0,0.0,0.0,0.0,0.0,0.0,5.5179,5.5179,5.5179,5.5179,5.5179,5.5179,5.5179,5.5179,5.5179,5.5179,5.5179,5.5179,5.5179,5.5179,5.5179,5.5179,5.5179,5.5179,5.5179,5.5179,5.5179,5.5179,5.5179,5.5179,5.5179,5.5179,5.5179,5.5179,5.5179,5.5179,5.5179,5.5179,5.5179,5.5179,5.5918,5.6493,5.7039,5.8464,5.8799,5.8338,5.9012,5.8786,5.7881,5.7881,5.7881,5.7881,5.7881,5.7881,5.7881,5.7881,5.7881,5.7881,0.0,3.9346,3.9697,3.9697,3.9697,3.9722,3.9772,3.9798,3.9798,0.0,4.03,4.0802,4.1225,4.1351,4.1376,4.1376,4.1426,4.1731,4.2263,4.2313,4.2514,4.2961,4.2986,4.2986,4.2986,4.2564,4.2539,4.2986,4.2615,4.264,4.3143,4.4934,4.5802,4.5989,4.8216,4.9365,4.9611,5.0188,5.1739,5.3861,5.4455,5.4896,5.5179,5.5027,5.5078,5.5179,5.5179,5.5179,5.5179,5.5179,5.5179,0.0,0.0,0.0,0.0,0.0,5.5179,0.0,0.0,0.0,0.0,0.0,5.5179,0.0,5.5179,5.5179,5.5179,5.5179,5.5179,5.5179,5.5179,5.5179,5.5179,5.5179,5.5179,5.5179,5.5179,5.5179,5.5179,5.5179,5.5179,5.5179,5.5179,5.5179,5.5179,5.5179,5.5179,5.5179,5.5179,5.5179,5.5179,5.5179,5.5179,5.5179,5.5179,5.5179,5.5179,5.5179,5.5179,5.5769,5.68,5.6943,5.734,5.7936,5.8216,5.8063,5.7701,5.7701,5.7808,5.7881,5.7881,5.7881,5.7881,5.7881,5.7881,5.7881,3.9521,3.9622,3.9697,3.9697,3.9697,3.9848,4.03,4.035,4.0526,4.0899,4.105,4.1175,4.1275,4.1731,4.2037,4.2037,4.2409,4.271,4.2811,4.2811,4.2861,4.2961,4.2986,4.2986,4.2986,4.2861,4.2861,4.2986,4.3313,4.3539,4.3639,4.4478,4.5099,4.5613,4.6108,4.7204,4.8748,4.8855,4.9878,5.1367,5.1562,5.304,5.5078,5.386,5.42,5.5179,5.5179,5.5179,5.5179,5.5179,5.5179,5.5179,0.0,0.0,0.0,5.5179,0.0,0.0,0.0,0.0,0.0,0.0,0.0,0.0,5.5179,5.5179,5.5179,5.5179,5.5179,5.5179,5.5179,5.5179,5.5179,5.5179,5.5179,5.5179,5.5179,5.5179,5.5179,5.5179,5.5179,5.5179,5.5179,5.5179,5.5179,5.5179,5.5179,5.5179,5.5179,5.5179,5.5179,5.5179,5.5179,5.5179,5.5179,5.5179,5.5179,5.5179,5.5179,5.533,5.5601,5.6541,5.6451,5.5673,5.7479,5.7635,5.6547,5.6547,5.7076,5.7881,5.7881,5.7881,5.7881,5.7881,5.7881,5.7881,4.0526,4.0526,4.0526,4.0526,4.0526,4.0601,4.0824,4.0874,4.0974,4.125,4.158,4.1856,4.2133,4.2409,4.2615,4.2615,4.2811,4.2986,4.2986,4.2986,4.2986,4.2986,4.2986,4.2986,4.2986,4.3237,4.3388,4.3388,4.394,4.4217,4.4217,4.4794,4.5221,4.5497,4.5773,4.6442,4.7416,4.7416,4.8242,4.9678,5.038,5.159,5.2881,5.2105,5.2775,5.4068,5.4068,5.459,5.5179,5.5179,5.5179,0.0,5.5179,5.5179,5.5179,0.0,5.5179,5.5179,0.0,0.0,0.0,5.5179,0.0,0.0,0.0,5.5179,5.5179,5.5179,5.5179,5.5179,5.5179,5.5179,5.5179,5.5179,5.5179,5.5179,5.5179,5.5179,5.5179,5.5179,5.5179,5.5179,5.5179,5.5179,5.5059,5.473,5.4999,5.5029,5.473,5.4999,5.5179,5.5179,5.5179,5.5179,5.5179,5.5179,5.5179,5.5179,5.5179,5.5179,5.5229,5.5819,5.5691,5.4977,5.6132,5.6123,5.5377,5.5377,5.573,5.6315,5.6849,5.7372,5.7881,5.7881,5.7881,5.7881,4.0463,4.036,4.036,4.036,4.036,4.0463,4.0507,4.0586,4.0611,4.0709,4.1102,4.1601,4.2044,4.2069,4.2206,4.2513,4.2569,4.2731,4.3137,4.3137,4.3187,4.3288,4.3288,4.3288,4.3288,4.374,4.3966,4.3966,4.4518,4.4794,4.4794,4.5372,4.5648,4.5673,4.6125,4.6301,4.6301,4.6301,4.6968,4.821,4.9395,5.0212,5.0657,5.038,5.1236,5.2562,5.291,5.3964,5.5179,5.5179,5.5179,5.5179,5.5179,5.5179,0.0,0.0,0.0,0.0,0.0,0.0,0.0,0.0,0.0,5.5179,0.0,0.0,0.0,5.5179,0.0,0.0,0.0,0.0,0.0,5.5029,0.0,0.0,0.0,5.5119,0.0,5.5179,5.5179,5.5179,5.5179,5.5089,5.479,5.4251,5.4581,5.4581,5.4042,5.464,5.4999,5.4999,5.5119,5.5179,5.5179,5.5179,5.5179,5.5179,5.5179,5.5179,5.5179,5.5179,5.4975,5.4591,5.4792,5.4666,5.4295,5.4295,5.4421,5.4713,5.5538,5.6586,5.7591,5.7591,5.7701,5.7881,3.7325,3.7167,3.7167,3.7167,3.7167,3.7303,3.7733,3.7859,3.8018,3.8471,3.8644,3.8689,3.8757,3.8757,3.9347,4.0765,4.088,4.1695,4.3551,4.3714,4.3915,4.4418,4.4443,4.4443,4.4443,4.4493,4.4543,4.4543,4.5121,4.5397,4.5397,4.5949,4.6225,4.6225,4.6276,4.6301,4.6301,4.6301,4.6421,4.6576,4.6755,4.8358,5.0546,4.9251,4.9678,5.1153,5.2509,5.3964,5.5179,5.5179,5.5179,5.5179,0.0,5.5179,5.5179,5.5179,0.0,0.0,0.0,0.0,0.0,0.0,5.5179,0.0,0.0,0.0,5.5179,5.5179,0.0,0.0,0.0,0.0,0.0,0.0,0.0,0.0,5.4401,5.482,5.5179,5.5179,5.5179,5.5179,5.5179,5.467,5.4281,5.4221,5.3713,5.3384,5.3294,5.3952,5.4311,5.4311,5.488,5.5179,5.5179,5.5179,5.5179,5.5179,5.5179,5.5179,5.5179,5.5179,5.456,5.3465,5.4451,5.4202,5.3077,5.3077,5.3699,5.463,5.4755,5.5417,5.6398,5.6398,5.7039,5.7881,3.745,3.7537,3.7537,3.7537,3.7537,3.7627,3.7828,3.7851,3.794,3.8201,3.841,3.8589,3.8589,3.8774,3.9257,3.9922,3.9983,4.0795,4.268,4.2822,4.3355,4.456,4.4618,4.4618,4.4618,4.4945,4.5121,4.5121,4.5698,4.5974,4.5974,4.62,4.6301,4.6301,4.6301,4.6301,4.6301,4.6301,4.6301,4.6301,4.6301,4.7027,4.8068,4.7475,4.8126,4.9621,5.1098,5.2615,5.3912,5.3912,5.4458,0.0,0.0,0.0,0.0,5.5179,0.0,0.0,0.0,0.0,0.0,0.0,0.0,0.0,5.5179,0.0,5.5179,0.0,0.0,0.0,0.0,0.0,0.0,0.0,5.4999,0.0,0.0,0.0,5.5179,0.0,0.0,0.0,5.5179,5.4581,5.4042,5.3653,5.3354,5.3025,5.2636,5.3264,5.3803,5.4192,5.4491,5.482,5.5179,5.5179,5.5179,5.5179,5.5179,5.5179,5.5179,5.479,5.4102,5.3193,5.3252,5.2761,5.188,5.188,5.22,5.262,5.262,5.3699,5.5369,5.5968,5.6476,5.7001,3.6985,3.7015,3.6902,3.6902,3.6902,3.6946,3.7076,3.7097,3.714,3.7209,3.7533,3.7749,3.7749,3.7989,3.8371,3.881,3.881,3.9809,4.2194,4.2315,4.3132,4.5012,4.5095,4.5095,4.5095,4.5497,4.5723,4.5723,4.6125,4.6301,4.6301,4.6301,4.6301,4.6301,4.6301,4.6301,4.6301,4.6301,4.6301,4.6301,4.6301,4.6301,4.6301,4.6301,4.7205,4.8647,4.9734,5.1044,5.2455,5.2857,5.3675,5.4692,5.5078,5.5179,5.5179,0.0,0.0,0.0,5.5179,0.0,0.0,0.0,0.0,0.0,0.0,0.0,0.0,0.0,0.0,0.0,0.0,0.0,5.5119,5.494,0.0,5.5119,0.0,5.5089,0.0,0.0,0.0,0.0,0.0,5.4311,5.3653,5.2965,5.2755,5.2426,5.1947,5.2546,5.3144,5.3653,5.4012,5.4431,5.491,5.5089,5.5179,5.5179,5.5179,5.5179,5.5179,5.4521,5.3832,5.3144,5.2486,5.1828,5.1229,5.1229,5.1229,5.1229,5.1229,5.2215,5.3785,5.4888,5.5498,5.5889,3.4779,3.4113,3.3544,3.3544,3.3544,3.3681,3.4177,3.4236,3.4393,3.472,3.4864,3.4799,3.4799,3.4884,3.5451,3.7021,3.7148,3.8777,4.2631,4.2861,4.3917,4.6165,4.625,4.625,4.625,4.6276,4.6276,4.6276,4.6301,4.6301,4.6301,4.6301,4.6301,4.6301,4.6301,4.6301,4.6301,4.6301,4.6301,4.6301,4.6301,4.6301,4.6301,4.6301,4.7205,4.8532,4.8532,4.9508,5.0989,5.2509,5.3016,5.3308,5.4743,5.5179,5.5179,0.0,0.0,0.0,0.0,5.5179,5.5179,5.5179,0.0,0.0,0.0,0.0,5.5179,0.0,0.0,0.0,0.0,5.5179,5.497,5.4341,5.479,0.0,0.0,0.0,0.0,0.0,0.0,0.0,0.0,5.3623,5.2935,0.0,5.1648,5.1259,5.1259,5.1887,5.2247,5.2247,5.3533,5.4221,5.4251,5.488,5.5179,5.5179,5.5179,5.5179,5.5179,5.4521,5.3832,5.3144,5.2486,5.1828,5.1229,5.1229,5.1229,5.1229,5.1229,5.1246,5.1433,5.262,5.3699,5.4672,3.4707,3.4473,3.4277,3.4277,3.4277,3.4316,3.4473,3.4492,3.4531,3.4687,3.4961,3.5156,3.5156,3.541,3.5768,3.635,3.635,3.7431,3.9886,4.1126,4.2583,4.4497,4.5671,4.6301,4.6301,4.6301,4.6301,4.6301,4.6301,4.6301,4.6301,4.6301,4.6301,4.6301,4.6301,4.6301,4.6301,4.6301,4.6301,4.6301,4.6301,4.6527,4.6803,4.6451,4.6576,4.7027,4.7027,4.7977,4.9308,4.9874,5.1345,5.3069,5.3571,5.4406,5.5179,5.5179,5.5179,5.5179,5.5179,5.5179,5.5179,5.5179,5.5179,5.5179,0.0,0.0,0.0,0.0,0.0,0.0,0.0,5.5179,5.5119,5.491,5.5029,5.5119,0.0,0.0,0.0,0.0,0.0,0.0,0.0,0.0,0.0,0.0,5.1588,0.0,5.1229,5.1439,5.1738,5.2187,5.2636,5.3084,5.3533,5.4192,5.4551,5.4551,5.497,5.5179,5.5149,5.4042,5.3384,5.3114,5.2037,5.1439,5.1229,5.1229,5.1229,5.1229,5.1229,5.1229,5.1339,5.2485,5.3165,5.3569,3.5176,3.5176,3.5059,3.4746,3.4707,3.4766,3.4922,3.4941,3.5,3.5156,3.543,3.5605,3.5605,3.5859,3.6016,3.6016,3.6016,3.6742,3.8486,3.9627,4.1052,4.2769,4.4436,4.5403,4.5403,4.5974,4.6301,4.6301,4.6301,4.6301,4.6301,4.6301,4.6301,4.6301,4.6301,4.6301,4.6301,4.6301,4.6301,4.6326,4.6527,4.6803,4.7043,4.6954,4.6753,4.6577,4.6376,4.6934,4.7802,4.83,4.9818,5.1592,5.2644,5.3623,5.4509,5.5027,5.5179,5.5179,5.5179,5.5179,5.5179,5.5179,5.5179,5.5179,5.5179,5.5179,5.5179,0.0,0.0,0.0,0.0,0.0,5.5179,5.5179,5.5179,5.5179,0.0,5.5179,0.0,0.0,0.0,0.0,0.0,0.0,0.0,0.0,0.0,0.0,0.0,5.1229,5.1409,5.1828,5.2067,5.2396,5.2815,5.3503,5.3952,5.4221,5.464,5.497,5.5149,5.3803,5.3174,5.3114,5.1798,5.1229,5.1229,5.1229,5.1229,5.1229,5.1229,5.1229,5.1293,5.2018,5.2305,5.244,3.6016,3.6016,3.5762,3.4902,3.4766,3.4902,3.5351,3.543,3.5566,3.5976,3.6016,3.6016,3.6016,3.6016,3.6016,3.6016,3.6016,3.6722,3.8353,3.8531,3.9387,4.1117,4.2832,4.3731,4.3855,0.0,0.0,0.0,4.6301,4.6301,4.6301,4.6301,4.6301,4.6301,4.6326,4.6326,4.6301,4.6376,4.6376,4.6426,4.6954,4.7179,4.7255,4.7732,4.7606,4.7093,4.6577,4.6376,4.6617,4.7997,4.8495,4.9019,5.1892,5.2886,5.3308,5.4692,5.5128,5.5179,5.5179,5.5179,5.5179,5.5179,5.5179,5.5179,5.5179,5.5179,5.5179,0.0,0.0,0.0,0.0,0.0,5.5179,5.5179,5.5179,5.5179,5.5179,0.0,0.0,0.0,0.0,0.0,0.0,0.0,0.0,0.0,0.0,0.0,0.0,5.1229,5.1229,5.1229,5.1828,5.2157,5.2157,5.2815,5.3473,5.4162,5.4192,5.4551,5.5149,5.3832,5.3204,5.3114,5.1828,5.1259,5.1229,5.1229,5.1229,5.1229,5.1229,5.1229,5.1229,5.1229,5.1229,5.1339,3.6016,3.6016,3.5957,3.5723,3.5684,3.5723,3.584,3.5859,3.5898,3.6016,3.6016,3.6016,3.6016,3.6016,3.6016,3.6016,3.6016,3.6219,3.6674,3.7888,3.9387,4.1117,4.2832,4.4312,4.5586,4.6059,4.6301,4.6301,0.0,4.6301,4.6301,4.6301,4.6301,4.6326,4.6753,4.6702,4.6351,4.7154,4.7506,4.7506,4.7657,4.7958,4.8309,4.8033,4.8083,4.8284,4.7707,4.7506,4.7543,4.7973,4.8523,4.9255,4.9982,5.1543,5.3069,5.3466,5.4355,5.5179,5.5179,5.5179,5.5179,5.5179,5.5179,5.5179,5.5179,5.5179,5.5179,5.5179,5.5179,5.5179,5.5179,5.5179,5.5179,5.5179,5.5179,0.0,0.0,0.0,0.0,5.5179,0.0,0.0,0.0,0.0,0.0,0.0,0.0,0.0,5.1229,5.1229,5.1229,5.1229,5.1379,5.1468,5.1468,5.2127,5.2785,5.3443,5.3952,5.4551,5.5149,5.4311,5.3653,5.3144,5.2306,5.1678,5.1229,5.1229,5.1229,5.1229,5.1229,5.1229,5.1229,5.1229,5.1229,5.1246,3.6582,3.6582,3.6582,3.6582,3.6582,3.6445,3.6074,3.6172,3.6309,3.6309,3.6309,3.6309,3.6309,3.6309,3.6309,3.6309,3.6484,3.6582,3.6582,3.7505,3.8485,3.9474,4.1873,4.3699,4.4673,4.6217,0.0,4.7004,0.0,4.7004,4.7004,4.7004,4.7004,4.7029,4.733,4.7305,4.7054,4.7657,4.7908,4.7933,4.8184,4.8485,0.0,4.8686,4.8837,4.9088,4.8761,4.8335,4.7908,4.7908,4.8273,4.8765,4.9134,5.027,5.1571,5.2701,5.3571,5.4355,5.5027,5.5179,5.5179,5.5179,5.5179,5.5179,5.5179,5.5179,5.5179,5.5179,5.5179,5.5179,5.5179,5.5179,5.5179,0.0,0.0,0.0,0.0,0.0,0.0,0.0,5.494,0.0,0.0,0.0,0.0,0.0,0.0,0.0,0.0,5.1229,5.1229,5.1229,5.1229,5.1229,5.1229,5.1588,5.2247,5.3174,5.3563,5.4251,5.5179,5.4521,5.3832,5.3144,5.2486,5.1828,5.1229,5.1229,5.1229,5.1229,5.1229,5.1229,5.1229,5.1229,5.1229,5.1229,3.7305,3.7305,3.7305,3.7305,3.7305,3.7051,3.6309,3.6504,3.6758,3.6758,3.6758,3.6758,3.6758,3.6758,3.6758,3.6758,3.709,3.7305,3.7305,3.7305,3.7426,3.7637,4.0575,4.2438,4.2969,4.5981,4.7658,0.0,4.7908,4.7908,4.7908,4.7908,4.7908,4.7908,4.7983,4.8058,0.0,4.8058,4.8058,4.8184,4.8686,4.8887,4.8937,4.9414,4.959,4.959,4.959,4.8962,4.8134,4.8134,4.8083,4.8156,4.8893,4.9193,4.9685,5.1815,5.2697,5.3308,5.459,5.5027,5.5179,5.5179,5.5179,5.5179,5.5179,5.5179,5.5179,5.5179,5.5179,5.5179,5.5179,5.5179,5.5179,0.0,0.0,0.0,0.0,0.0,0.0,0.0,0.0,0.0,0.0,0.0,0.0,0.0,0.0,0.0,0.0,0.0,5.1229,5.1229,5.1229,5.1229,5.1229,5.1229,5.1887,5.3174,5.3174,5.3892,5.5179,5.461,5.3952,5.3264,5.2606,5.1947,5.1349,5.1259,5.1229,5.1229,5.1229,5.1229,5.1229,5.1229,5.1229,5.1229,3.7305,3.7305,3.7305,3.7305,3.7305,3.7246,3.709,3.7129,3.7187,3.7187,3.7187,3.7187,3.7187,3.7187,3.7187,3.7187,3.7266,3.7305,3.7305,3.7305,3.7967,3.9364,4.003,4.1769,4.4695,4.5365,4.6412,0.0,4.7908,4.7908,4.7908,4.7908,4.7908,4.7933,4.841,0.0,4.9264,4.8812,4.8887,4.9314,4.9414,4.9439,4.9464,4.9565,4.959,4.959,4.959,4.9464,4.9289,4.9289,4.8987,4.8573,4.8218,4.8696,4.9303,4.9297,5.1016,5.3069,5.3308,5.4252,5.5179,5.5179,5.5179,5.5179,5.5179,5.5179,5.5179,5.5179,5.5179,5.5179,5.5179,5.5179,5.5179,5.5179,0.0,0.0,0.0,0.0,0.0,0.0,0.0,5.3952,0.0,0.0,0.0,0.0,0.0,5.1229,5.1229,5.1229,5.1229,5.1229,5.1229,5.1229,5.1229,5.1229,5.1887,5.3174,5.3174,5.3892,5.5179,5.5059,5.467,5.3982,5.3324,5.2636,5.1977,5.1439,5.1229,5.1229,5.1229,5.1229,5.1229,5.1229,5.1229,5.1229,3.7949,3.7949,3.7949,3.7949,3.7949,3.7949,3.7949,3.7949,3.7871,3.7656,3.7617,3.7617,3.7617,3.7617,3.7617,3.7617,3.7832,3.7949,3.7949,3.7949,3.8379,3.9192,4.0137,4.1899,4.4541,4.5536,4.6956,4.8786,4.8786,4.8786,4.8786,4.8786,4.8786,4.8786,0.0,4.9339,0.0,4.9314,4.9339,4.959,4.959,4.959,4.959,4.959,4.959,4.959,4.959,4.959,4.959,4.959,4.9414,4.9038,4.8184,4.8176,4.8532,4.8504,4.9535,5.0851,5.1618,5.2881,5.4068,5.4068,5.4641,5.5179,5.5179,5.5179,5.5179,5.5179,5.5179,5.5179,5.5179,5.5179,5.5179,5.5179,5.5179,0.0,0.0,0.0,0.0,0.0,0.0,0.0,0.0,0.0,0.0,0.0,0.0,5.1229,5.1229,5.1229,5.1229,5.1229,5.1229,5.1229,5.1229,5.1229,5.1887,5.3174,5.3174,5.3892,5.5179,5.5179,5.482,5.4192,5.3862,5.3144,5.2157,5.1498,5.1229,5.1229,5.1229,5.1229,5.1229,5.1229,5.1229,5.1229,3.8574,3.8574,3.8574,3.8574,3.8574,3.8574,3.8574,3.8574,3.8457,3.8105,3.8066,3.8066,3.8066,3.8066,3.8066,3.8066,3.8379,3.8574,3.8574,3.8574,3.8574,3.8574,3.9962,4.1608,4.3473,4.4891,4.6756,0.0,4.9023,4.9117,4.9238,4.949,4.959,4.959,4.959,4.959,4.959,4.959,4.959,4.959,4.959,4.959,4.959,4.959,4.959,4.959,4.959,4.959,4.959,4.959,4.959,4.9414,4.841,4.8008,4.7954,4.8177,4.8347,4.8736,4.9932,5.1618,5.3016,5.3016,5.4119,5.5179,5.5179,5.5179,5.5179,5.5179,5.5179,5.5179,5.5179,5.5179,5.5179,5.5179,5.5179,0.0,0.0,0.0,0.0,0.0,0.0,0.0,5.3234,0.0,0.0,0.0,0.0,5.1229,5.1229,5.1229,5.1229,5.1229,5.1229,5.1229,5.1229,5.1229,5.1887,5.3174,5.3174,5.3892,5.5179,5.5179,5.491,5.4401,5.4281,5.3443,5.2157,5.1498,5.1229,5.1229,5.1229,5.1229,5.1229,5.1229,5.1229,5.1229,3.8574,3.8574,3.8574,3.8574,3.8574,3.8574,3.8574,3.8574,3.8555,3.8516,3.8516,3.8516,3.8516,3.8516,3.8516,3.8516,3.8555,3.8574,3.8574,3.8574,3.8574,3.8574,3.8793,3.9674,4.1538,4.1749,4.352,0.0,0.0,4.7418,4.8083,4.9113,4.959,4.959,4.959,4.959,4.959,4.959,4.959,4.959,4.959,4.959,4.959,4.959,4.959,4.959,4.959,4.959,4.959,4.959,4.959,4.949,4.8887,4.8335,4.7782,4.7327,4.7828,4.8532,4.8705,5.0796,5.3016,5.3016,5.4119,5.5179,5.5179,5.5179,5.5179,5.5179,5.5179,5.5179,5.5179,5.5179,5.5179,5.5179,5.5179,0.0,0.0,0.0,5.5179,0.0,0.0,0.0,0.0,5.2037,0.0,0.0,5.1229,5.1229,5.1229,5.1229,5.1229,5.1229,5.1229,5.1229,5.1229,5.1229,5.1887,5.3174,5.3174,5.3892,5.5179,5.5179,5.5149,5.5059,5.4461,5.3443,5.2157,5.1498,5.1229,5.1229,5.1229,5.1229,5.1229,5.1229,5.1229,5.1229,3.8574,3.8574,3.8574,3.8574,3.8574,3.8574,3.8574,3.8574,3.8574,3.8574,3.8574,3.8574,3.8574,3.8574,3.8574,3.8574,3.8574,3.8574,3.8574,3.8574,3.8574,3.8574,3.8574,3.9962,4.2918,4.2988,4.4778,0.0,0.0,4.867,4.8937,4.9389,4.959,4.959,4.959,4.959,4.959,4.959,4.959,4.959,4.959,4.959,4.959,4.959,4.959,4.959,4.959,4.959,4.959,4.959,4.959,4.949,4.8937,4.8611,4.8259,4.738,4.7379,4.7581,4.7308,4.8705,5.0296,5.0296,5.2079,5.386,5.386,5.459,5.5179,5.5179,5.5179,5.5179,5.5179,5.5179,5.5179,5.5179,5.5179,5.5179,0.0,0.0,0.0,0.0,0.0,0.0,0.0,5.2336,0.0,0.0,0.0,5.1229,5.1229,5.1229,5.1229,5.1229,5.1229,5.1229,5.1229,5.1229,5.1887,5.3174,5.3174,5.3892,5.5179,5.5179,5.5179,5.5149,5.4491,5.3683,5.2725,5.2067,5.1558,5.1229,5.1229,5.1229,5.1229,5.1229,5.1229,5.1229,3.8574,3.8574,3.8574,3.8574,3.8574,3.8574,3.8574,3.8574,3.8574,3.8574,3.8574,3.8574,3.8574,3.8574,3.8574,3.8574,3.8574,3.8574,3.8574,3.8574,3.8574,3.8574,3.8574,4.0105,4.3218,4.3288,4.505,4.8763,4.8763,4.8874,4.9088,4.9088,4.9264,4.959,4.959,4.959,4.959,4.959,4.959,4.959,4.959,4.959,4.959,4.959,4.959,4.959,4.959,4.959,4.959,4.959,4.959,4.9515,4.9138,4.8912,4.8586,4.7631,4.7193,4.7004,4.6451,4.7357,4.8474,4.8474,5.0407,5.2455,5.291,5.3808,5.4692,5.5128,5.5179,5.5179,5.5179,5.5179,5.5179,5.5179,5.5179,5.5179,0.0,5.5179,0.0,0.0,5.4431,5.3713,5.3234,5.2426,0.0,0.0,0.0,5.1229,5.1229,5.1229,5.1229,5.1229,5.1229,5.1229,5.1229,5.1409,5.2067,5.3174,5.3384,5.4072,5.5179,5.5179,5.5179,5.5149,5.4491,5.3922,5.3414,5.2546,5.1917,5.1498,5.1289,5.1229,5.1229,5.1229,5.1229,5.1229,3.8574,3.8574,3.8574,3.8574,3.8574,3.8574,3.8574,3.8574,3.8574,3.8574,3.8574,3.8574,3.8574,3.8574,3.8574,3.8574,3.8574,3.8574,3.8574,3.8574,3.8574,3.8574,3.8574,3.9478,4.1255,4.1326,4.3105,4.6798,0.0,4.7239,4.7933,4.7933,4.8535,4.959,4.959,4.959,4.959,4.959,4.959,4.959,4.959,4.959,4.959,4.959,4.959,4.959,4.959,4.959,4.959,4.959,4.959,4.959,4.959,4.9213,4.8661,4.8083,4.7531,4.7004,4.6451,4.7357,4.8474,4.8474,4.9621,5.1153,5.2615,5.3016,5.3466,5.4896,5.5179,5.5179,5.5179,5.5179,5.5179,5.5179,5.5179,5.5179,0.0,5.5179,0.0,5.5179,5.4012,5.3204,5.3174,5.2007,0.0,0.0,0.0,5.1229,5.1229,5.1229,5.1229,5.1229,5.1229,5.1229,5.1229,5.1858,5.2516,5.3204,5.3862,5.4551,5.5179,5.5179,5.5179,5.5149,5.4491,5.4221,5.4102,5.2755,5.2187,5.2127,5.1468,5.1229,5.1229,5.1229,5.1229,5.1229,3.8574,3.8574,3.8574,3.8574,3.8574,3.8574,3.8574,3.8574,3.8574,3.8574,3.8574,3.8574,3.8574,3.8574,3.8574,3.8574,3.8574,3.8574,3.8574,3.8574,3.8574,3.8574,3.9746,4.1347,4.3127,4.4414,4.6264,4.8673,4.8673,4.8849,4.9063,4.9063,4.9238,4.959,4.959,4.959,4.959,4.959,4.959,4.959,4.959,4.959,4.959,4.959,4.959,4.959,4.959,4.959,4.959,4.959,4.959,4.959,4.959,4.9464,4.9138,4.8184,4.7782,4.7456,4.6552,4.6636,4.6968,4.6968,4.8126,4.9365,4.9791,5.1537,5.3121,5.3571,5.4509,5.5179,5.5179,5.5179,5.5179,5.5179,5.5179,5.5179,5.5179,0.0,5.5179,5.5179,5.4012,5.3174,5.3174,5.2007,5.1229,0.0,5.1229,5.1229,5.1229,5.1229,5.1229,5.1229,5.1229,5.1229,5.1229,5.1858,5.2546,5.3204,5.3892,5.4551,5.5179,5.5179,5.5179,5.5179,5.497,5.461,5.4132,5.3234,5.2606,5.2127,5.1468,5.1229,5.1229,5.1229,5.1229,5.1229,3.8574,3.8574,3.8574,3.8574,3.8574,3.8574,3.8574,3.8574,3.8574,3.8574,3.8574,3.8574,3.8574,3.8574,3.8574,3.8574,3.8574,3.8574,3.8574,3.8574,3.8918,3.9622,4.0708,4.25,4.505,4.6197,4.7707,4.959,4.959,4.959,4.959,4.959,4.959,4.959,4.959,4.959,4.959,4.959,4.959,4.959,4.959,4.959,4.959,4.959,4.959,4.959,4.959,4.959,4.959,4.959,4.959,4.959,4.959,4.959,4.9364,4.8234,4.7908,4.7682,4.6602,4.6301,4.6301,4.6301,4.6968,4.7802,4.8358,5.0407,5.2295,5.291,5.3756,5.4509,5.5078,5.5179,5.5179,5.5179,5.5179,5.5179,5.5179,5.5179,5.5089,0.0,0.0,5.3084,5.2845,5.1858,5.1229,5.1229,5.1229,5.1229,5.1229,5.1229,5.1229,5.1229,5.1229,5.1349,5.1588,5.2247,5.2905,5.3563,5.4251,5.479,5.5179,5.5179,5.5179,5.5179,5.5179,5.497,5.4521,5.3832,5.3324,5.2875,5.1947,5.1588,5.1558,5.1319,5.1229,5.1229,3.8574,3.8574,3.8574,3.8574,3.8574,3.8574,3.8574,3.8574,3.8574,3.8574,3.8574,3.8574,3.8574,3.8574,3.8574,3.8574,3.8574,3.8574,3.8574,3.872,3.955,4.1255,4.1538,4.3313,4.6732,4.6931,4.7839,4.959,4.959,4.959,4.959,4.959,4.959,4.959,4.959,4.959,4.959,4.959,4.959,4.959,4.959,4.959,4.959,4.959,4.959,4.959,4.959,4.959,4.959,4.959,4.959,4.959,4.959,4.959,4.9389,4.8284,4.7933,4.7682,4.6652,4.6351,4.6301,4.6301,4.6301,4.6636,4.8035,4.9508,5.0933,5.2402,5.2751,5.3227,5.4641,5.4976,5.5027,5.5027,5.5128,5.5179,5.5179,5.5179,5.494,5.4281,5.3593,5.2935,5.2276,5.1588,5.1229,5.1229,5.1229,5.1229,5.1229,5.1229,5.1229,5.1229,5.1259,5.1588,5.2187,5.2905,5.3593,5.4281,5.491,5.5179,5.5179,5.5179,5.5179,5.5179,5.5179,5.5179,5.5149,5.4491,5.4221,5.4072,5.2785,5.2276,5.2187,5.1528,5.1289,5.1289,3.8574,3.8574,3.8574,3.8574,3.8574,3.8574,3.8574,3.8574,3.8574,3.8574,3.8574,3.8574,3.8574,3.8574,3.8574,3.8574,3.8574,3.8574,3.8574,3.989,4.085,4.1255,4.4003,4.5906,4.6798,4.8191,4.9177,4.959,4.959,4.959,4.959,4.959,4.959,4.959,4.959,4.959,4.959,4.959,4.959,4.959,4.959,4.959,4.959,4.959,4.959,4.959,4.959,4.959,4.959,4.959,4.959,4.959,4.959,4.959,4.9464,4.8761,4.8259,4.7757,4.7104,4.6627,4.6301,4.6301,4.6301,4.6361,4.6755,4.7977,4.9137,4.9478,5.0463,5.1372,5.1699,5.2722,5.3518,5.3518,5.4458,5.5179,5.5179,5.5179,5.494,5.4281,5.3593,5.2935,5.2276,5.1588,5.1229,5.1229,5.1229,5.1229,5.1229,5.1229,5.1229,5.1229,5.1708,5.2037,5.2187,5.3384,5.4311,5.497,5.5119,5.5179,5.5179,5.5179,5.5179,5.5179,5.5179,5.5179,5.5149,5.4491,5.4221,5.4132,5.3294,5.2935,5.2875,5.2217,5.1977,5.1887,3.8574,3.8574,3.8574,3.8574,3.8574,3.8574,3.8574,3.8574,3.8574,3.8574,3.8574,3.8574,3.8574,3.8574,3.8574,3.8574,3.8574,3.8574,3.8574,3.955,4.0779,4.2522,4.4505,4.6331,4.806,4.9112,4.959,4.959,4.959,4.959,4.959,4.959,4.959,4.959,4.959,4.959,4.959,4.959,4.959,4.959,4.959,4.959,4.959,4.959,4.959,4.959,4.959,4.959,4.959,4.959,4.959,4.959,4.959,4.959,4.954,4.9238,4.856,4.7782,4.728,4.6728,4.6301,4.6301,4.6301,4.6301,4.6301,4.6934,4.771,4.8358,4.9137,4.9903,5.0602,5.1943,5.3016,5.3016,5.4252,5.5179,5.5179,5.5179,5.482,5.3862,5.3414,5.2815,5.1858,5.1439,5.1229,5.1229,5.1229,5.1229,5.1229,5.1229,5.1229,5.1229,5.1858,5.2336,5.2636,5.3982,5.485,5.5179,5.5179,5.5179,5.5179,5.5179,5.5179,5.5179,5.5179,5.5179,5.5149,5.482,5.467,5.4581,5.3922,5.3653,5.3563,5.2905,5.2665,5.2606,3.8574,3.8574,3.8574,3.8574,3.8574,3.8574,3.8574,3.8574,3.8574,3.8574,3.8574,3.8574,3.8574,3.8574,3.8574,3.8574,3.8574,3.8574,3.8574,3.9136,4.0871,4.3978,4.4664,4.6378,4.9525,4.959,4.959,4.959,4.959,4.959,4.959,4.959,4.959,4.959,4.959,4.959,4.959,4.959,4.959,4.959,4.959,4.959,4.959,4.959,4.959,4.959,4.959,4.959,4.959,4.959,4.959,4.959,4.959,4.959,4.959,4.959,4.8862,4.7933,4.738,4.6803,4.6301,4.6301,4.6301,4.6301,4.6301,4.6301,4.6636,4.7919,4.8152,4.8532,4.982,5.1291,5.2402,5.2615,5.3675,5.4692,5.5128,5.4794,5.4188,5.3275,5.3028,5.2442,5.1302,5.1229,5.1229,5.1229,5.1229,5.1229,5.1229,5.1229,5.1259,5.1379,5.2007,5.2725,5.3473,5.461,5.5179,5.5179,5.5179,5.5179,5.5179,5.5179,5.5179,5.5179,5.5179,5.5179,5.5179,5.5179,5.5179,5.5119,5.4581,5.4371,5.4281,5.3593,5.3324,5.3324,3.8574,3.8574,3.8574,3.8574,3.8574,3.8574,3.8574,3.8574,3.8574,3.8574,3.8574,3.8574,3.8574,3.8574,3.8574,3.8574,3.8574,3.8574,3.8574,4.1488,4.3495,4.4116,4.7046,4.8983,4.959,4.959,4.959,4.959,4.959,4.959,4.959,4.959,4.959,4.959,4.959,4.959,4.959,4.959,4.959,4.959,4.959,4.959,4.959,4.959,4.959,4.959,4.959,4.959,4.959,4.959,4.959,4.959,4.959,4.959,4.959,4.959,4.9138,4.851,4.7933,4.7054,4.6301,4.6301,4.6301,4.6301,4.6301,4.6301,4.6361,4.6601,4.6636,4.6695,4.6909,4.821,4.9592,5.0878,5.1263,5.2266,5.4845,5.2987,5.1864,5.3079,5.2079,5.1303,5.1208,5.1229,5.1229,5.1229,5.1229,5.1229,5.1229,5.1229,5.1468,5.2037,5.2695,5.3623,5.488,5.5089,5.5179,5.5179,5.5179,5.5179,5.5179,5.5179,5.5179,5.5179,5.5179,5.5179,5.5179,5.5179,5.5179,5.5179,5.5089,5.5029,5.497,5.4281,5.4042,5.3952,3.8574,3.8574,3.8574,3.8574,3.8574,3.8574,3.8574,3.8574,3.8574,3.8574,3.8574,3.8574,3.8574,3.8574,3.8574,3.8574,3.9478,4.0033,4.0033,4.1608,4.3473,4.5457,4.7178,4.8542,4.959,4.959,4.959,4.959,4.959,4.959,4.959,4.959,4.959,4.959,4.959,4.959,4.959,4.959,4.959,4.959,4.959,4.959,4.959,4.959,4.959,4.959,4.959,4.959,4.959,4.959,4.959,4.959,4.959,4.959,4.959,4.959,4.8987,4.8184,4.7631,4.6903,4.6301,4.6301,4.6301,4.6301,4.6301,4.6301,4.6301,4.6301,4.6301,4.6301,4.6301,4.7534,4.8705,4.9395,5.0157,5.1208,5.2587,5.159,5.0873,5.1275,5.046,5.0047,5.0535,5.03,5.043,5.1152,5.1229,5.1229,5.1229,5.1229,5.1528,5.2187,5.3204,5.4192,5.5179,5.5179,5.5179,5.5179,5.5179,5.5179,5.5179,5.5179,5.5179,5.5179,5.5179,5.5179,5.5179,5.5179,5.5179,5.5179,5.5179,5.5179,5.5149,5.485,5.473,5.47,3.8574,3.8574,3.8574,3.8574,3.8574,3.8574,3.8574,3.8574,3.8574,3.8574,3.8574,3.8574,3.8574,3.8574,3.8793,3.9188,4.0514,4.1679,4.25,4.257,4.3865,4.6665,4.7221,4.8126,4.959,4.959,4.959,4.959,4.959,4.959,4.959,4.959,4.959,4.959,4.959,4.959,4.959,4.959,4.959,4.959,4.959,4.959,4.959,4.959,4.959,4.959,4.959,4.959,4.959,4.959,4.959,4.959,4.959,4.959,4.959,4.959,4.8887,4.7958,4.7244,4.6728,4.6301,4.6301,4.6301,4.6301,4.6301,4.6301,4.6301,4.6301,4.6301,4.6301,4.6301,4.7265,4.8094,4.8416,4.9167,4.9932,5.0602,5.0101,4.9659,4.9721,4.8953,4.8669,4.9433,4.9009,4.9259,5.065,5.0745,5.087,5.1182,5.1229,5.1588,5.2396,5.3593,5.4521,5.5179,5.5179,5.5179,5.5179,5.5179,5.5179,5.5179,5.5179,5.5179,5.5179,5.5179,5.5179,5.5179,5.5179,5.5179,5.5179,5.5179,5.5179,5.5179,5.5179,5.5179,5.5179,3.8574,3.8574,3.8574,3.8574,3.8574,3.8574,3.8574,3.8574,3.8574,3.8574,3.8574,3.8574,3.8574,3.8574,3.9261,4.0921,4.1184,4.2779,4.6197,4.6398,4.6532,4.6798,4.8477,4.9461,4.959,4.959,4.959,4.959,4.959,4.959,4.959,4.959,4.959,4.959,4.959,4.959,4.959,4.959,4.959,4.959,4.959,4.959,4.959,4.959,4.959,4.959,4.959,4.959,4.959,4.959,4.959,4.959,4.959,4.959,4.959,4.959,4.9163,4.8485,4.7431,4.6728,4.6301,4.6301,4.6301,4.6301,4.6301,4.6301,4.6301,4.6301,4.6301,4.6301,4.6301,4.6361,4.6934,4.8268,4.7416,4.7567,5.0324,4.8358,4.736,4.9447,4.8025,4.7187,4.7956,4.7557,4.7808,4.9259,4.9357,4.9873,5.1105,5.1229,5.1798,5.3084,5.3832,5.4521,5.5179,5.5179,5.5179,5.5179,5.5179,5.5179,5.5179,5.5179,5.5179,5.5179,5.5179,5.5179,5.5179,5.5179,5.5179,5.5179,5.5179,5.5179,5.5179,5.5179,5.5179,5.5179,3.8574,3.8574,3.8574,3.8574,3.8574,3.8574,3.8574,3.8574,3.8574,3.8574,3.8574,3.8574,3.8574,3.8574,3.9333,4.1134,4.2382,4.4094,4.6599,4.7904,4.8542,4.8542,4.9242,4.959,4.959,4.959,4.959,4.959,4.959,4.959,4.959,4.959,4.959,4.959,4.959,4.959,4.959,4.959,4.959,4.959,4.959,4.959,4.959,4.959,4.959,4.959,4.959,4.959,4.959,4.959,4.959,4.959,4.959,4.959,4.959,4.959,4.9213,4.8611,4.7832,4.723,4.6753,4.6401,4.6301,4.6301,4.6301,4.6301,4.6301,4.6301,4.6301,4.6301,4.6301,4.6301,4.6481,4.7027,4.6636,4.6695,4.7802,4.7027,4.6619,4.749,4.665,4.6285,4.7078,4.6679,4.6805,4.7785,4.8688,4.9406,4.9921,5.1131,5.2067,5.2546,5.3234,5.4102,5.5179,5.5179,5.5179,5.5179,5.5179,5.5179,5.5179,5.5179,5.5179,5.5179,5.5179,5.5179,5.5179,5.5179,5.5179,5.5179,5.5179,5.5179,5.5179,5.5179,5.5179,5.5179,3.8574,3.8574,3.8574,3.8574,3.8574,3.8574,3.8574,3.8574,3.8574,3.8574,3.8574,3.8574,3.8574,3.9136,4.0157,4.2031,4.3887,4.5727,4.7575,4.8893,4.959,4.959,4.959,4.959,4.959,4.959,4.959,4.959,4.959,4.959,4.959,4.959,4.959,4.959,4.959,4.959,4.959,4.959,4.959,4.959,4.959,4.959,4.959,4.959,4.959,4.959,4.959,4.959,4.959,4.959,4.959,4.959,4.959,4.959,4.959,4.959,4.9314,4.8912,4.8335,4.7782,4.7205,4.6476,4.6301,4.6301,4.6301,4.6301,4.6301,4.6301,4.6301,4.6301,4.6301,4.6301,4.6301,4.6301,4.6301,4.6301,4.6301,4.6301,4.6301,4.6301,4.5824,4.5631,4.6026,4.5567,4.5573,4.6372,4.735,4.8088,4.8539,5.0282,5.1343,5.1579,5.2442,5.3414,5.4551,5.476,5.497,5.5179,5.5179,5.5179,5.5179,5.5179,5.5179,5.5179,5.5179,5.5179,5.5179,5.5179,5.5179,5.5179,5.5179,5.5179,5.5179,5.5179,5.5179,5.5179,3.8574,3.8574,3.8574,3.8574,3.8574,3.8574,3.8574,3.8574,3.8574,3.8574,3.8574,3.8574,3.8647,4.0228,4.2101,4.3978,4.5794,4.7575,4.9461,4.959,4.959,4.959,4.959,4.959,4.959,4.959,4.959,4.959,4.959,4.959,4.959,4.959,4.959,4.959,4.959,4.959,4.959,4.959,4.959,4.959,4.959,4.959,4.959,4.959,4.959,4.959,4.959,4.959,4.959,4.959,4.959,4.959,4.959,4.959,4.959,4.959,4.959,4.9464,4.8912,4.836,4.7657,4.6577,4.6301,4.6301,4.6301,4.6301,4.6301,4.6301,4.6301,4.6301,4.6301,4.6301,4.6301,4.6301,4.6301,4.6301,4.6301,4.6301,4.6301,4.6301,4.5824,4.5271,4.4694,4.4141,4.4158,4.494,4.4994,4.5608,4.6991,4.8439,4.9499,5.0162,5.1482,5.2516,5.3174,5.3862,5.4521,5.5179,5.5179,5.5179,5.5179,5.5179,5.5179,5.5179,5.5179,5.5179,5.5179,5.5179,5.5179,5.5179,5.5179,5.5179,5.5179,5.5179,5.5179,5.5179,3.8574,3.8574,3.8574,3.8574,3.8574,3.8574,3.8574,3.8574,3.8574,3.8574,3.8574,3.9063,4.0371,4.0992,4.257,4.5727,4.6465,4.7575,4.9461,4.959,4.959,4.959,4.959,4.959,4.959,4.959,4.959,4.959,4.959,4.959,4.959,4.959,4.959,4.959,4.959,4.959,4.959,4.959,4.959,4.959,4.959,4.959,4.959,4.959,4.959,4.959,4.959,4.959,4.959,4.959,4.959,4.959,4.959,4.959,4.959,4.959,4.959,4.9464,4.8912,4.8636,4.8259,4.7154,4.6602,4.6301,4.6301,4.6301,4.6301,4.6301,4.6301,4.6301,4.6301,4.6301,4.6301,4.6301,4.6301,4.6301,4.6301,4.6301,4.6301,4.6301,4.6175,4.5673,4.4719,4.4468,4.4137,4.3623,4.4481,4.5608,4.6991,4.7503,4.7819,4.7987,4.94,5.0437,5.1108,5.2674,5.3593,5.3773,5.4281,5.4491,5.4521,5.497,5.5179,5.5179,5.5179,5.5179,5.5179,5.5179,5.5179,5.5179,5.5179,5.5179,5.5179,5.5179,5.5179,5.5179,3.8574,3.8574,3.8574,3.8574,3.8574,3.8574,3.8574,3.8574,3.8574,3.8574,3.8574,3.9261,4.1134,4.1961,4.3611,4.6532,4.7509,4.8412,4.9525,4.959,4.959,4.959,4.959,4.959,4.959,4.959,4.959,4.959,4.959,4.959,4.959,4.959,4.959,4.959,4.959,4.959,4.959,4.959,4.959,4.959,4.959,4.959,4.959,4.959,4.959,4.959,4.959,4.959,4.959,4.959,4.959,4.959,4.959,4.959,4.959,4.959,4.959,4.9515,4.9188,4.8937,4.8611,4.7933,4.7205,4.6577,4.6351,4.6301,4.6301,4.6301,4.6301,4.6301,4.6301,4.6301,4.6301,4.6301,4.6301,4.6301,4.6301,4.6301,4.6301,4.6301,4.6301,4.5874,4.4744,4.4618,4.4166,4.3062,4.3768,4.4589,4.5449,4.5978,4.6265,4.6265,4.7656,4.8838,4.9816,5.1013,5.2121,5.3174,5.3593,5.3803,5.3832,5.4491,5.479,5.482,5.5089,5.5179,5.5179,5.5179,5.5179,5.5179,5.5179,5.5179,5.5179,5.5179,5.5179,5.5179,3.8574,3.8574,3.8574,3.8574,3.8574,3.8574,3.8574,3.8574,3.8574,3.8574,3.872,3.955,4.1326,4.3196,4.505,4.6889,4.8608,4.959,4.959,4.959,4.959,4.959,4.959,4.959,4.959,4.959,4.959,4.959,4.959,4.959,4.959,4.959,4.959,4.959,4.959,4.959,4.959,4.959,4.959,4.959,4.959,4.959,4.959,4.959,4.959,4.959,4.959,4.959,4.959,4.959,4.959,4.959,4.959,4.959,4.959,4.959,4.959,4.959,4.959,4.9213,4.8837,4.8786,4.8033,4.7129,4.6527,4.6351,4.6301,4.6301,4.6301,4.6301,4.6301,4.6301,4.6301,4.6301,4.6301,4.6301,4.6301,4.6301,4.6301,4.6301,4.6301,4.5874,4.4744,4.4543,4.4066,4.3062,4.2986,4.2986,4.2986,4.418,4.4833,4.4833,4.6188,4.7503,4.8787,4.8964,5.0359,5.2995,5.3054,5.3084,5.3114,5.3803,5.4162,5.4251,5.485,5.5149,5.5179,5.5179,5.5179,5.5179,5.5179,5.5179,5.5179,5.5179,5.5179,5.5179,3.8574,3.8574,3.8574,3.8574,3.8574,3.8574,3.8574,3.8574,3.8574,3.8574,3.9818,4.1397,4.3266,4.5118,4.6955,4.8828,4.9396,4.959,4.959,4.959,4.959,4.959,4.959,4.959,4.959,4.959,4.959,4.959,4.959,4.959,4.959,4.959,4.959,4.959,4.959,4.959,4.959,4.959,4.959,4.959,4.959,4.959,4.959,4.959,4.959,4.959,4.959,4.959,4.959,4.959,4.959,4.959,4.959,4.959,4.959,4.959,4.959,4.959,4.959,4.9515,4.9314,4.8887,4.8586,4.8159,4.7179,4.6627,4.6301,4.6301,4.6301,4.6301,4.6301,4.6301,4.6301,4.6301,4.6301,4.6301,4.6301,4.6301,4.6301,4.6301,4.6301,4.5874,4.4744,4.384,4.3237,4.2986,4.2986,4.2986,4.2986,4.3295,4.3436,4.3436,4.4725,4.5608,4.5925,4.6991,4.893,5.1648,5.2157,5.2426,5.2426,5.3084,5.3683,5.4221,5.4371,5.47,5.5179,5.5179,5.5179,5.5179,5.5179,5.5179,5.5179,5.5179,5.5179,5.5179,3.8574,3.8574,3.8574,3.8574,3.8574,3.8574,3.8574,3.8574,3.8574,3.8574,4.0157,4.2031,4.391,4.5727,4.7575,4.9461,4.959,4.959,4.959,4.959,4.959,4.959,4.959,4.959,4.959,4.959,4.959,4.959,4.959,4.959,4.959,4.959,4.959,4.959,4.959,4.959,4.959,4.959,4.959,4.959,4.959,4.959,4.959,4.959,4.959,4.959,4.959,4.959,4.959,4.959,4.959,4.959,4.959,4.959,4.959,4.959,4.959,4.959,4.959,4.959,4.9515,4.9238,4.8962,4.8485,4.738,4.6903,4.6627,4.6376,4.6301,4.6301,4.6301,4.6301,4.6301,4.6301,4.6301,4.6301,4.6301,4.6301,4.6301,4.6301,4.6301,4.5874,4.4744,4.3639,4.2986,4.2986,4.2986,4.2986,4.2986,4.2986,4.2986,4.2986,4.3713,4.4372,4.4994,4.5714,4.7503,5.0239,5.0592,5.1106,5.1768,5.2426,5.3084,5.3743,5.4072,5.4581,5.5179,5.5179,5.5179,5.5179,5.5179,5.5179,5.5179,5.5179,5.5179,5.5179,3.8574,3.8574,3.8574,3.8574,3.8574,3.8574,3.8574,3.8574,3.8574,3.8574,4.0157,4.2031,4.391,4.5996,4.7929,4.9461,4.959,4.959,4.959,4.959,4.959,4.959,4.959,4.959,4.959,4.959,4.959,4.959,4.959,4.959,4.959,4.959,4.959,4.959,4.959,4.959,4.959,4.959,4.959,4.959,4.959,4.959,4.959,4.959,4.959,4.959,4.959,4.959,4.959,4.959,4.959,4.959,4.959,4.959,4.959,4.959,4.959,4.959,4.959,4.959,4.959,4.959,4.9264,4.8661,4.7631,4.728,4.6943,4.6552,4.6376,4.6301,4.6301,4.6301,4.6301,4.6301,4.6301,4.6301,4.6301,4.6301,4.6301,4.6301,4.615,4.5623,4.4593,4.3564,4.2986,4.2986,4.2986,4.2986,4.2986,4.2986,4.2986,4.2986,4.2986,4.3547,4.4643,4.4671,4.6083,4.8837,4.8837,4.9679,5.1229,5.1798,5.2396,5.3054,5.3743,5.4401,5.5029,5.5149,5.5179,5.5179,5.5179,5.5179,5.5179,5.5179,5.5179,5.5179,3.8574,3.8574,3.8574,3.8574,3.8574,3.8574,3.8574,3.8574,3.8574,3.8574,4.0157,4.2031,4.391,4.7178,4.9307,4.959,4.959,4.959,4.959,4.959,4.959,4.959,4.959,4.959,4.959,4.959,4.959,4.959,4.959,4.959,4.959,4.959,4.959,4.959,4.959,4.959,4.959,4.959,4.959,4.959,4.959,4.959,4.959,4.959,4.959,4.959,4.959,4.959,4.959,4.959,4.959,4.959,4.959,4.959,4.959,4.959,4.959,4.959,4.959,4.959,4.959,4.959,4.954,4.9314,4.8686,4.7807,4.7043,4.7029,4.6652,4.6301,4.6301,4.6301,4.6301,4.6301,4.6301,4.6301,4.6301,4.6301,4.6301,4.6301,4.5447,4.4593,4.3966,4.3338,4.2986,4.2986,4.2986,4.2986,4.2986,4.2986,4.2986,4.2986,4.2986,4.3073,4.3295,4.3295,4.4643,4.735,4.735,4.8738,5.1229,5.1319,5.1708,5.2366,5.3025,5.3713,5.4371,5.497,5.5179,5.5179,5.5179,5.5179,5.5179,5.5179,5.5179,5.5179,3.8574,3.8574,3.8574,3.8574,3.8574,3.8574,3.8574,3.8574,3.8574,3.8574,4.0157,4.2031,4.391,4.7401,4.959,4.959,4.959,4.959,4.959,4.959,4.959,4.959,4.959,4.959,4.959,4.959,4.959,4.959,4.959,4.959,4.959,4.959,4.959,4.959,4.959,4.959,4.959,4.959,4.959,4.959,4.959,4.959,4.959,4.959,4.959,4.959,4.959,4.959,4.959,4.959,4.959,4.959,4.959,4.959,4.959,4.959,4.959,4.959,4.959,4.959,4.959,4.959,4.959,4.954,4.9289,4.8611,4.7883,4.7193,4.6702,4.6301,4.6301,4.6301,4.6301,4.6301,4.6301,4.6301,4.6301,4.6301,4.62,4.5899,4.5121,4.4418,4.3865,4.3288,4.2986,4.2986,4.2986,4.2986,4.2986,4.2986,4.2986,4.2986,4.2986,4.2986,4.2986,4.2986,4.4372,4.7094,4.7094,4.8539,5.1229,5.1229,5.1588,5.2247,5.2905,5.3563,5.4251,5.491,5.5179,5.5179,5.5179,5.5179,5.5179,5.5179,5.5179,5.5179]}]]